<?xml version='1.0' encoding='UTF-8'?><gpx version="1.1" creator="JPX - https://github.com/jenetics/jpx" xmlns="http://www.topografix.com/GPX/1/1"><trk><trkseg><trkpt lat="44.34308470268768" lon="10.738832902930517"><ele>618.75</ele><time>2026-05-02T12:01:05Z</time></trkpt><trkpt lat="44.34301927387662" lon="10.73882715505759"><ele>618.5</ele><time>2026-05-02T12:01:06Z</time></trkpt><trkpt lat="44.34291777012895" lon="10.738799496152094"><ele>618.25</ele><time>2026-05-02T12:01:08Z</time></trkpt><trkpt lat="44.34283141723924" lon="10.738803771586165"><ele>618.0</ele><time>2026-05-02T12:01:11Z</time></trkpt><trkpt lat="44.34271680158639" lon="10.73927056142571"><ele>615.6</ele><time>2026-05-02T12:01:13Z</time></trkpt><trkpt lat="44.342657219582996" lon="10.73939147717037"><ele>613.1999999999999</ele><time>2026-05-02T12:01:15Z</time></trkpt><trkpt lat="44.34262753603946" lon="10.739512754848164"><ele>610.8</ele><time>2026-05-02T12:01:16.999Z</time></trkpt><trkpt lat="44.34256720605076" lon="10.739575094495088"><ele>608.4</ele><time>2026-05-02T12:01:19.999Z</time></trkpt><trkpt lat="44.3424513880635" lon="10.7396310390191"><ele>606.0</ele><time>2026-05-02T12:01:22.999Z</time></trkpt><trkpt lat="44.342370609929105" lon="10.739648422174822"><ele>606.0</ele><time>2026-05-02T12:01:24.999Z</time></trkpt><trkpt lat="44.34227217627127" lon="10.739659890512675"><ele>606.0</ele><time>2026-05-02T12:01:26.999Z</time></trkpt><trkpt lat="44.342196131995244" lon="10.739675291609228"><ele>606.0</ele><time>2026-05-02T12:01:28.999Z</time></trkpt><trkpt lat="44.34209749246445" lon="10.739699497613312"><ele>606.0</ele><time>2026-05-02T12:01:30.999Z</time></trkpt><trkpt lat="44.341993709918185" lon="10.739750142545763"><ele>606.0</ele><time>2026-05-02T12:01:32.999Z</time></trkpt><trkpt lat="44.341930306711305" lon="10.73976930991347"><ele>604.8333333333334</ele><time>2026-05-02T12:01:35.999Z</time></trkpt><trkpt lat="44.34185339442165" lon="10.739782484099651"><ele>603.6666666666666</ele><time>2026-05-02T12:01:37.999Z</time></trkpt><trkpt lat="44.34177083970214" lon="10.739822791864247"><ele>602.5</ele><time>2026-05-02T12:01:39.999Z</time></trkpt><trkpt lat="44.3416999595627" lon="10.73984308564442"><ele>601.3333333333333</ele><time>2026-05-02T12:01:41.999Z</time></trkpt><trkpt lat="44.34162577891332" lon="10.739820552669888"><ele>600.1666666666666</ele><time>2026-05-02T12:01:43.999Z</time></trkpt><trkpt lat="44.341543170609825" lon="10.739799901724298"><ele>599.0</ele><time>2026-05-02T12:01:45.999Z</time></trkpt><trkpt lat="44.34145938969864" lon="10.739790646767483"><ele>597.3333333333333</ele><time>2026-05-02T12:01:47.999Z</time></trkpt><trkpt lat="44.34136742773617" lon="10.739757814197953"><ele>595.6666666666666</ele><time>2026-05-02T12:01:49.999Z</time></trkpt><trkpt lat="44.341261914981956" lon="10.73975093296412"><ele>594.0</ele><time>2026-05-02T12:01:51.999Z</time></trkpt><trkpt lat="44.34117827142471" lon="10.739752247957183"><ele>592.3333333333334</ele><time>2026-05-02T12:01:53.999Z</time></trkpt><trkpt lat="44.34108206245573" lon="10.73973021937115"><ele>590.6666666666667</ele><time>2026-05-02T12:01:55.999Z</time></trkpt><trkpt lat="44.34101604885622" lon="10.739724132394683"><ele>589.0</ele><time>2026-05-02T12:01:57.999Z</time></trkpt><trkpt lat="44.34090841307775" lon="10.739746814525693"><ele>589.0</ele><time>2026-05-02T12:01:59.999Z</time></trkpt><trkpt lat="44.340810448742715" lon="10.739738384898732"><ele>589.0</ele><time>2026-05-02T12:02:01.999Z</time></trkpt><trkpt lat="44.34073213154053" lon="10.73972107264509"><ele>589.0</ele><time>2026-05-02T12:02:03.999Z</time></trkpt><trkpt lat="44.34065027488191" lon="10.739702986249622"><ele>589.0</ele><time>2026-05-02T12:02:05.999Z</time></trkpt><trkpt lat="44.340554973552486" lon="10.739695380002475"><ele>589.0</ele><time>2026-05-02T12:02:07.999Z</time></trkpt><trkpt lat="44.340453271418184" lon="10.739695278312142"><ele>586.8333333333334</ele><time>2026-05-02T12:02:09.999Z</time></trkpt><trkpt lat="44.34038173030342" lon="10.73971108508628"><ele>584.6666666666667</ele><time>2026-05-02T12:02:10.999Z</time></trkpt><trkpt lat="44.34031761365479" lon="10.739658766493754"><ele>582.5</ele><time>2026-05-02T12:02:12.999Z</time></trkpt><trkpt lat="44.34022241467707" lon="10.739637354937946"><ele>580.3333333333334</ele><time>2026-05-02T12:02:14.999Z</time></trkpt><trkpt lat="44.340133549624966" lon="10.739614129443918"><ele>578.1666666666666</ele><time>2026-05-02T12:02:16.999Z</time></trkpt><trkpt lat="44.34003267663573" lon="10.739587688378279"><ele>576.0</ele><time>2026-05-02T12:02:18.999Z</time></trkpt><trkpt lat="44.33996461983382" lon="10.739554333210146"><ele>576.0</ele><time>2026-05-02T12:02:20.999Z</time></trkpt><trkpt lat="44.33988476221893" lon="10.739504315764778"><ele>576.0</ele><time>2026-05-02T12:02:22.999Z</time></trkpt><trkpt lat="44.33982714968852" lon="10.739444226717143"><ele>576.0</ele><time>2026-05-02T12:02:24.999Z</time></trkpt><trkpt lat="44.33972576820828" lon="10.73938122774862"><ele>576.0</ele><time>2026-05-02T12:02:26.999Z</time></trkpt><trkpt lat="44.33964117677331" lon="10.739355590996903"><ele>576.0</ele><time>2026-05-02T12:02:28.999Z</time></trkpt><trkpt lat="44.33953718193623" lon="10.739257423197117"><ele>577.6</ele><time>2026-05-02T12:02:30.999Z</time></trkpt><trkpt lat="44.33941494599001" lon="10.739251415626992"><ele>579.2</ele><time>2026-05-02T12:02:32.999Z</time></trkpt><trkpt lat="44.33931787767955" lon="10.739292225753369"><ele>580.8</ele><time>2026-05-02T12:02:35Z</time></trkpt><trkpt lat="44.33925224486512" lon="10.739305459978798"><ele>582.4</ele><time>2026-05-02T12:02:36Z</time></trkpt><trkpt lat="44.339169223979866" lon="10.739304198097962"><ele>584.0</ele><time>2026-05-02T12:02:37Z</time></trkpt><trkpt lat="44.33907064355805" lon="10.739305785047627"><ele>584.0</ele><time>2026-05-02T12:02:39Z</time></trkpt><trkpt lat="44.33895675674583" lon="10.739310706549734"><ele>584.0</ele><time>2026-05-02T12:02:41Z</time></trkpt><trkpt lat="44.338891147634094" lon="10.73930480022834"><ele>584.0</ele><time>2026-05-02T12:02:42Z</time></trkpt><trkpt lat="44.33882692261833" lon="10.73930185533058"><ele>584.0</ele><time>2026-05-02T12:02:43Z</time></trkpt><trkpt lat="44.33871515907341" lon="10.739274182744364"><ele>584.0</ele><time>2026-05-02T12:02:45Z</time></trkpt><trkpt lat="44.33862276097439" lon="10.739231002730621"><ele>582.5</ele><time>2026-05-02T12:02:47Z</time></trkpt><trkpt lat="44.33851848548583" lon="10.739242493601992"><ele>581.0</ele><time>2026-05-02T12:02:49Z</time></trkpt><trkpt lat="44.33845018193441" lon="10.739251184100185"><ele>579.5</ele><time>2026-05-02T12:02:50Z</time></trkpt><trkpt lat="44.33838229648835" lon="10.739254812803704"><ele>578.0</ele><time>2026-05-02T12:02:51Z</time></trkpt><trkpt lat="44.33831869810613" lon="10.739266291407473"><ele>576.5</ele><time>2026-05-02T12:02:52Z</time></trkpt><trkpt lat="44.338186147830044" lon="10.739283058880138"><ele>575.0</ele><time>2026-05-02T12:02:54Z</time></trkpt><trkpt lat="44.33811427777702" lon="10.739297100075824"><ele>571.6666666666666</ele><time>2026-05-02T12:02:55Z</time></trkpt><trkpt lat="44.338051174709875" lon="10.739304905991524"><ele>568.3333333333333</ele><time>2026-05-02T12:02:56Z</time></trkpt><trkpt lat="44.33798406867132" lon="10.739302766423119"><ele>565.0</ele><time>2026-05-02T12:02:57Z</time></trkpt><trkpt lat="44.33791657000899" lon="10.7392896097327"><ele>561.6666666666666</ele><time>2026-05-02T12:02:58Z</time></trkpt><trkpt lat="44.337824113953005" lon="10.739239640114585"><ele>558.3333333333334</ele><time>2026-05-02T12:03:00Z</time></trkpt><trkpt lat="44.33774648001786" lon="10.739195980143466"><ele>555.0</ele><time>2026-05-02T12:03:03Z</time></trkpt><trkpt lat="44.337761627025266" lon="10.739354062343278"><ele>552.8</ele><time>2026-05-02T12:03:06Z</time></trkpt><trkpt lat="44.33781910712493" lon="10.739462355950243"><ele>550.6</ele><time>2026-05-02T12:03:07Z</time></trkpt><trkpt lat="44.33786028342753" lon="10.7395759583088"><ele>548.4</ele><time>2026-05-02T12:03:09Z</time></trkpt><trkpt lat="44.33780209071004" lon="10.739626073703182"><ele>546.2</ele><time>2026-05-02T12:03:13Z</time></trkpt><trkpt lat="44.33768331988264" lon="10.739520941287054"><ele>544.0</ele><time>2026-05-02T12:03:15Z</time></trkpt><trkpt lat="44.337603236310514" lon="10.739412139730899"><ele>544.6</ele><time>2026-05-02T12:03:16Z</time></trkpt><trkpt lat="44.33750472784976" lon="10.739291803729348"><ele>545.2</ele><time>2026-05-02T12:03:17Z</time></trkpt><trkpt lat="44.337418517085844" lon="10.739187579506133"><ele>545.8000000000001</ele><time>2026-05-02T12:03:18Z</time></trkpt><trkpt lat="44.337336782001636" lon="10.739097428019646"><ele>546.4</ele><time>2026-05-02T12:03:18.999Z</time></trkpt><trkpt lat="44.33726669090405" lon="10.739032633639054"><ele>547.0</ele><time>2026-05-02T12:03:19.999Z</time></trkpt><trkpt lat="44.33719681267888" lon="10.739010730013142"><ele>547.0</ele><time>2026-05-02T12:03:20.999Z</time></trkpt><trkpt lat="44.33711792755958" lon="10.739057194052839"><ele>547.0</ele><time>2026-05-02T12:03:21.999Z</time></trkpt><trkpt lat="44.337046407337404" lon="10.739155666300789"><ele>547.0</ele><time>2026-05-02T12:03:22.999Z</time></trkpt><trkpt lat="44.33697596298791" lon="10.739288877872681"><ele>547.0</ele><time>2026-05-02T12:03:23.999Z</time></trkpt><trkpt lat="44.33687199262935" lon="10.739422471534237"><ele>547.0</ele><time>2026-05-02T12:03:24.999Z</time></trkpt><trkpt lat="44.33678809244765" lon="10.739584051826471"><ele>547.6</ele><time>2026-05-02T12:03:25.999Z</time></trkpt><trkpt lat="44.33669560902351" lon="10.739688735520218"><ele>548.2</ele><time>2026-05-02T12:03:26.999Z</time></trkpt><trkpt lat="44.3366228179896" lon="10.739819591019863"><ele>548.8</ele><time>2026-05-02T12:03:27.999Z</time></trkpt><trkpt lat="44.33659033926125" lon="10.739962754446289"><ele>549.4</ele><time>2026-05-02T12:03:28.999Z</time></trkpt><trkpt lat="44.33657621409629" lon="10.74010493608192"><ele>550.0</ele><time>2026-05-02T12:03:29.999Z</time></trkpt><trkpt lat="44.336593957558456" lon="10.740251936832179"><ele>552.5</ele><time>2026-05-02T12:03:30.999Z</time></trkpt><trkpt lat="44.336635630994394" lon="10.740405903763685"><ele>555.0</ele><time>2026-05-02T12:03:31.999Z</time></trkpt><trkpt lat="44.33668758987599" lon="10.740573758510683"><ele>557.5</ele><time>2026-05-02T12:03:32.999Z</time></trkpt><trkpt lat="44.3367364744459" lon="10.740711267710816"><ele>560.0</ele><time>2026-05-02T12:03:33.999Z</time></trkpt><trkpt lat="44.33679103286967" lon="10.74081783516864"><ele>560.0</ele><time>2026-05-02T12:03:34.999Z</time></trkpt><trkpt lat="44.336852957071784" lon="10.74090416415946"><ele>560.0</ele><time>2026-05-02T12:03:35.999Z</time></trkpt><trkpt lat="44.336895912157665" lon="10.740997396840998"><ele>560.0</ele><time>2026-05-02T12:03:36.999Z</time></trkpt><trkpt lat="44.33692884919739" lon="10.741079823162124"><ele>560.0</ele><time>2026-05-02T12:03:38.999Z</time></trkpt><trkpt lat="44.33685446673837" lon="10.741060162089333"><ele>560.0</ele><time>2026-05-02T12:03:40.999Z</time></trkpt><trkpt lat="44.336735660693286" lon="10.741021208218108"><ele>560.0</ele><time>2026-05-02T12:03:42.999Z</time></trkpt><trkpt lat="44.33667223868119" lon="10.740990347841976"><ele>560.0</ele><time>2026-05-02T12:03:43.999Z</time></trkpt><trkpt lat="44.33659075962377" lon="10.740944986490506"><ele>560.0</ele><time>2026-05-02T12:03:44.999Z</time></trkpt><trkpt lat="44.336488479660346" lon="10.740882245341496"><ele>560.0</ele><time>2026-05-02T12:03:45.999Z</time></trkpt><trkpt lat="44.336399384395925" lon="10.740807922280368"><ele>560.0</ele><time>2026-05-02T12:03:46.999Z</time></trkpt><trkpt lat="44.3363386863675" lon="10.740750306041141"><ele>560.0</ele><time>2026-05-02T12:03:47.999Z</time></trkpt><trkpt lat="44.33627778165358" lon="10.740687275788675"><ele>561.6</ele><time>2026-05-02T12:03:49.999Z</time></trkpt><trkpt lat="44.33618989188073" lon="10.740840383709948"><ele>563.2</ele><time>2026-05-02T12:03:51.999Z</time></trkpt><trkpt lat="44.33617269495697" lon="10.740936470308336"><ele>564.8</ele><time>2026-05-02T12:03:52.999Z</time></trkpt><trkpt lat="44.33615420454299" lon="10.741062201076478"><ele>566.4</ele><time>2026-05-02T12:03:53.999Z</time></trkpt><trkpt lat="44.336139061491174" lon="10.741248461578794"><ele>568.0</ele><time>2026-05-02T12:03:55.999Z</time></trkpt><trkpt lat="44.336136000534076" lon="10.741413671646187"><ele>569.4</ele><time>2026-05-02T12:03:56.999Z</time></trkpt><trkpt lat="44.336136156421205" lon="10.741571591617188"><ele>570.8</ele><time>2026-05-02T12:03:57.999Z</time></trkpt><trkpt lat="44.336104445668575" lon="10.741710658568659"><ele>572.2</ele><time>2026-05-02T12:03:58.999Z</time></trkpt><trkpt lat="44.33606769325428" lon="10.741860759909171"><ele>573.6</ele><time>2026-05-02T12:03:59.999Z</time></trkpt><trkpt lat="44.336048228548876" lon="10.742016313880628"><ele>575.0</ele><time>2026-05-02T12:04:02.999Z</time></trkpt><trkpt lat="44.33604077904656" lon="10.742113024647853"><ele>576.4285714285714</ele><time>2026-05-02T12:04:03.999Z</time></trkpt><trkpt lat="44.33603225379234" lon="10.742233530371914"><ele>577.8571428571428</ele><time>2026-05-02T12:04:04.999Z</time></trkpt><trkpt lat="44.336025948783885" lon="10.742322652577341"><ele>579.2857142857142</ele><time>2026-05-02T12:04:05.999Z</time></trkpt><trkpt lat="44.33603138667472" lon="10.742432976573216"><ele>580.7142857142857</ele><time>2026-05-02T12:04:06.999Z</time></trkpt><trkpt lat="44.33600951825521" lon="10.742521341046672"><ele>582.1428571428571</ele><time>2026-05-02T12:04:07.999Z</time></trkpt><trkpt lat="44.336015934662285" lon="10.742623733438045"><ele>583.5714285714286</ele><time>2026-05-02T12:04:08.999Z</time></trkpt><trkpt lat="44.33598918382327" lon="10.7427229171861"><ele>585.0</ele><time>2026-05-02T12:04:09.999Z</time></trkpt><trkpt lat="44.33597995096565" lon="10.742827110187623"><ele>587.2</ele><time>2026-05-02T12:04:10.999Z</time></trkpt><trkpt lat="44.335972026334126" lon="10.742927407590718"><ele>589.4</ele><time>2026-05-02T12:04:11.999Z</time></trkpt><trkpt lat="44.335972262312" lon="10.743116008284842"><ele>591.6</ele><time>2026-05-02T12:04:13.999Z</time></trkpt><trkpt lat="44.33603048879945" lon="10.743233008610156"><ele>593.8</ele><time>2026-05-02T12:04:15.999Z</time></trkpt><trkpt lat="44.336082857429524" lon="10.743282524381884"><ele>596.0</ele><time>2026-05-02T12:04:16.999Z</time></trkpt><trkpt lat="44.336172506389914" lon="10.743325611158994"><ele>596.0</ele><time>2026-05-02T12:04:17.999Z</time></trkpt><trkpt lat="44.33627792165672" lon="10.74337980603358"><ele>596.0</ele><time>2026-05-02T12:04:19.999Z</time></trkpt><trkpt lat="44.33634293478995" lon="10.743404907567307"><ele>596.0</ele><time>2026-05-02T12:04:20.999Z</time></trkpt><trkpt lat="44.336454726323495" lon="10.74343324899976"><ele>596.0</ele><time>2026-05-02T12:04:21.999Z</time></trkpt><trkpt lat="44.336541028173194" lon="10.743448574729706"><ele>596.0</ele><time>2026-05-02T12:04:22.999Z</time></trkpt><trkpt lat="44.33661798443674" lon="10.743437602974396"><ele>596.6666666666666</ele><time>2026-05-02T12:04:23.999Z</time></trkpt><trkpt lat="44.336714594409024" lon="10.74342309356306"><ele>597.3333333333333</ele><time>2026-05-02T12:04:25.999Z</time></trkpt><trkpt lat="44.33681062577049" lon="10.743483990899945"><ele>598.0</ele><time>2026-05-02T12:04:27.999Z</time></trkpt><trkpt lat="44.336863317636585" lon="10.743532824316"><ele>598.6666666666666</ele><time>2026-05-02T12:04:28.999Z</time></trkpt><trkpt lat="44.33690139889106" lon="10.743605543637289"><ele>599.3333333333334</ele><time>2026-05-02T12:04:29.999Z</time></trkpt><trkpt lat="44.336950855914004" lon="10.743672980042305"><ele>600.0</ele><time>2026-05-02T12:04:30.999Z</time></trkpt><trkpt lat="44.33699087153425" lon="10.743744333111556"><ele>602.6666666666666</ele><time>2026-05-02T12:04:31.999Z</time></trkpt><trkpt lat="44.33704860301547" lon="10.743880590676968"><ele>605.3333333333334</ele><time>2026-05-02T12:04:33.999Z</time></trkpt><trkpt lat="44.33707925712961" lon="10.743964585586266"><ele>608.0</ele><time>2026-05-02T12:04:34.999Z</time></trkpt><trkpt lat="44.33710940352417" lon="10.744054852536511"><ele>610.6666666666667</ele><time>2026-05-02T12:04:35.999Z</time></trkpt><trkpt lat="44.33713710082016" lon="10.744139129791252"><ele>613.3333333333334</ele><time>2026-05-02T12:04:36.999Z</time></trkpt><trkpt lat="44.337177329157925" lon="10.744208086501807"><ele>616.0</ele><time>2026-05-02T12:04:37.999Z</time></trkpt><trkpt lat="44.337189372183204" lon="10.744303964758968"><ele>618.6</ele><time>2026-05-02T12:04:39.999Z</time></trkpt><trkpt lat="44.33706609577976" lon="10.744390588461846"><ele>621.2</ele><time>2026-05-02T12:04:41Z</time></trkpt><trkpt lat="44.33699616934569" lon="10.74442703534766"><ele>623.8</ele><time>2026-05-02T12:04:42Z</time></trkpt><trkpt lat="44.33693804212831" lon="10.744486094948744"><ele>626.4</ele><time>2026-05-02T12:04:43Z</time></trkpt><trkpt lat="44.33691685210138" lon="10.744570380699658"><ele>629.0</ele><time>2026-05-02T12:04:44Z</time></trkpt><trkpt lat="44.33695281534868" lon="10.74477811736598"><ele>629.0</ele><time>2026-05-02T12:04:46Z</time></trkpt><trkpt lat="44.33695147356095" lon="10.74491538119779"><ele>629.0</ele><time>2026-05-02T12:04:47Z</time></trkpt><trkpt lat="44.33693628454089" lon="10.74502718884788"><ele>629.0</ele><time>2026-05-02T12:04:48Z</time></trkpt><trkpt lat="44.33692798830256" lon="10.745119988805714"><ele>629.0</ele><time>2026-05-02T12:04:49Z</time></trkpt><trkpt lat="44.33691580847378" lon="10.745230700846152"><ele>629.0</ele><time>2026-05-02T12:04:50Z</time></trkpt><trkpt lat="44.33689336404189" lon="10.745350119192372"><ele>629.0</ele><time>2026-05-02T12:04:51Z</time></trkpt><trkpt lat="44.336885405946354" lon="10.745451915264626"><ele>631.0</ele><time>2026-05-02T12:04:52Z</time></trkpt><trkpt lat="44.336903213726664" lon="10.745629981607657"><ele>633.0</ele><time>2026-05-02T12:04:54Z</time></trkpt><trkpt lat="44.336929273843666" lon="10.74572933106957"><ele>635.0</ele><time>2026-05-02T12:04:55Z</time></trkpt><trkpt lat="44.336961037400066" lon="10.745811583653209"><ele>637.0</ele><time>2026-05-02T12:04:56Z</time></trkpt><trkpt lat="44.33699453615799" lon="10.745903390107669"><ele>639.0</ele><time>2026-05-02T12:04:57Z</time></trkpt><trkpt lat="44.337021006285404" lon="10.745991558965443"><ele>641.0</ele><time>2026-05-02T12:04:58Z</time></trkpt><trkpt lat="44.33706953175387" lon="10.74614742476298"><ele>642.0</ele><time>2026-05-02T12:05:00Z</time></trkpt><trkpt lat="44.3370933966943" lon="10.746252032366144"><ele>643.0</ele><time>2026-05-02T12:05:01Z</time></trkpt><trkpt lat="44.3371153889472" lon="10.74633868043586"><ele>644.0</ele><time>2026-05-02T12:05:02Z</time></trkpt><trkpt lat="44.33714706666134" lon="10.746450374599954"><ele>645.0</ele><time>2026-05-02T12:05:03Z</time></trkpt><trkpt lat="44.337169427900484" lon="10.74657428973507"><ele>646.0</ele><time>2026-05-02T12:05:05Z</time></trkpt><trkpt lat="44.33719025379487" lon="10.74666941151909"><ele>647.0</ele><time>2026-05-02T12:05:06Z</time></trkpt><trkpt lat="44.337221803378974" lon="10.746745666870549"><ele>647.0</ele><time>2026-05-02T12:05:07Z</time></trkpt><trkpt lat="44.33733317808723" lon="10.746874605651204"><ele>647.0</ele><time>2026-05-02T12:05:09Z</time></trkpt><trkpt lat="44.337409546552024" lon="10.746984939378446"><ele>647.0</ele><time>2026-05-02T12:05:11Z</time></trkpt><trkpt lat="44.337434309093204" lon="10.747120792536645"><ele>647.0</ele><time>2026-05-02T12:05:13Z</time></trkpt><trkpt lat="44.337392432749255" lon="10.747260139687782"><ele>650.0</ele><time>2026-05-02T12:05:15Z</time></trkpt><trkpt lat="44.337364655698416" lon="10.74737440608313"><ele>653.0</ele><time>2026-05-02T12:05:16Z</time></trkpt><trkpt lat="44.33735875195596" lon="10.747492018118548"><ele>656.0</ele><time>2026-05-02T12:05:17Z</time></trkpt><trkpt lat="44.33736430119678" lon="10.747591648668633"><ele>659.0</ele><time>2026-05-02T12:05:18Z</time></trkpt><trkpt lat="44.3373760808093" lon="10.747681674107053"><ele>662.0</ele><time>2026-05-02T12:05:19Z</time></trkpt><trkpt lat="44.337410963868805" lon="10.747766331307618"><ele>665.0</ele><time>2026-05-02T12:05:20Z</time></trkpt><trkpt lat="44.33748793013467" lon="10.747874783745555"><ele>667.3333333333333</ele><time>2026-05-02T12:05:22Z</time></trkpt><trkpt lat="44.33755249082741" lon="10.747918005156647"><ele>669.6666666666666</ele><time>2026-05-02T12:05:23Z</time></trkpt><trkpt lat="44.33763586580191" lon="10.748022716397587"><ele>672.0</ele><time>2026-05-02T12:05:25Z</time></trkpt><trkpt lat="44.33766435633091" lon="10.748104846930037"><ele>674.3333333333334</ele><time>2026-05-02T12:05:26Z</time></trkpt><trkpt lat="44.33764934008433" lon="10.74825184055872"><ele>676.6666666666667</ele><time>2026-05-02T12:05:28Z</time></trkpt><trkpt lat="44.33761806551622" lon="10.748354718984096"><ele>679.0</ele><time>2026-05-02T12:05:29Z</time></trkpt><trkpt lat="44.33755211610546" lon="10.74851476715129"><ele>678.8000000000001</ele><time>2026-05-02T12:05:30Z</time></trkpt><trkpt lat="44.337516804708386" lon="10.74863842988298"><ele>678.6</ele><time>2026-05-02T12:05:31Z</time></trkpt><trkpt lat="44.337483561027554" lon="10.74872854780639"><ele>678.4</ele><time>2026-05-02T12:05:32Z</time></trkpt><trkpt lat="44.33742077413929" lon="10.748857877210975"><ele>678.2</ele><time>2026-05-02T12:05:34Z</time></trkpt><trkpt lat="44.33735669068827" lon="10.748956195481043"><ele>678.0</ele><time>2026-05-02T12:05:35Z</time></trkpt><trkpt lat="44.33729932599723" lon="10.749068006861481"><ele>678.0</ele><time>2026-05-02T12:05:36Z</time></trkpt><trkpt lat="44.33726241300909" lon="10.749244172242589"><ele>678.0</ele><time>2026-05-02T12:05:37.999Z</time></trkpt><trkpt lat="44.33725323629392" lon="10.749339451060747"><ele>678.0</ele><time>2026-05-02T12:05:38.999Z</time></trkpt><trkpt lat="44.3372266399367" lon="10.749492657706885"><ele>678.0</ele><time>2026-05-02T12:05:40.999Z</time></trkpt><trkpt lat="44.33717334597732" lon="10.749555653299868"><ele>678.0</ele><time>2026-05-02T12:05:42.999Z</time></trkpt><trkpt lat="44.33710442919619" lon="10.74957871337342"><ele>680.0</ele><time>2026-05-02T12:05:44.999Z</time></trkpt><trkpt lat="44.337013357466326" lon="10.749591573502315"><ele>682.0</ele><time>2026-05-02T12:05:47.999Z</time></trkpt><trkpt lat="44.33692180575915" lon="10.749585878804863"><ele>684.0</ele><time>2026-05-02T12:05:49.999Z</time></trkpt><trkpt lat="44.336825773876754" lon="10.749703280899787"><ele>686.0</ele><time>2026-05-02T12:05:51.999Z</time></trkpt><trkpt lat="44.33674621764216" lon="10.749728343832023"><ele>688.0</ele><time>2026-05-02T12:05:53.999Z</time></trkpt><trkpt lat="44.3366328605935" lon="10.749668703669666"><ele>688.0</ele><time>2026-05-02T12:05:55.999Z</time></trkpt><trkpt lat="44.33653677712028" lon="10.749680124420559"><ele>688.0</ele><time>2026-05-02T12:05:57.999Z</time></trkpt><trkpt lat="44.33647443136861" lon="10.74969373588708"><ele>688.0</ele><time>2026-05-02T12:05:58.999Z</time></trkpt><trkpt lat="44.33642612345778" lon="10.749771734440138"><ele>688.0</ele><time>2026-05-02T12:06:00.999Z</time></trkpt><trkpt lat="44.33641817053371" lon="10.74987706254474"><ele>688.0</ele><time>2026-05-02T12:06:02.999Z</time></trkpt><trkpt lat="44.33636237259045" lon="10.749955290771078"><ele>688.0</ele><time>2026-05-02T12:06:05.999Z</time></trkpt><trkpt lat="44.33632263037566" lon="10.750062942243963"><ele>691.1666666666667</ele><time>2026-05-02T12:06:09.999Z</time></trkpt><trkpt lat="44.336297297439295" lon="10.750161216198803"><ele>694.3333333333334</ele><time>2026-05-02T12:06:11.999Z</time></trkpt><trkpt lat="44.336253585713415" lon="10.750265248526127"><ele>697.5</ele><time>2026-05-02T12:06:13.999Z</time></trkpt><trkpt lat="44.33620277820412" lon="10.75038531717717"><ele>700.6666666666666</ele><time>2026-05-02T12:06:15.999Z</time></trkpt><trkpt lat="44.336107527680404" lon="10.750456370488799"><ele>703.8333333333333</ele><time>2026-05-02T12:06:18.999Z</time></trkpt><trkpt lat="44.336058409924725" lon="10.7505417971144"><ele>707.0</ele><time>2026-05-02T12:06:20.999Z</time></trkpt><trkpt lat="44.33596246539644" lon="10.750660067905265"><ele>707.0</ele><time>2026-05-02T12:06:21.999Z</time></trkpt><trkpt lat="44.335908577965675" lon="10.750753890154517"><ele>707.0</ele><time>2026-05-02T12:06:22.999Z</time></trkpt><trkpt lat="44.3358699155631" lon="10.750839044379157"><ele>707.0</ele><time>2026-05-02T12:06:23.999Z</time></trkpt><trkpt lat="44.33583667769013" lon="10.750922367875358"><ele>707.0</ele><time>2026-05-02T12:06:24.999Z</time></trkpt><trkpt lat="44.33580395808917" lon="10.751006873960893"><ele>707.0</ele><time>2026-05-02T12:06:25.999Z</time></trkpt><trkpt lat="44.33577884718331" lon="10.751145655327463"><ele>707.0</ele><time>2026-05-02T12:06:27.999Z</time></trkpt><trkpt lat="44.33578261866884" lon="10.751322206910134"><ele>707.0</ele><time>2026-05-02T12:06:29.999Z</time></trkpt><trkpt lat="44.33576443579102" lon="10.751479068880785"><ele>707.0</ele><time>2026-05-02T12:06:31.999Z</time></trkpt><trkpt lat="44.33572323462675" lon="10.751584925281655"><ele>707.0</ele><time>2026-05-02T12:06:32.999Z</time></trkpt><trkpt lat="44.33568799415963" lon="10.751686647999959"><ele>707.0</ele><time>2026-05-02T12:06:33.999Z</time></trkpt><trkpt lat="44.33563877226155" lon="10.751813617235332"><ele>707.0</ele><time>2026-05-02T12:06:35.999Z</time></trkpt><trkpt lat="44.33554002386704" lon="10.751936034928692"><ele>707.0</ele><time>2026-05-02T12:06:37.999Z</time></trkpt><trkpt lat="44.335432707977304" lon="10.752024439912534"><ele>707.0</ele><time>2026-05-02T12:06:39.999Z</time></trkpt><trkpt lat="44.335364422410265" lon="10.752035667627021"><ele>707.0</ele><time>2026-05-02T12:06:40.999Z</time></trkpt><trkpt lat="44.33527708241616" lon="10.75200514224191"><ele>707.0</ele><time>2026-05-02T12:06:42.999Z</time></trkpt><trkpt lat="44.33520764141599" lon="10.751986619876968"><ele>707.0</ele><time>2026-05-02T12:06:43.999Z</time></trkpt><trkpt lat="44.33508730325959" lon="10.751960969778327"><ele>707.0</ele><time>2026-05-02T12:06:46Z</time></trkpt><trkpt lat="44.33497005251435" lon="10.751949414984411"><ele>707.0</ele><time>2026-05-02T12:06:48Z</time></trkpt><trkpt lat="44.33488653988757" lon="10.752029637032543"><ele>707.0</ele><time>2026-05-02T12:06:50Z</time></trkpt><trkpt lat="44.334831059203296" lon="10.752086029351211"><ele>707.0</ele><time>2026-05-02T12:06:51Z</time></trkpt><trkpt lat="44.334746601800504" lon="10.752123122495261"><ele>707.0</ele><time>2026-05-02T12:06:53Z</time></trkpt><trkpt lat="44.334668443311784" lon="10.752166544304298"><ele>709.2</ele><time>2026-05-02T12:06:55Z</time></trkpt><trkpt lat="44.334599686237034" lon="10.752243102136484"><ele>711.4000000000001</ele><time>2026-05-02T12:06:57Z</time></trkpt><trkpt lat="44.33449222334093" lon="10.752306722593856"><ele>713.5999999999999</ele><time>2026-05-02T12:06:59Z</time></trkpt><trkpt lat="44.334435007367766" lon="10.752349588657909"><ele>715.8</ele><time>2026-05-02T12:07:01Z</time></trkpt><trkpt lat="44.3343570486465" lon="10.752455557286137"><ele>718.0</ele><time>2026-05-02T12:07:03Z</time></trkpt><trkpt lat="44.33430289354633" lon="10.752551431875688"><ele>718.0</ele><time>2026-05-02T12:07:05Z</time></trkpt><trkpt lat="44.334254804601535" lon="10.752614147139987"><ele>718.0</ele><time>2026-05-02T12:07:06Z</time></trkpt><trkpt lat="44.33419730298691" lon="10.752664159850715"><ele>718.0</ele><time>2026-05-02T12:07:07Z</time></trkpt><trkpt lat="44.33412866687896" lon="10.752699482867575"><ele>718.0</ele><time>2026-05-02T12:07:09Z</time></trkpt><trkpt lat="44.33403469143533" lon="10.752689754794373"><ele>718.0</ele><time>2026-05-02T12:07:11Z</time></trkpt><trkpt lat="44.33396480617598" lon="10.752675951327086"><ele>718.0</ele><time>2026-05-02T12:07:13Z</time></trkpt><trkpt lat="44.33387700629357" lon="10.752694398748009"><ele>718.5999999999999</ele><time>2026-05-02T12:07:15Z</time></trkpt><trkpt lat="44.333809280404346" lon="10.752653425714515"><ele>719.1999999999999</ele><time>2026-05-02T12:07:17Z</time></trkpt><trkpt lat="44.33374550959176" lon="10.752599414108213"><ele>719.8</ele><time>2026-05-02T12:07:18Z</time></trkpt><trkpt lat="44.33362588595564" lon="10.752567274375986"><ele>720.4</ele><time>2026-05-02T12:07:20Z</time></trkpt><trkpt lat="44.333530562613284" lon="10.752555294184015"><ele>721.0</ele><time>2026-05-02T12:07:22Z</time></trkpt><trkpt lat="44.333442970737885" lon="10.752570322333836"><ele>721.0</ele><time>2026-05-02T12:07:25Z</time></trkpt><trkpt lat="44.33335658154852" lon="10.752557023780849"><ele>721.0</ele><time>2026-05-02T12:07:26Z</time></trkpt><trkpt lat="44.33326087998133" lon="10.752564901030706"><ele>721.0</ele><time>2026-05-02T12:07:29Z</time></trkpt><trkpt lat="44.33320733741139" lon="10.752637758238771"><ele>721.0</ele><time>2026-05-02T12:07:32Z</time></trkpt><trkpt lat="44.33316139512314" lon="10.752720070270856"><ele>721.0</ele><time>2026-05-02T12:07:34Z</time></trkpt><trkpt lat="44.333128002072044" lon="10.75281581952229"><ele>721.0</ele><time>2026-05-02T12:07:37Z</time></trkpt><trkpt lat="44.33311179822594" lon="10.752907700939767"><ele>723.1666666666667</ele><time>2026-05-02T12:07:39Z</time></trkpt><trkpt lat="44.33303160204993" lon="10.752973230333687"><ele>725.3333333333334</ele><time>2026-05-02T12:07:41Z</time></trkpt><trkpt lat="44.33295122838433" lon="10.753026592605092"><ele>727.5</ele><time>2026-05-02T12:07:43Z</time></trkpt><trkpt lat="44.332958028459196" lon="10.7531167409511"><ele>729.6666666666666</ele><time>2026-05-02T12:07:45Z</time></trkpt><trkpt lat="44.33297431465323" lon="10.753244646665292"><ele>731.8333333333333</ele><time>2026-05-02T12:07:47Z</time></trkpt><trkpt lat="44.3330005654257" lon="10.75336830198401"><ele>734.0</ele><time>2026-05-02T12:07:49Z</time></trkpt><trkpt lat="44.333032481474675" lon="10.75345685546839"><ele>732.8000000000001</ele><time>2026-05-02T12:07:52Z</time></trkpt><trkpt lat="44.33303673919515" lon="10.753609242683774"><ele>731.6</ele><time>2026-05-02T12:07:54.999Z</time></trkpt><trkpt lat="44.33298587011037" lon="10.753679809543039"><ele>730.4</ele><time>2026-05-02T12:07:56.999Z</time></trkpt><trkpt lat="44.33300048662891" lon="10.753860105277601"><ele>729.2</ele><time>2026-05-02T12:07:58.999Z</time></trkpt><trkpt lat="44.333004592634225" lon="10.753956821431872"><ele>728.0</ele><time>2026-05-02T12:07:59.999Z</time></trkpt><trkpt lat="44.33298983284983" lon="10.754077232348926"><ele>728.0</ele><time>2026-05-02T12:08:02.999Z</time></trkpt><trkpt lat="44.3329491591987" lon="10.754148636306306"><ele>728.0</ele><time>2026-05-02T12:08:04.999Z</time></trkpt><trkpt lat="44.33294049151719" lon="10.754238365862092"><ele>728.0</ele><time>2026-05-02T12:08:05.999Z</time></trkpt><trkpt lat="44.33289651279814" lon="10.754302094230228"><ele>728.0</ele><time>2026-05-02T12:08:07.999Z</time></trkpt><trkpt lat="44.332822115737414" lon="10.754316104820127"><ele>728.0</ele><time>2026-05-02T12:08:09.999Z</time></trkpt><trkpt lat="44.33275805798071" lon="10.754401635867044"><ele>728.0</ele><time>2026-05-02T12:08:11.999Z</time></trkpt><trkpt lat="44.33274567474485" lon="10.754492559449236"><ele>728.0</ele><time>2026-05-02T12:08:13.999Z</time></trkpt><trkpt lat="44.33270282435573" lon="10.754603176971179"><ele>728.5</ele><time>2026-05-02T12:08:15.999Z</time></trkpt><trkpt lat="44.33267600472175" lon="10.754722088479092"><ele>729.0</ele><time>2026-05-02T12:08:17.999Z</time></trkpt><trkpt lat="44.332679448236085" lon="10.754817106681676"><ele>729.5</ele><time>2026-05-02T12:08:19.999Z</time></trkpt><trkpt lat="44.33268806218873" lon="10.754934639805064"><ele>730.0</ele><time>2026-05-02T12:08:21.999Z</time></trkpt><trkpt lat="44.33268333743175" lon="10.755035138767397"><ele>730.5</ele><time>2026-05-02T12:08:23.999Z</time></trkpt><trkpt lat="44.332633896905186" lon="10.755125143659425"><ele>731.0</ele><time>2026-05-02T12:09:00Z</time></trkpt><trkpt lat="44.332629589903476" lon="10.755235908305592"><ele>732.5</ele><time>2026-05-02T12:09:02Z</time></trkpt><trkpt lat="44.33264898186581" lon="10.755337585475374"><ele>734.0</ele><time>2026-05-02T12:09:04Z</time></trkpt><trkpt lat="44.332664052345386" lon="10.755425348233453"><ele>735.5</ele><time>2026-05-02T12:09:05Z</time></trkpt><trkpt lat="44.3327236634951" lon="10.755506530319044"><ele>737.0</ele><time>2026-05-02T12:09:08Z</time></trkpt><trkpt lat="44.33280828576" lon="10.755467842404379"><ele>738.5</ele><time>2026-05-02T12:09:10Z</time></trkpt><trkpt lat="44.33286608867516" lon="10.75559754017849"><ele>740.0</ele><time>2026-05-02T12:09:13Z</time></trkpt><trkpt lat="44.332883102078604" lon="10.755745648804124"><ele>740.0</ele><time>2026-05-02T12:09:15Z</time></trkpt><trkpt lat="44.332907367726385" lon="10.75588625761399"><ele>740.0</ele><time>2026-05-02T12:09:17Z</time></trkpt><trkpt lat="44.33291975528964" lon="10.755998152538558"><ele>740.0</ele><time>2026-05-02T12:09:19Z</time></trkpt><trkpt lat="44.33297403658446" lon="10.756099864143954"><ele>740.0</ele><time>2026-05-02T12:09:21Z</time></trkpt><trkpt lat="44.33302008541941" lon="10.756169322725212"><ele>740.0</ele><time>2026-05-02T12:09:23Z</time></trkpt><trkpt lat="44.333012290751036" lon="10.756267392765904"><ele>740.0</ele><time>2026-05-02T12:09:27Z</time></trkpt><trkpt lat="44.33292459093859" lon="10.756310032708095"><ele>741.5</ele><time>2026-05-02T12:09:34Z</time></trkpt><trkpt lat="44.33288184313524" lon="10.756391958495"><ele>743.0</ele><time>2026-05-02T12:09:45.999Z</time></trkpt><trkpt lat="44.33293220056397" lon="10.756506650432984"><ele>744.5</ele><time>2026-05-02T12:09:50.999Z</time></trkpt><trkpt lat="44.332973192549545" lon="10.756583385316974"><ele>746.0</ele><time>2026-05-02T12:09:52.999Z</time></trkpt><trkpt lat="44.333066006843104" lon="10.756613055283722"><ele>747.5</ele><time>2026-05-02T12:11:19Z</time></trkpt><trkpt lat="44.33310740054506" lon="10.756693353857921"><ele>749.0</ele><time>2026-05-02T12:12:06.999Z</time></trkpt><trkpt lat="44.33317452615132" lon="10.756699366521094"><ele>753.1666666666666</ele><time>2026-05-02T12:12:08.999Z</time></trkpt><trkpt lat="44.333258678343576" lon="10.756733035130894"><ele>757.3333333333333</ele><time>2026-05-02T12:12:33.999Z</time></trkpt><trkpt lat="44.33332471120247" lon="10.75672976991328"><ele>761.5</ele><time>2026-05-02T12:12:35.999Z</time></trkpt><trkpt lat="44.33338188008397" lon="10.75678654713325"><ele>765.6666666666666</ele><time>2026-05-02T12:12:40.999Z</time></trkpt><trkpt lat="44.33345511551817" lon="10.756871273738208"><ele>769.8333333333334</ele><time>2026-05-02T12:12:42.999Z</time></trkpt><trkpt lat="44.33348698301753" lon="10.756973207162172"><ele>774.0</ele><time>2026-05-02T12:12:44.999Z</time></trkpt><trkpt lat="44.33345743739799" lon="10.757136332938144"><ele>775.5</ele><time>2026-05-02T12:12:47.999Z</time></trkpt><trkpt lat="44.33348235056344" lon="10.757266544184906"><ele>777.0</ele><time>2026-05-02T12:12:49.999Z</time></trkpt><trkpt lat="44.33350677700725" lon="10.75735782672177"><ele>778.5</ele><time>2026-05-02T12:12:51.999Z</time></trkpt><trkpt lat="44.33351218891942" lon="10.75748078762011"><ele>780.0</ele><time>2026-05-02T12:12:53.999Z</time></trkpt><trkpt lat="44.33350085804836" lon="10.757607930116029"><ele>781.5</ele><time>2026-05-02T12:12:55.999Z</time></trkpt><trkpt lat="44.33344485582224" lon="10.757659575393848"><ele>783.0</ele><time>2026-05-02T12:12:57.999Z</time></trkpt><trkpt lat="44.33332711896752" lon="10.757695949474831"><ele>784.1666666666666</ele><time>2026-05-02T12:12:59.999Z</time></trkpt><trkpt lat="44.33330864387928" lon="10.757824718425548"><ele>785.3333333333333</ele><time>2026-05-02T12:13:03Z</time></trkpt><trkpt lat="44.33332994132114" lon="10.757911962263737"><ele>786.5</ele><time>2026-05-02T12:13:05Z</time></trkpt><trkpt lat="44.33339769240246" lon="10.757957715260801"><ele>787.6666666666666</ele><time>2026-05-02T12:13:07Z</time></trkpt><trkpt lat="44.33346113984004" lon="10.757982130988559"><ele>788.8333333333333</ele><time>2026-05-02T12:13:08Z</time></trkpt><trkpt lat="44.33357291238867" lon="10.758075182111956"><ele>790.0</ele><time>2026-05-02T12:13:10Z</time></trkpt><trkpt lat="44.33363744946238" lon="10.758137743749083"><ele>790.0</ele><time>2026-05-02T12:13:11Z</time></trkpt><trkpt lat="44.33374071285239" lon="10.758161842253593"><ele>790.0</ele><time>2026-05-02T12:13:13Z</time></trkpt><trkpt lat="44.3338667183271" lon="10.758170053710764"><ele>790.0</ele><time>2026-05-02T12:13:15Z</time></trkpt><trkpt lat="44.33398094330035" lon="10.758100314401748"><ele>790.0</ele><time>2026-05-02T12:13:17Z</time></trkpt><trkpt lat="44.33406225841399" lon="10.758003931583342"><ele>794.2</ele><time>2026-05-02T12:13:19Z</time></trkpt><trkpt lat="44.33416608906363" lon="10.757950593601484"><ele>798.4</ele><time>2026-05-02T12:13:21Z</time></trkpt><trkpt lat="44.33422220681841" lon="10.757901277355343"><ele>802.5999999999999</ele><time>2026-05-02T12:13:22Z</time></trkpt><trkpt lat="44.33429057631722" lon="10.757820499375633"><ele>806.8</ele><time>2026-05-02T12:13:24Z</time></trkpt><trkpt lat="44.334386191051145" lon="10.757740153620604"><ele>811.0</ele><time>2026-05-02T12:13:26Z</time></trkpt><trkpt lat="44.334490088246426" lon="10.757717064943117"><ele>808.8</ele><time>2026-05-02T12:13:28Z</time></trkpt><trkpt lat="44.33457760538831" lon="10.757640358509688"><ele>806.5999999999999</ele><time>2026-05-02T12:13:30Z</time></trkpt><trkpt lat="44.334617744712155" lon="10.7575470776041"><ele>804.4</ele><time>2026-05-02T12:13:32Z</time></trkpt><trkpt lat="44.33463748983757" lon="10.75738822227352"><ele>802.2</ele><time>2026-05-02T12:13:34Z</time></trkpt><trkpt lat="44.33460553250182" lon="10.757290477884862"><ele>800.0</ele><time>2026-05-02T12:13:35Z</time></trkpt><trkpt lat="44.334550644902016" lon="10.75715491921552"><ele>800.0</ele><time>2026-05-02T12:13:37Z</time></trkpt><trkpt lat="44.334531271364" lon="10.757062482461961"><ele>800.0</ele><time>2026-05-02T12:13:38Z</time></trkpt><trkpt lat="44.334524303779105" lon="10.756899907740042"><ele>800.0</ele><time>2026-05-02T12:13:40Z</time></trkpt><trkpt lat="44.33453412065173" lon="10.756729015483215"><ele>800.0</ele><time>2026-05-02T12:13:42Z</time></trkpt><trkpt lat="44.334539982907245" lon="10.756567302881118"><ele>800.0</ele><time>2026-05-02T12:13:44Z</time></trkpt><trkpt lat="44.334567335597725" lon="10.756424215579724"><ele>799.0</ele><time>2026-05-02T12:13:46Z</time></trkpt><trkpt lat="44.33454254267346" lon="10.756203504916831"><ele>798.0</ele><time>2026-05-02T12:13:48Z</time></trkpt><trkpt lat="44.33452319084027" lon="10.756081321357524"><ele>797.0</ele><time>2026-05-02T12:13:50Z</time></trkpt><trkpt lat="44.33458672108791" lon="10.755953163142633"><ele>796.0</ele><time>2026-05-02T12:13:52Z</time></trkpt><trkpt lat="44.3346253654178" lon="10.755883685087568"><ele>795.0</ele><time>2026-05-02T12:13:53Z</time></trkpt><trkpt lat="44.33468690931142" lon="10.755820043343205"><ele>797.0</ele><time>2026-05-02T12:13:55Z</time></trkpt><trkpt lat="44.33472574084331" lon="10.755889638027133"><ele>799.0</ele><time>2026-05-02T12:13:56.999Z</time></trkpt><trkpt lat="44.33479350293731" lon="10.755941933998866"><ele>801.0</ele><time>2026-05-02T12:13:58.999Z</time></trkpt><trkpt lat="44.334845169457424" lon="10.75604418019108"><ele>803.0</ele><time>2026-05-02T12:14:00.999Z</time></trkpt><trkpt lat="44.334875994355066" lon="10.756143455605955"><ele>805.0</ele><time>2026-05-02T12:14:02.999Z</time></trkpt><trkpt lat="44.33491088080454" lon="10.756238560397362"><ele>807.0</ele><time>2026-05-02T12:14:04.999Z</time></trkpt><trkpt lat="44.33494817839059" lon="10.756367512814522"><ele>808.8</ele><time>2026-05-02T12:14:06.999Z</time></trkpt><trkpt lat="44.33500900895478" lon="10.75651167207575"><ele>810.6</ele><time>2026-05-02T12:14:32.999Z</time></trkpt><trkpt lat="44.33502197064658" lon="10.756664726553261"><ele>812.4</ele><time>2026-05-02T12:14:34.999Z</time></trkpt><trkpt lat="44.33501719587624" lon="10.756764686868594"><ele>814.1999999999999</ele><time>2026-05-02T12:14:35.999Z</time></trkpt><trkpt lat="44.33503429199584" lon="10.75690426524853"><ele>816.0</ele><time>2026-05-02T12:14:37.999Z</time></trkpt><trkpt lat="44.33510780386469" lon="10.756979518950567"><ele>816.8333333333334</ele><time>2026-05-02T12:14:39.999Z</time></trkpt><trkpt lat="44.33514230570019" lon="10.757059674277146"><ele>817.6666666666667</ele><time>2026-05-02T12:14:40.999Z</time></trkpt><trkpt lat="44.33520456858707" lon="10.757162687944213"><ele>818.5</ele><time>2026-05-02T12:14:42.999Z</time></trkpt><trkpt lat="44.33522546605856" lon="10.757274321532837"><ele>819.3333333333334</ele><time>2026-05-02T12:14:44.999Z</time></trkpt><trkpt lat="44.33528445156673" lon="10.757339323808123"><ele>820.1666666666667</ele><time>2026-05-02T12:14:46.999Z</time></trkpt><trkpt lat="44.335351217693535" lon="10.75741648239912"><ele>821.0</ele><time>2026-05-02T12:14:48.999Z</time></trkpt><trkpt lat="44.33540410381363" lon="10.757507398635346"><ele>821.0</ele><time>2026-05-02T12:14:50.999Z</time></trkpt><trkpt lat="44.335488975971764" lon="10.757560654586719"><ele>821.0</ele><time>2026-05-02T12:14:52.999Z</time></trkpt><trkpt lat="44.33554089290007" lon="10.75766044754937"><ele>821.0</ele><time>2026-05-02T12:14:54.999Z</time></trkpt><trkpt lat="44.335642473003894" lon="10.757677304380458"><ele>821.0</ele><time>2026-05-02T12:14:56.999Z</time></trkpt><trkpt lat="44.335722146862" lon="10.757775133964792"><ele>821.0</ele><time>2026-05-02T12:14:58.999Z</time></trkpt><trkpt lat="44.335799692043146" lon="10.757861429309454"><ele>825.8333333333334</ele><time>2026-05-02T12:15:01.999Z</time></trkpt><trkpt lat="44.33578333249945" lon="10.758018719946499"><ele>830.6666666666667</ele><time>2026-05-02T12:15:04.999Z</time></trkpt><trkpt lat="44.335770961141314" lon="10.75810935957174"><ele>835.5</ele><time>2026-05-02T12:15:06.999Z</time></trkpt><trkpt lat="44.335747121112725" lon="10.758243492316272"><ele>840.3333333333333</ele><time>2026-05-02T12:15:09Z</time></trkpt><trkpt lat="44.33574226995728" lon="10.758344740604487"><ele>845.1666666666666</ele><time>2026-05-02T12:15:11Z</time></trkpt><trkpt lat="44.33579501471103" lon="10.758418813001365"><ele>850.0</ele><time>2026-05-02T12:15:30Z</time></trkpt><trkpt lat="44.33589080598959" lon="10.75844762267018"><ele>850.0</ele><time>2026-05-02T12:15:33Z</time></trkpt><trkpt lat="44.33596280229006" lon="10.758524385406782"><ele>850.0</ele><time>2026-05-02T12:15:35Z</time></trkpt><trkpt lat="44.33595540578574" lon="10.758648785387939"><ele>850.0</ele><time>2026-05-02T12:15:37Z</time></trkpt><trkpt lat="44.33600022257508" lon="10.758805892784212"><ele>850.0</ele><time>2026-05-02T12:15:39Z</time></trkpt><trkpt lat="44.33604404117728" lon="10.758884386380233"><ele>850.0</ele><time>2026-05-02T12:15:41Z</time></trkpt><trkpt lat="44.3361594057415" lon="10.758870657062893"><ele>850.9999999999999</ele><time>2026-05-02T12:15:43Z</time></trkpt><trkpt lat="44.33622336871757" lon="10.758867892938449"><ele>852.0</ele><time>2026-05-02T12:15:44Z</time></trkpt><trkpt lat="44.336321493272905" lon="10.758947887289423"><ele>853.0</ele><time>2026-05-02T12:15:46Z</time></trkpt><trkpt lat="44.33637383341463" lon="10.75902473798203"><ele>854.0</ele><time>2026-05-02T12:15:47Z</time></trkpt><trkpt lat="44.33641892171219" lon="10.759130923054657"><ele>854.9999999999999</ele><time>2026-05-02T12:15:48Z</time></trkpt><trkpt lat="44.336447580753735" lon="10.759212304312793"><ele>856.0</ele><time>2026-05-02T12:15:49Z</time></trkpt><trkpt lat="44.33650618036893" lon="10.75933786057087"><ele>857.5</ele><time>2026-05-02T12:15:51Z</time></trkpt><trkpt lat="44.33649347582077" lon="10.759532144378413"><ele>859.0</ele><time>2026-05-02T12:15:53Z</time></trkpt><trkpt lat="44.336500075679886" lon="10.759623673531255"><ele>860.5</ele><time>2026-05-02T12:15:54Z</time></trkpt><trkpt lat="44.336498092891844" lon="10.75980050478819"><ele>862.0</ele><time>2026-05-02T12:15:56Z</time></trkpt><trkpt lat="44.336501630302806" lon="10.759972143356372"><ele>862.0</ele><time>2026-05-02T12:15:58Z</time></trkpt><trkpt lat="44.33646990191131" lon="10.760106241026596"><ele>862.0</ele><time>2026-05-02T12:16:00Z</time></trkpt><trkpt lat="44.33641099621653" lon="10.76021365367824"><ele>862.0</ele><time>2026-05-02T12:16:01.999Z</time></trkpt><trkpt lat="44.336376761698155" lon="10.760388756336717"><ele>862.0</ele><time>2026-05-02T12:16:03.999Z</time></trkpt><trkpt lat="44.33629710632525" lon="10.760520679128598"><ele>860.2</ele><time>2026-05-02T12:16:05.999Z</time></trkpt><trkpt lat="44.33625540661232" lon="10.760589588607127"><ele>858.4000000000001</ele><time>2026-05-02T12:16:06.999Z</time></trkpt><trkpt lat="44.336158059408874" lon="10.760721189041357"><ele>856.5999999999999</ele><time>2026-05-02T12:16:08.999Z</time></trkpt><trkpt lat="44.33607398972111" lon="10.760849243670906"><ele>854.8</ele><time>2026-05-02T12:16:10.999Z</time></trkpt><trkpt lat="44.33600918538551" lon="10.760902489011448"><ele>853.0</ele><time>2026-05-02T12:16:11.999Z</time></trkpt><trkpt lat="44.33591434457861" lon="10.760983691230017"><ele>853.4</ele><time>2026-05-02T12:16:13.999Z</time></trkpt><trkpt lat="44.33587383011215" lon="10.761083057339206"><ele>853.8</ele><time>2026-05-02T12:16:15.999Z</time></trkpt><trkpt lat="44.33584453701757" lon="10.761182234227833"><ele>854.2</ele><time>2026-05-02T12:16:31.999Z</time></trkpt><trkpt lat="44.33580304827401" lon="10.761320040700163"><ele>854.6</ele><time>2026-05-02T12:16:33.999Z</time></trkpt><trkpt lat="44.33575730165676" lon="10.761474962886185"><ele>855.0</ele><time>2026-05-02T12:16:35.999Z</time></trkpt><trkpt lat="44.33570168089971" lon="10.76159412065495"><ele>855.0</ele><time>2026-05-02T12:16:37.999Z</time></trkpt><trkpt lat="44.33561479550928" lon="10.7617262889501"><ele>855.0</ele><time>2026-05-02T12:16:39.999Z</time></trkpt><trkpt lat="44.335547852464906" lon="10.761863485943568"><ele>855.0</ele><time>2026-05-02T12:16:41.999Z</time></trkpt><trkpt lat="44.33550109351967" lon="10.761954914183955"><ele>855.0</ele><time>2026-05-02T12:16:42.999Z</time></trkpt><trkpt lat="44.33544944892824" lon="10.76202877989331"><ele>855.0</ele><time>2026-05-02T12:16:43.999Z</time></trkpt><trkpt lat="44.33539171408482" lon="10.762101516003746"><ele>854.8</ele><time>2026-05-02T12:16:44.999Z</time></trkpt><trkpt lat="44.33530992647362" lon="10.762238636186977"><ele>854.6</ele><time>2026-05-02T12:16:46.999Z</time></trkpt><trkpt lat="44.335262962854195" lon="10.762320733258877"><ele>854.4000000000001</ele><time>2026-05-02T12:16:47.999Z</time></trkpt><trkpt lat="44.3352218895902" lon="10.762405482928084"><ele>854.2</ele><time>2026-05-02T12:16:48.999Z</time></trkpt><trkpt lat="44.3351341136812" lon="10.762532925759023"><ele>854.0</ele><time>2026-05-02T12:16:50.999Z</time></trkpt><trkpt lat="44.33507363182038" lon="10.76260222516054"><ele>854.0</ele><time>2026-05-02T12:16:51.999Z</time></trkpt><trkpt lat="44.3350092465641" lon="10.762647277168776"><ele>854.0000000000001</ele><time>2026-05-02T12:16:52.999Z</time></trkpt><trkpt lat="44.33487291376683" lon="10.762688442233122"><ele>854.0000000000001</ele><time>2026-05-02T12:16:54.999Z</time></trkpt><trkpt lat="44.33479913949321" lon="10.762726934450212"><ele>854.0</ele><time>2026-05-02T12:16:55.999Z</time></trkpt><trkpt lat="44.33473437393223" lon="10.762759559206787"><ele>854.0</ele><time>2026-05-02T12:16:56.999Z</time></trkpt><trkpt lat="44.334616078124675" lon="10.762783344632156"><ele>853.0</ele><time>2026-05-02T12:16:58.999Z</time></trkpt><trkpt lat="44.33455063616369" lon="10.762808825136098"><ele>852.0000000000001</ele><time>2026-05-02T12:16:59.999Z</time></trkpt><trkpt lat="44.33443346623345" lon="10.762873109487936"><ele>851.0</ele><time>2026-05-02T12:17:01.999Z</time></trkpt><trkpt lat="44.33437265582364" lon="10.762902345698267"><ele>850.0</ele><time>2026-05-02T12:17:02.999Z</time></trkpt><trkpt lat="44.334300960897174" lon="10.762926369915204"><ele>849.0</ele><time>2026-05-02T12:17:03.999Z</time></trkpt><trkpt lat="44.33418183853309" lon="10.762981118129598"><ele>849.0</ele><time>2026-05-02T12:17:05.999Z</time></trkpt><trkpt lat="44.334094982305395" lon="10.763009876448697"><ele>849.0</ele><time>2026-05-02T12:17:06.999Z</time></trkpt><trkpt lat="44.3340216154536" lon="10.76302217265531"><ele>849.0</ele><time>2026-05-02T12:17:07.999Z</time></trkpt><trkpt lat="44.333958449797095" lon="10.763019476783773"><ele>849.0</ele><time>2026-05-02T12:17:08.999Z</time></trkpt><trkpt lat="44.33388149198434" lon="10.763011385863097"><ele>849.0</ele><time>2026-05-02T12:17:09.999Z</time></trkpt><trkpt lat="44.33380719848709" lon="10.76298844009883"><ele>849.0</ele><time>2026-05-02T12:17:10.999Z</time></trkpt><trkpt lat="44.33371887800271" lon="10.762904259584522"><ele>848.8333333333334</ele><time>2026-05-02T12:17:12.999Z</time></trkpt><trkpt lat="44.333670878028265" lon="10.762805315434562"><ele>848.6666666666667</ele><time>2026-05-02T12:17:15Z</time></trkpt><trkpt lat="44.333588898857286" lon="10.762796164277397"><ele>848.5</ele><time>2026-05-02T12:17:18Z</time></trkpt><trkpt lat="44.33353685266371" lon="10.762733552910623"><ele>848.3333333333334</ele><time>2026-05-02T12:17:20Z</time></trkpt><trkpt lat="44.33344581557176" lon="10.762635395548063"><ele>848.1666666666667</ele><time>2026-05-02T12:17:22Z</time></trkpt><trkpt lat="44.33339372870863" lon="10.76257988948226"><ele>848.0</ele><time>2026-05-02T12:17:23Z</time></trkpt><trkpt lat="44.333327208392966" lon="10.762533163111247"><ele>848.0</ele><time>2026-05-02T12:17:24Z</time></trkpt><trkpt lat="44.33327168808622" lon="10.762481767660834"><ele>848.0</ele><time>2026-05-02T12:17:25Z</time></trkpt><trkpt lat="44.33320128921057" lon="10.762440276988322"><ele>848.0</ele><time>2026-05-02T12:17:26Z</time></trkpt><trkpt lat="44.33312824578713" lon="10.762397551864282"><ele>848.0</ele><time>2026-05-02T12:17:27Z</time></trkpt><trkpt lat="44.33305653822578" lon="10.762363319893412"><ele>848.0</ele><time>2026-05-02T12:17:28Z</time></trkpt><trkpt lat="44.332986441827906" lon="10.76232200714475"><ele>848.0</ele><time>2026-05-02T12:17:29Z</time></trkpt><trkpt lat="44.3329231526659" lon="10.762272540905416"><ele>848.0</ele><time>2026-05-02T12:17:30Z</time></trkpt><trkpt lat="44.33279240363616" lon="10.762242966594117"><ele>847.8</ele><time>2026-05-02T12:17:32Z</time></trkpt><trkpt lat="44.33265183230616" lon="10.76224662611903"><ele>847.5999999999999</ele><time>2026-05-02T12:17:34Z</time></trkpt><trkpt lat="44.33255937279797" lon="10.762230360828587"><ele>847.4000000000001</ele><time>2026-05-02T12:17:35Z</time></trkpt><trkpt lat="44.33248426115565" lon="10.76222223851733"><ele>847.2</ele><time>2026-05-02T12:17:36Z</time></trkpt><trkpt lat="44.332414743409224" lon="10.762223536641311"><ele>847.0</ele><time>2026-05-02T12:17:37Z</time></trkpt><trkpt lat="44.33234164919659" lon="10.762233236134167"><ele>846.9999999999999</ele><time>2026-05-02T12:17:38Z</time></trkpt><trkpt lat="44.33227808160985" lon="10.762226867789783"><ele>847.0</ele><time>2026-05-02T12:17:39Z</time></trkpt><trkpt lat="44.33221352502447" lon="10.76218886939456"><ele>847.0</ele><time>2026-05-02T12:17:40Z</time></trkpt><trkpt lat="44.33214050341599" lon="10.762148916858623"><ele>847.0</ele><time>2026-05-02T12:17:41Z</time></trkpt><trkpt lat="44.332054881498955" lon="10.762106436561739"><ele>846.9999999999999</ele><time>2026-05-02T12:17:42Z</time></trkpt><trkpt lat="44.331983260798694" lon="10.762079893708243"><ele>847.0</ele><time>2026-05-02T12:17:43Z</time></trkpt><trkpt lat="44.33190601446739" lon="10.76206090916807"><ele>847.0</ele><time>2026-05-02T12:17:44Z</time></trkpt><trkpt lat="44.33181766582428" lon="10.762044033232154"><ele>847.0</ele><time>2026-05-02T12:17:45Z</time></trkpt><trkpt lat="44.3317165957847" lon="10.762029101036502"><ele>847.0</ele><time>2026-05-02T12:17:46Z</time></trkpt><trkpt lat="44.33164434272691" lon="10.762010931921155"><ele>847.0</ele><time>2026-05-02T12:17:47Z</time></trkpt><trkpt lat="44.33150186594648" lon="10.761968206630264"><ele>847.0</ele><time>2026-05-02T12:17:49Z</time></trkpt><trkpt lat="44.331440759833406" lon="10.761940581122612"><ele>848.2</ele><time>2026-05-02T12:17:50Z</time></trkpt><trkpt lat="44.33136472829714" lon="10.761912469630776"><ele>849.4000000000001</ele><time>2026-05-02T12:17:51Z</time></trkpt><trkpt lat="44.33122186774604" lon="10.761872977240778"><ele>850.5999999999999</ele><time>2026-05-02T12:17:53Z</time></trkpt><trkpt lat="44.33114224895057" lon="10.761861923523098"><ele>851.8</ele><time>2026-05-02T12:17:54Z</time></trkpt><trkpt lat="44.331040261188555" lon="10.761853663932568"><ele>853.0</ele><time>2026-05-02T12:17:55Z</time></trkpt><trkpt lat="44.33095620017001" lon="10.761860634773218"><ele>853.0</ele><time>2026-05-02T12:17:56Z</time></trkpt><trkpt lat="44.33086539807012" lon="10.761865862643344"><ele>853.0</ele><time>2026-05-02T12:17:57Z</time></trkpt><trkpt lat="44.33079099985329" lon="10.761859480120943"><ele>853.0</ele><time>2026-05-02T12:17:58Z</time></trkpt><trkpt lat="44.33069052246996" lon="10.761867304741955"><ele>853.0</ele><time>2026-05-02T12:18:00Z</time></trkpt><trkpt lat="44.33051570752777" lon="10.761819458869027"><ele>853.0</ele><time>2026-05-02T12:18:01Z</time></trkpt><trkpt lat="44.33041736935219" lon="10.761799913323147"><ele>855.2</ele><time>2026-05-02T12:18:02Z</time></trkpt><trkpt lat="44.33034554648911" lon="10.761778861156834"><ele>857.4</ele><time>2026-05-02T12:18:03Z</time></trkpt><trkpt lat="44.33025946518809" lon="10.761766884763453"><ele>859.6000000000001</ele><time>2026-05-02T12:18:04Z</time></trkpt><trkpt lat="44.33014431836179" lon="10.761735793847311"><ele>861.8000000000001</ele><time>2026-05-02T12:18:05.999Z</time></trkpt><trkpt lat="44.3300004318001" lon="10.761682627372238"><ele>864.0</ele><time>2026-05-02T12:18:07.999Z</time></trkpt><trkpt lat="44.32993405083996" lon="10.76165217480501"><ele>864.0</ele><time>2026-05-02T12:18:08.999Z</time></trkpt><trkpt lat="44.329796849466476" lon="10.761570665085602"><ele>864.0000000000001</ele><time>2026-05-02T12:18:10.999Z</time></trkpt><trkpt lat="44.329734941619584" lon="10.761540543535586"><ele>864.0000000000001</ele><time>2026-05-02T12:18:11.999Z</time></trkpt><trkpt lat="44.329666980633554" lon="10.76150155438072"><ele>864.0</ele><time>2026-05-02T12:18:12.999Z</time></trkpt><trkpt lat="44.32955420696664" lon="10.761434168629417"><ele>864.0</ele><time>2026-05-02T12:18:13.999Z</time></trkpt><trkpt lat="44.32948121759348" lon="10.761365868499205"><ele>865.0</ele><time>2026-05-02T12:18:14.999Z</time></trkpt><trkpt lat="44.32938285265298" lon="10.761291721699441"><ele>866.0</ele><time>2026-05-02T12:18:16.999Z</time></trkpt><trkpt lat="44.32932266909331" lon="10.76125022804791"><ele>867.0</ele><time>2026-05-02T12:18:17.999Z</time></trkpt><trkpt lat="44.32925702138243" lon="10.761206892654615"><ele>868.0</ele><time>2026-05-02T12:18:18.999Z</time></trkpt><trkpt lat="44.329187801181085" lon="10.761158590841605"><ele>869.0</ele><time>2026-05-02T12:18:19.999Z</time></trkpt><trkpt lat="44.329099377498544" lon="10.7610718693772"><ele>870.0</ele><time>2026-05-02T12:18:21.999Z</time></trkpt><trkpt lat="44.32901630905748" lon="10.761042707105673"><ele>870.5</ele><time>2026-05-02T12:18:30.999Z</time></trkpt><trkpt lat="44.3289150287723" lon="10.760953060784345"><ele>871.0</ele><time>2026-05-02T12:18:32.999Z</time></trkpt><trkpt lat="44.32883637048404" lon="10.760901735300923"><ele>871.5</ele><time>2026-05-02T12:18:33.999Z</time></trkpt><trkpt lat="44.32872272569926" lon="10.760865274459304"><ele>872.0</ele><time>2026-05-02T12:18:34.999Z</time></trkpt><trkpt lat="44.32859347075514" lon="10.760867851117226"><ele>872.0000000000001</ele><time>2026-05-02T12:18:35.999Z</time></trkpt><trkpt lat="44.32850637781372" lon="10.760875008225788"><ele>872.0</ele><time>2026-05-02T12:18:36.999Z</time></trkpt><trkpt lat="44.32837635551583" lon="10.760840990640705"><ele>872.0</ele><time>2026-05-02T12:18:38.999Z</time></trkpt><trkpt lat="44.328303520516386" lon="10.760844059905585"><ele>872.0</ele><time>2026-05-02T12:18:39.999Z</time></trkpt><trkpt lat="44.328220603332326" lon="10.76084735421188"><ele>872.0000000000001</ele><time>2026-05-02T12:18:40.999Z</time></trkpt><trkpt lat="44.32815356161225" lon="10.76086619129087"><ele>872.0</ele><time>2026-05-02T12:18:41.999Z</time></trkpt><trkpt lat="44.32808695112391" lon="10.76089944627679"><ele>873.2</ele><time>2026-05-02T12:18:42.999Z</time></trkpt><trkpt lat="44.3279728704948" lon="10.760939057735422"><ele>874.4000000000001</ele><time>2026-05-02T12:18:44.999Z</time></trkpt><trkpt lat="44.32789937781317" lon="10.761019501227347"><ele>875.5999999999999</ele><time>2026-05-02T12:18:46.999Z</time></trkpt><trkpt lat="44.32783796704593" lon="10.761094895879934"><ele>876.8</ele><time>2026-05-02T12:18:47.999Z</time></trkpt><trkpt lat="44.32772647905197" lon="10.761128752236298"><ele>878.0</ele><time>2026-05-02T12:18:49.999Z</time></trkpt><trkpt lat="44.32763606296084" lon="10.761188783565704"><ele>881.2</ele><time>2026-05-02T12:18:51.999Z</time></trkpt><trkpt lat="44.32755115572205" lon="10.761322924294385"><ele>884.4</ele><time>2026-05-02T12:18:53.999Z</time></trkpt><trkpt lat="44.327477011639765" lon="10.761461375587682"><ele>887.6000000000001</ele><time>2026-05-02T12:18:55.999Z</time></trkpt><trkpt lat="44.32741709008613" lon="10.761538022841982"><ele>890.8000000000001</ele><time>2026-05-02T12:18:56.999Z</time></trkpt><trkpt lat="44.32734339410432" lon="10.761596270972264"><ele>894.0</ele><time>2026-05-02T12:18:58.999Z</time></trkpt><trkpt lat="44.32722238190442" lon="10.76159674879431"><ele>897.3333333333334</ele><time>2026-05-02T12:19:00.999Z</time></trkpt><trkpt lat="44.32716809798731" lon="10.761541088668178"><ele>900.6666666666667</ele><time>2026-05-02T12:19:02.999Z</time></trkpt><trkpt lat="44.32714718017173" lon="10.761453434400844"><ele>904.0</ele><time>2026-05-02T12:19:04.999Z</time></trkpt><trkpt lat="44.327164662737225" lon="10.761313376910547"><ele>907.3333333333334</ele><time>2026-05-02T12:19:06.999Z</time></trkpt><trkpt lat="44.32712233783567" lon="10.761220368109225"><ele>910.6666666666667</ele><time>2026-05-02T12:19:08.999Z</time></trkpt><trkpt lat="44.327013018268254" lon="10.76124040313397"><ele>914.0</ele><time>2026-05-02T12:19:10.999Z</time></trkpt><trkpt lat="44.32695283269034" lon="10.761346154029953"><ele>914.0</ele><time>2026-05-02T12:19:12.999Z</time></trkpt><trkpt lat="44.3269486105492" lon="10.761478081346171"><ele>914.0000000000001</ele><time>2026-05-02T12:19:14.999Z</time></trkpt><trkpt lat="44.3269327091529" lon="10.761607419988366"><ele>914.0000000000001</ele><time>2026-05-02T12:19:15.999Z</time></trkpt><trkpt lat="44.32691080904894" lon="10.76175891812106"><ele>914.0</ele><time>2026-05-02T12:19:16.999Z</time></trkpt><trkpt lat="44.326892896089085" lon="10.761885134311552"><ele>914.0</ele><time>2026-05-02T12:19:17.999Z</time></trkpt><trkpt lat="44.32687726936015" lon="10.761993021593884"><ele>913.3333333333334</ele><time>2026-05-02T12:19:18.999Z</time></trkpt><trkpt lat="44.3268625720898" lon="10.762105567747826"><ele>912.6666666666667</ele><time>2026-05-02T12:19:19.999Z</time></trkpt><trkpt lat="44.32684743038673" lon="10.762216489239883"><ele>912.0</ele><time>2026-05-02T12:19:21Z</time></trkpt><trkpt lat="44.32683162477782" lon="10.76232209617286"><ele>911.3333333333333</ele><time>2026-05-02T12:19:22Z</time></trkpt><trkpt lat="44.32681481747758" lon="10.76243894536856"><ele>910.6666666666666</ele><time>2026-05-02T12:19:24Z</time></trkpt><trkpt lat="44.32676149888242" lon="10.762556394441189"><ele>910.0</ele><time>2026-05-02T12:19:26Z</time></trkpt><trkpt lat="44.326696648292035" lon="10.762673720682091"><ele>910.8</ele><time>2026-05-02T12:19:28Z</time></trkpt><trkpt lat="44.326604542151735" lon="10.762743122358216"><ele>911.6</ele><time>2026-05-02T12:19:30Z</time></trkpt><trkpt lat="44.32650131696449" lon="10.762820564059433"><ele>912.4000000000001</ele><time>2026-05-02T12:19:32Z</time></trkpt><trkpt lat="44.32638903846337" lon="10.762899018975348"><ele>913.2</ele><time>2026-05-02T12:19:34Z</time></trkpt><trkpt lat="44.326333673955716" lon="10.76294924029792"><ele>914.0</ele><time>2026-05-02T12:19:35Z</time></trkpt><trkpt lat="44.326274656026015" lon="10.763006752897512"><ele>914.0</ele><time>2026-05-02T12:19:36Z</time></trkpt><trkpt lat="44.32619413409843" lon="10.763111108960576"><ele>914.0000000000001</ele><time>2026-05-02T12:19:38Z</time></trkpt><trkpt lat="44.32614122931" lon="10.763198858556379"><ele>914.0000000000001</ele><time>2026-05-02T12:19:41Z</time></trkpt><trkpt lat="44.326213309137046" lon="10.763091540661417"><ele>914.0</ele><time>2026-05-02T12:19:46Z</time></trkpt><trkpt lat="44.32627098678096" lon="10.763018387394755"><ele>914.0</ele><time>2026-05-02T12:19:47Z</time></trkpt><trkpt lat="44.326351877269595" lon="10.762937261264836"><ele>913.3333333333334</ele><time>2026-05-02T12:19:48Z</time></trkpt><trkpt lat="44.326426073788674" lon="10.762879247544586"><ele>912.6666666666667</ele><time>2026-05-02T12:19:49Z</time></trkpt><trkpt lat="44.32648801135922" lon="10.762831232853781"><ele>912.0</ele><time>2026-05-02T12:19:50Z</time></trkpt><trkpt lat="44.32657917584589" lon="10.762777794084162"><ele>911.3333333333333</ele><time>2026-05-02T12:19:51Z</time></trkpt><trkpt lat="44.32664309906327" lon="10.76272369229822"><ele>910.6666666666666</ele><time>2026-05-02T12:19:52Z</time></trkpt><trkpt lat="44.326701582347255" lon="10.76267258614114"><ele>910.0</ele><time>2026-05-02T12:19:53Z</time></trkpt><trkpt lat="44.3267551009842" lon="10.762602894884411"><ele>909.9999999999999</ele><time>2026-05-02T12:19:54Z</time></trkpt><trkpt lat="44.326791929087065" lon="10.762476330680567"><ele>910.0</ele><time>2026-05-02T12:19:56Z</time></trkpt><trkpt lat="44.32684908276398" lon="10.762433995725495"><ele>910.0</ele><time>2026-05-02T12:19:58Z</time></trkpt><trkpt lat="44.3269368916404" lon="10.76255126074391"><ele>910.0</ele><time>2026-05-02T12:20:00Z</time></trkpt><trkpt lat="44.32698590682121" lon="10.762641923091673"><ele>909.9999999999999</ele><time>2026-05-02T12:20:01Z</time></trkpt><trkpt lat="44.32703937288594" lon="10.762714907995369"><ele>910.0</ele><time>2026-05-02T12:20:02Z</time></trkpt><trkpt lat="44.327127196424186" lon="10.762725865208738"><ele>908.4</ele><time>2026-05-02T12:20:03.999Z</time></trkpt><trkpt lat="44.3272414370361" lon="10.762759860779042"><ele>906.8</ele><time>2026-05-02T12:20:05.999Z</time></trkpt><trkpt lat="44.32730568456381" lon="10.762721100423333"><ele>905.2</ele><time>2026-05-02T12:20:06.999Z</time></trkpt><trkpt lat="44.327361914888954" lon="10.76267479054307"><ele>903.6</ele><time>2026-05-02T12:20:07.999Z</time></trkpt><trkpt lat="44.32741164270246" lon="10.762570694940646"><ele>902.0</ele><time>2026-05-02T12:20:09.999Z</time></trkpt><trkpt lat="44.32752405855581" lon="10.762536530155133"><ele>902.0</ele><time>2026-05-02T12:20:11.999Z</time></trkpt><trkpt lat="44.32758247491126" lon="10.762580841518455"><ele>902.0</ele><time>2026-05-02T12:20:12.999Z</time></trkpt><trkpt lat="44.327658420982374" lon="10.762665918915452"><ele>902.0</ele><time>2026-05-02T12:20:13.999Z</time></trkpt><trkpt lat="44.32774537256793" lon="10.762807691890579"><ele>902.0</ele><time>2026-05-02T12:20:15.999Z</time></trkpt><trkpt lat="44.32776616476926" lon="10.762916664381528"><ele>902.0</ele><time>2026-05-02T12:20:16.999Z</time></trkpt><trkpt lat="44.327793626529754" lon="10.763030378817312"><ele>901.1666666666667</ele><time>2026-05-02T12:20:17.999Z</time></trkpt><trkpt lat="44.3278538290099" lon="10.76309580121901"><ele>900.3333333333334</ele><time>2026-05-02T12:20:18.999Z</time></trkpt><trkpt lat="44.327931391565976" lon="10.763169029993422"><ele>899.5</ele><time>2026-05-02T12:20:19.999Z</time></trkpt><trkpt lat="44.32798563293504" lon="10.763221118496626"><ele>898.6666666666667</ele><time>2026-05-02T12:20:20.999Z</time></trkpt><trkpt lat="44.32804113311855" lon="10.76327022161307"><ele>897.8333333333334</ele><time>2026-05-02T12:20:21.999Z</time></trkpt><trkpt lat="44.32810665581888" lon="10.763320699276832"><ele>897.0</ele><time>2026-05-02T12:20:22.999Z</time></trkpt><trkpt lat="44.328195359903056" lon="10.763463552640003"><ele>895.0</ele><time>2026-05-02T12:20:24.999Z</time></trkpt><trkpt lat="44.32828078300455" lon="10.763561630538044"><ele>893.0</ele><time>2026-05-02T12:20:26.999Z</time></trkpt><trkpt lat="44.328366253666545" lon="10.763535565495925"><ele>891.0</ele><time>2026-05-02T12:20:28.999Z</time></trkpt><trkpt lat="44.328448473506576" lon="10.763649979663233"><ele>889.0</ele><time>2026-05-02T12:20:30.999Z</time></trkpt><trkpt lat="44.32849606298771" lon="10.76372969880961"><ele>887.0</ele><time>2026-05-02T12:20:31.999Z</time></trkpt><trkpt lat="44.32860926166159" lon="10.763776992354776"><ele>887.0</ele><time>2026-05-02T12:20:33.999Z</time></trkpt><trkpt lat="44.32872801114142" lon="10.76382582397477"><ele>887.0</ele><time>2026-05-02T12:20:35.999Z</time></trkpt><trkpt lat="44.32885525989869" lon="10.763824194993061"><ele>887.0</ele><time>2026-05-02T12:20:37.999Z</time></trkpt><trkpt lat="44.328919204455694" lon="10.76381542385492"><ele>887.0</ele><time>2026-05-02T12:20:38.999Z</time></trkpt><trkpt lat="44.3289837137398" lon="10.763813146911007"><ele>887.0</ele><time>2026-05-02T12:20:40.999Z</time></trkpt><trkpt lat="44.32907871830018" lon="10.763904021615158"><ele>888.5000000000001</ele><time>2026-05-02T12:20:57.999Z</time></trkpt><trkpt lat="44.32915200087257" lon="10.764023253241978"><ele>890.0</ele><time>2026-05-02T12:20:59.999Z</time></trkpt><trkpt lat="44.32923543333575" lon="10.764060925847604"><ele>891.5</ele><time>2026-05-02T12:21:01.999Z</time></trkpt><trkpt lat="44.329308559250826" lon="10.764057686169764"><ele>893.0</ele><time>2026-05-02T12:21:02.999Z</time></trkpt><trkpt lat="44.329391673454424" lon="10.764099125092057"><ele>894.5000000000001</ele><time>2026-05-02T12:21:04.999Z</time></trkpt><trkpt lat="44.32940324957689" lon="10.764220668359911"><ele>896.0</ele><time>2026-05-02T12:21:06.999Z</time></trkpt><trkpt lat="44.329513872784865" lon="10.764243497651426"><ele>896.0</ele><time>2026-05-02T12:21:08.999Z</time></trkpt><trkpt lat="44.329597664679184" lon="10.764312295245961"><ele>895.9999999999999</ele><time>2026-05-02T12:21:10.999Z</time></trkpt><trkpt lat="44.32964326179303" lon="10.764375960302589"><ele>895.9999999999999</ele><time>2026-05-02T12:21:11.999Z</time></trkpt><trkpt lat="44.32969739290099" lon="10.764511868053948"><ele>896.0</ele><time>2026-05-02T12:21:13.999Z</time></trkpt><trkpt lat="44.32971259049494" lon="10.764627621697304"><ele>896.0</ele><time>2026-05-02T12:21:14.999Z</time></trkpt><trkpt lat="44.32975320008039" lon="10.76477399514281"><ele>894.1999999999999</ele><time>2026-05-02T12:21:16.999Z</time></trkpt><trkpt lat="44.329763734533884" lon="10.764937840870344"><ele>892.3999999999999</ele><time>2026-05-02T12:21:18.999Z</time></trkpt><trkpt lat="44.32973116629303" lon="10.765077315186133"><ele>890.6</ele><time>2026-05-02T12:21:20.999Z</time></trkpt><trkpt lat="44.32971059020949" lon="10.765226661763327"><ele>888.8</ele><time>2026-05-02T12:21:22.999Z</time></trkpt><trkpt lat="44.32969605350207" lon="10.765331770587924"><ele>887.0</ele><time>2026-05-02T12:21:23.999Z</time></trkpt><trkpt lat="44.32965688605722" lon="10.765450196818191"><ele>886.6</ele><time>2026-05-02T12:21:24.999Z</time></trkpt><trkpt lat="44.32960660452033" lon="10.76561829961949"><ele>886.2</ele><time>2026-05-02T12:21:27Z</time></trkpt><trkpt lat="44.329543839050885" lon="10.76576199564946"><ele>885.8</ele><time>2026-05-02T12:21:29Z</time></trkpt><trkpt lat="44.32947274869319" lon="10.765888110804203"><ele>885.4</ele><time>2026-05-02T12:21:31Z</time></trkpt><trkpt lat="44.32942861622221" lon="10.765967450384101"><ele>885.0</ele><time>2026-05-02T12:21:32Z</time></trkpt><trkpt lat="44.32935453215512" lon="10.766077031507278"><ele>882.2</ele><time>2026-05-02T12:21:34Z</time></trkpt><trkpt lat="44.32929018207344" lon="10.766154543260226"><ele>879.4</ele><time>2026-05-02T12:21:35Z</time></trkpt><trkpt lat="44.32922653449301" lon="10.766225007848586"><ele>876.5999999999999</ele><time>2026-05-02T12:21:36Z</time></trkpt><trkpt lat="44.329157713973025" lon="10.766203945327735"><ele>873.8</ele><time>2026-05-02T12:21:37Z</time></trkpt><trkpt lat="44.329043571483" lon="10.76625080757996"><ele>871.0</ele><time>2026-05-02T12:21:39Z</time></trkpt><trkpt lat="44.32893952891184" lon="10.766273789042017"><ele>869.4999999999999</ele><time>2026-05-02T12:21:41Z</time></trkpt><trkpt lat="44.328844853275164" lon="10.766246927131846"><ele>868.0</ele><time>2026-05-02T12:21:43Z</time></trkpt><trkpt lat="44.32875016524229" lon="10.766243676420451"><ele>866.5</ele><time>2026-05-02T12:21:46Z</time></trkpt><trkpt lat="44.328685279427255" lon="10.766209483087074"><ele>865.0</ele><time>2026-05-02T12:21:48Z</time></trkpt><trkpt lat="44.3286066179839" lon="10.766131097793746"><ele>863.4999999999999</ele><time>2026-05-02T12:21:50Z</time></trkpt><trkpt lat="44.32852766432626" lon="10.766090996827515"><ele>862.0</ele><time>2026-05-02T12:21:52Z</time></trkpt><trkpt lat="44.3284576391816" lon="10.766121404802155"><ele>861.9999999999999</ele><time>2026-05-02T12:21:55Z</time></trkpt><trkpt lat="44.328471137148995" lon="10.766274995644913"><ele>862.0</ele><time>2026-05-02T12:21:57Z</time></trkpt><trkpt lat="44.328499700108836" lon="10.766360964850238"><ele>862.0</ele><time>2026-05-02T12:21:58Z</time></trkpt><trkpt lat="44.32855976245606" lon="10.766400564046576"><ele>862.0</ele><time>2026-05-02T12:21:59Z</time></trkpt><trkpt lat="44.328634039489934" lon="10.766463057431618"><ele>861.9999999999999</ele><time>2026-05-02T12:22:00Z</time></trkpt><trkpt lat="44.32868566453343" lon="10.766537827842846"><ele>862.0</ele><time>2026-05-02T12:22:01Z</time></trkpt><trkpt lat="44.328751025316464" lon="10.76668645467425"><ele>861.9999999999999</ele><time>2026-05-02T12:22:03Z</time></trkpt><trkpt lat="44.328781050247756" lon="10.766775540518292"><ele>862.0</ele><time>2026-05-02T12:22:04Z</time></trkpt><trkpt lat="44.32880608916646" lon="10.766865173632405"><ele>862.0</ele><time>2026-05-02T12:22:05Z</time></trkpt><trkpt lat="44.32883619427783" lon="10.766991717362655"><ele>862.0</ele><time>2026-05-02T12:22:07Z</time></trkpt><trkpt lat="44.32885471469528" lon="10.767087602350259"><ele>861.9999999999999</ele><time>2026-05-02T12:22:09Z</time></trkpt><trkpt lat="44.3289105291382" lon="10.767180185763594"><ele>862.0</ele><time>2026-05-02T12:22:12Z</time></trkpt><trkpt lat="44.328844847075054" lon="10.767058386014327"><ele>862.0</ele><time>2026-05-02T12:22:25.999Z</time></trkpt><trkpt lat="44.32880994698559" lon="10.7669004925804"><ele>862.0</ele><time>2026-05-02T12:22:26.999Z</time></trkpt><trkpt lat="44.328781825156184" lon="10.766745496573195"><ele>862.0</ele><time>2026-05-02T12:22:27.999Z</time></trkpt><trkpt lat="44.32873538710545" lon="10.766641796463043"><ele>862.0</ele><time>2026-05-02T12:22:28.999Z</time></trkpt><trkpt lat="44.32868912601397" lon="10.766517776461052"><ele>862.0</ele><time>2026-05-02T12:22:29.999Z</time></trkpt><trkpt lat="44.32862032132175" lon="10.766410116206616"><ele>861.9999999999999</ele><time>2026-05-02T12:22:31.999Z</time></trkpt><trkpt lat="44.328558913511245" lon="10.766371733548379"><ele>862.0</ele><time>2026-05-02T12:22:32.999Z</time></trkpt><trkpt lat="44.328490045406575" lon="10.766306653081328"><ele>862.0</ele><time>2026-05-02T12:22:34.999Z</time></trkpt><trkpt lat="44.3284637057708" lon="10.766225355604526"><ele>862.0</ele><time>2026-05-02T12:22:35.999Z</time></trkpt><trkpt lat="44.32847464878791" lon="10.766079521241505"><ele>861.9999999999999</ele><time>2026-05-02T12:22:37.999Z</time></trkpt><trkpt lat="44.328413826958304" lon="10.765991446973398"><ele>862.0</ele><time>2026-05-02T12:22:39.999Z</time></trkpt><trkpt lat="44.32836716607671" lon="10.765915738987575"><ele>861.4000000000001</ele><time>2026-05-02T12:22:40.999Z</time></trkpt><trkpt lat="44.32831999185744" lon="10.76585192201253"><ele>860.8000000000001</ele><time>2026-05-02T12:22:41.999Z</time></trkpt><trkpt lat="44.328238884884684" lon="10.765731185935588"><ele>860.2</ele><time>2026-05-02T12:22:43.999Z</time></trkpt><trkpt lat="44.32817847345178" lon="10.765667897170779"><ele>859.6</ele><time>2026-05-02T12:22:44.999Z</time></trkpt><trkpt lat="44.328051849970294" lon="10.765610409774926"><ele>859.0</ele><time>2026-05-02T12:22:46.999Z</time></trkpt><trkpt lat="44.327944165022856" lon="10.765548114294594"><ele>858.9999999999999</ele><time>2026-05-02T12:22:48.999Z</time></trkpt><trkpt lat="44.32788183115604" lon="10.765402449881131"><ele>859.0</ele><time>2026-05-02T12:22:50.999Z</time></trkpt><trkpt lat="44.32786491905467" lon="10.76531746974427"><ele>859.0</ele><time>2026-05-02T12:22:51.999Z</time></trkpt><trkpt lat="44.327828885222466" lon="10.76524233981767"><ele>859.0</ele><time>2026-05-02T12:22:52.999Z</time></trkpt><trkpt lat="44.32777500327691" lon="10.765193458060068"><ele>858.9999999999999</ele><time>2026-05-02T12:22:53.999Z</time></trkpt><trkpt lat="44.327715659648405" lon="10.76513751929424"><ele>859.0</ele><time>2026-05-02T12:22:54.999Z</time></trkpt><trkpt lat="44.32764681119998" lon="10.764968321561497"><ele>860.1666666666666</ele><time>2026-05-02T12:22:56.999Z</time></trkpt><trkpt lat="44.32760340074586" lon="10.764875719850282"><ele>861.3333333333333</ele><time>2026-05-02T12:22:57.999Z</time></trkpt><trkpt lat="44.32754916735233" lon="10.764821497253877"><ele>862.5</ele><time>2026-05-02T12:22:58.999Z</time></trkpt><trkpt lat="44.327480460729994" lon="10.764797415049259"><ele>863.6666666666667</ele><time>2026-05-02T12:22:59.999Z</time></trkpt><trkpt lat="44.32739891486958" lon="10.764794891112995"><ele>864.8333333333334</ele><time>2026-05-02T12:23:00.999Z</time></trkpt><trkpt lat="44.327313058860696" lon="10.764836129959354"><ele>866.0</ele><time>2026-05-02T12:23:02.999Z</time></trkpt><trkpt lat="44.32723557151598" lon="10.764966264609656"><ele>866.0</ele><time>2026-05-02T12:23:04.999Z</time></trkpt><trkpt lat="44.327253875181626" lon="10.765147602093487"><ele>866.0</ele><time>2026-05-02T12:23:06.999Z</time></trkpt><trkpt lat="44.32727721753877" lon="10.765340777655439"><ele>866.0</ele><time>2026-05-02T12:23:08.999Z</time></trkpt><trkpt lat="44.32726168586152" lon="10.765498568123071"><ele>866.0</ele><time>2026-05-02T12:23:10.999Z</time></trkpt><trkpt lat="44.32722970529034" lon="10.765623097955908"><ele>866.5000000000001</ele><time>2026-05-02T12:23:12.999Z</time></trkpt><trkpt lat="44.32717457794182" lon="10.765755489235723"><ele>867.0</ele><time>2026-05-02T12:23:13.999Z</time></trkpt><trkpt lat="44.32713278145984" lon="10.76584223873415"><ele>867.5</ele><time>2026-05-02T12:23:14.999Z</time></trkpt><trkpt lat="44.32708734982742" lon="10.765922253661014"><ele>868.0</ele><time>2026-05-02T12:23:15.999Z</time></trkpt><trkpt lat="44.32704344135744" lon="10.765995913410887"><ele>868.5000000000001</ele><time>2026-05-02T12:23:16.999Z</time></trkpt><trkpt lat="44.32700662770708" lon="10.76607970170496"><ele>869.0</ele><time>2026-05-02T12:23:17.999Z</time></trkpt><trkpt lat="44.326982851327394" lon="10.766189448798695"><ele>867.0000000000001</ele><time>2026-05-02T12:23:18.999Z</time></trkpt><trkpt lat="44.326957385080426" lon="10.76628866225538"><ele>865.0</ele><time>2026-05-02T12:23:19.999Z</time></trkpt><trkpt lat="44.326935404378844" lon="10.766414998662"><ele>863.0</ele><time>2026-05-02T12:23:20.999Z</time></trkpt><trkpt lat="44.32690572517128" lon="10.766535427498365"><ele>861.0</ele><time>2026-05-02T12:23:21.999Z</time></trkpt><trkpt lat="44.32685570461658" lon="10.766667619281048"><ele>859.0000000000001</ele><time>2026-05-02T12:23:23.999Z</time></trkpt><trkpt lat="44.32682664459929" lon="10.76674897478291"><ele>857.0</ele><time>2026-05-02T12:23:24.999Z</time></trkpt><trkpt lat="44.32676478761379" lon="10.7668518541472"><ele>856.6666666666667</ele><time>2026-05-02T12:23:25.999Z</time></trkpt><trkpt lat="44.32671459619775" lon="10.766929546089465"><ele>856.3333333333334</ele><time>2026-05-02T12:23:26.999Z</time></trkpt><trkpt lat="44.32662592312525" lon="10.767029244212111"><ele>856.0</ele><time>2026-05-02T12:23:27.999Z</time></trkpt><trkpt lat="44.32655047921986" lon="10.767115717306428"><ele>855.6666666666667</ele><time>2026-05-02T12:23:28.999Z</time></trkpt><trkpt lat="44.32651107534192" lon="10.767196471871285"><ele>855.3333333333334</ele><time>2026-05-02T12:23:29.999Z</time></trkpt><trkpt lat="44.326441158455474" lon="10.76726545938898"><ele>855.0</ele><time>2026-05-02T12:23:30.999Z</time></trkpt><trkpt lat="44.32638183131733" lon="10.767326540960743"><ele>855.0</ele><time>2026-05-02T12:23:32Z</time></trkpt><trkpt lat="44.32630961128262" lon="10.767389826397332"><ele>855.0</ele><time>2026-05-02T12:23:33Z</time></trkpt><trkpt lat="44.32626576327362" lon="10.767456429447023"><ele>855.0</ele><time>2026-05-02T12:23:34Z</time></trkpt><trkpt lat="44.32622476911803" lon="10.767539654781407"><ele>855.0</ele><time>2026-05-02T12:23:35Z</time></trkpt><trkpt lat="44.32619799102754" lon="10.767639436261222"><ele>855.0</ele><time>2026-05-02T12:23:36Z</time></trkpt><trkpt lat="44.32614825297449" lon="10.767730987248612"><ele>855.0</ele><time>2026-05-02T12:23:37Z</time></trkpt><trkpt lat="44.32610117185187" lon="10.767801708948847"><ele>855.0</ele><time>2026-05-02T12:23:38Z</time></trkpt><trkpt lat="44.326032767509325" lon="10.76788924898418"><ele>855.0</ele><time>2026-05-02T12:23:39Z</time></trkpt><trkpt lat="44.32594952767225" lon="10.768014257808208"><ele>855.0</ele><time>2026-05-02T12:23:40Z</time></trkpt><trkpt lat="44.32587144050966" lon="10.76812980375657"><ele>855.0</ele><time>2026-05-02T12:23:41Z</time></trkpt><trkpt lat="44.32579142234315" lon="10.768230642972842"><ele>855.0</ele><time>2026-05-02T12:23:42Z</time></trkpt><trkpt lat="44.32576931214939" lon="10.768318775381937"><ele>855.0</ele><time>2026-05-02T12:23:44Z</time></trkpt><trkpt lat="44.325724879794606" lon="10.768397673647211"><ele>855.0</ele><time>2026-05-02T12:23:45Z</time></trkpt><trkpt lat="44.32569113092629" lon="10.768512037443745"><ele>855.0</ele><time>2026-05-02T12:23:46Z</time></trkpt><trkpt lat="44.32564240924288" lon="10.76866278634991"><ele>855.0</ele><time>2026-05-02T12:23:47Z</time></trkpt><trkpt lat="44.32560803583316" lon="10.768776694119712"><ele>855.0</ele><time>2026-05-02T12:23:48Z</time></trkpt><trkpt lat="44.325572930482686" lon="10.768869840590092"><ele>855.0</ele><time>2026-05-02T12:23:49Z</time></trkpt><trkpt lat="44.3255313330882" lon="10.768981935360735"><ele>853.4285714285714</ele><time>2026-05-02T12:23:50Z</time></trkpt><trkpt lat="44.325493746813855" lon="10.769095392801196"><ele>851.8571428571428</ele><time>2026-05-02T12:23:51Z</time></trkpt><trkpt lat="44.325463662475656" lon="10.769194204872953"><ele>850.2857142857142</ele><time>2026-05-02T12:23:52Z</time></trkpt><trkpt lat="44.325434319224506" lon="10.769290276325972"><ele>848.7142857142858</ele><time>2026-05-02T12:23:53Z</time></trkpt><trkpt lat="44.32539672985486" lon="10.769385998437771"><ele>847.1428571428571</ele><time>2026-05-02T12:23:54Z</time></trkpt><trkpt lat="44.325364995871944" lon="10.769462416277939"><ele>845.5714285714286</ele><time>2026-05-02T12:23:55Z</time></trkpt><trkpt lat="44.32533097767231" lon="10.769541657395706"><ele>844.0</ele><time>2026-05-02T12:23:56Z</time></trkpt><trkpt lat="44.32529860443499" lon="10.769635300237496"><ele>843.9999999999999</ele><time>2026-05-02T12:23:57Z</time></trkpt><trkpt lat="44.325278705955895" lon="10.769747057067658"><ele>844.0</ele><time>2026-05-02T12:23:58Z</time></trkpt><trkpt lat="44.32527040494217" lon="10.76985336110176"><ele>844.0</ele><time>2026-05-02T12:23:59Z</time></trkpt><trkpt lat="44.32526914195327" lon="10.769963792132948"><ele>844.0</ele><time>2026-05-02T12:24:00Z</time></trkpt><trkpt lat="44.32527589037704" lon="10.770065978005029"><ele>843.9999999999999</ele><time>2026-05-02T12:24:01Z</time></trkpt><trkpt lat="44.325273279919514" lon="10.770172243188691"><ele>844.0</ele><time>2026-05-02T12:24:02Z</time></trkpt><trkpt lat="44.32526658306415" lon="10.770276858592947"><ele>843.4999999999999</ele><time>2026-05-02T12:24:03Z</time></trkpt><trkpt lat="44.325265452006235" lon="10.77037082483203"><ele>843.0</ele><time>2026-05-02T12:24:04Z</time></trkpt><trkpt lat="44.32525308240947" lon="10.770462552847926"><ele>842.5</ele><time>2026-05-02T12:24:05Z</time></trkpt><trkpt lat="44.32523753165787" lon="10.770552072887075"><ele>842.0</ele><time>2026-05-02T12:24:06Z</time></trkpt><trkpt lat="44.325238989068936" lon="10.770672078637213"><ele>841.4999999999999</ele><time>2026-05-02T12:24:07Z</time></trkpt><trkpt lat="44.32525733301326" lon="10.770806534808317"><ele>841.0</ele><time>2026-05-02T12:24:08Z</time></trkpt><trkpt lat="44.325285715757516" lon="10.770934866767965"><ele>840.1666666666666</ele><time>2026-05-02T12:24:09Z</time></trkpt><trkpt lat="44.32529930216953" lon="10.771053888129307"><ele>839.3333333333333</ele><time>2026-05-02T12:24:10Z</time></trkpt><trkpt lat="44.32530822944774" lon="10.771176238188964"><ele>838.5</ele><time>2026-05-02T12:24:10.999Z</time></trkpt><trkpt lat="44.32531043819486" lon="10.771296624087551"><ele>837.6666666666667</ele><time>2026-05-02T12:24:11.999Z</time></trkpt><trkpt lat="44.32530607459983" lon="10.771419232934178"><ele>836.8333333333334</ele><time>2026-05-02T12:24:12.999Z</time></trkpt><trkpt lat="44.32531220936014" lon="10.771530994518697"><ele>836.0</ele><time>2026-05-02T12:24:13.999Z</time></trkpt><trkpt lat="44.32531826574633" lon="10.771643116218705"><ele>836.0000000000001</ele><time>2026-05-02T12:24:14.999Z</time></trkpt><trkpt lat="44.32533263887086" lon="10.771763841932515"><ele>836.0</ele><time>2026-05-02T12:24:15.999Z</time></trkpt><trkpt lat="44.32535429184342" lon="10.771891798723189"><ele>836.0</ele><time>2026-05-02T12:24:16.999Z</time></trkpt><trkpt lat="44.32537305074133" lon="10.771986666401354"><ele>836.0</ele><time>2026-05-02T12:24:17.999Z</time></trkpt><trkpt lat="44.32539014623652" lon="10.772079564175886"><ele>836.0000000000001</ele><time>2026-05-02T12:24:18.999Z</time></trkpt><trkpt lat="44.3254074009975" lon="10.772166184594667"><ele>836.0</ele><time>2026-05-02T12:24:19.999Z</time></trkpt><trkpt lat="44.325423393345964" lon="10.772263509320927"><ele>836.0</ele><time>2026-05-02T12:24:20.999Z</time></trkpt><trkpt lat="44.325444973759794" lon="10.772355620169048"><ele>836.0</ele><time>2026-05-02T12:24:21.999Z</time></trkpt><trkpt lat="44.32546895945026" lon="10.772438158924148"><ele>836.0</ele><time>2026-05-02T12:24:22.999Z</time></trkpt><trkpt lat="44.325497865084316" lon="10.772516569248305"><ele>836.0</ele><time>2026-05-02T12:24:23.999Z</time></trkpt><trkpt lat="44.32553145763041" lon="10.772650567603916"><ele>836.0</ele><time>2026-05-02T12:24:25.999Z</time></trkpt><trkpt lat="44.32552379468779" lon="10.772757976673676"><ele>836.0</ele><time>2026-05-02T12:24:26.999Z</time></trkpt><trkpt lat="44.32550464143162" lon="10.772845245617276"><ele>836.0</ele><time>2026-05-02T12:24:27.999Z</time></trkpt><trkpt lat="44.32547704293005" lon="10.772928656922053"><ele>837.0</ele><time>2026-05-02T12:24:28.999Z</time></trkpt><trkpt lat="44.325435710916096" lon="10.772996711063612"><ele>838.0</ele><time>2026-05-02T12:24:29.999Z</time></trkpt><trkpt lat="44.325353539002556" lon="10.773111721222977"><ele>839.0</ele><time>2026-05-02T12:24:31.999Z</time></trkpt><trkpt lat="44.325287987113015" lon="10.773178144640642"><ele>840.0</ele><time>2026-05-02T12:24:33.999Z</time></trkpt><trkpt lat="44.32522804184757" lon="10.77323649061232"><ele>841.0</ele><time>2026-05-02T12:24:34.999Z</time></trkpt><trkpt lat="44.32512049984731" lon="10.773324639973756"><ele>841.0</ele><time>2026-05-02T12:24:36.999Z</time></trkpt><trkpt lat="44.32504444810779" lon="10.773369585278267"><ele>841.0</ele><time>2026-05-02T12:24:37.999Z</time></trkpt><trkpt lat="44.32497516965603" lon="10.773389662655829"><ele>841.0</ele><time>2026-05-02T12:24:38.999Z</time></trkpt><trkpt lat="44.324850090135484" lon="10.773460405307437"><ele>841.0</ele><time>2026-05-02T12:24:40.999Z</time></trkpt><trkpt lat="44.3247641562002" lon="10.77349592724948"><ele>841.0</ele><time>2026-05-02T12:24:41.999Z</time></trkpt><trkpt lat="44.32468017245305" lon="10.773523125422988"><ele>840.5999999999999</ele><time>2026-05-02T12:24:42.999Z</time></trkpt><trkpt lat="44.32459697215019" lon="10.773556502997275"><ele>840.2</ele><time>2026-05-02T12:24:43.999Z</time></trkpt><trkpt lat="44.32448810556345" lon="10.77359985282178"><ele>839.8</ele><time>2026-05-02T12:24:45.999Z</time></trkpt><trkpt lat="44.32438620013556" lon="10.773602024527259"><ele>839.4000000000001</ele><time>2026-05-02T12:24:47.999Z</time></trkpt><trkpt lat="44.32430683003209" lon="10.773577719088333"><ele>839.0</ele><time>2026-05-02T12:24:48.999Z</time></trkpt><trkpt lat="44.324234020001256" lon="10.77354267157377"><ele>839.0</ele><time>2026-05-02T12:24:49.999Z</time></trkpt><trkpt lat="44.324116917888404" lon="10.773520560454926"><ele>839.0</ele><time>2026-05-02T12:24:51.999Z</time></trkpt><trkpt lat="44.324021728065446" lon="10.77352044240639"><ele>839.0</ele><time>2026-05-02T12:24:52.999Z</time></trkpt><trkpt lat="44.32390866909119" lon="10.773555075121026"><ele>839.0</ele><time>2026-05-02T12:24:54.999Z</time></trkpt><trkpt lat="44.323833965336895" lon="10.773624282952738"><ele>839.0</ele><time>2026-05-02T12:24:56.999Z</time></trkpt><trkpt lat="44.32375782952178" lon="10.77375506570954"><ele>836.4000000000001</ele><time>2026-05-02T12:24:59.999Z</time></trkpt><trkpt lat="44.32373350873837" lon="10.773908259529735"><ele>833.8</ele><time>2026-05-02T12:25:01.999Z</time></trkpt><trkpt lat="44.32378469607674" lon="10.77405618357142"><ele>831.2</ele><time>2026-05-02T12:25:03.999Z</time></trkpt><trkpt lat="44.32384761791614" lon="10.774168947735838"><ele>828.5999999999999</ele><time>2026-05-02T12:25:05.999Z</time></trkpt><trkpt lat="44.32389403655896" lon="10.774258963849688"><ele>826.0</ele><time>2026-05-02T12:25:07.999Z</time></trkpt><trkpt lat="44.32388836827915" lon="10.774360714292653"><ele>824.8</ele><time>2026-05-02T12:25:09.999Z</time></trkpt><trkpt lat="44.32381809950626" lon="10.774487444975064"><ele>823.5999999999999</ele><time>2026-05-02T12:25:11.999Z</time></trkpt><trkpt lat="44.32374873746726" lon="10.774524759997403"><ele>822.4</ele><time>2026-05-02T12:25:12.999Z</time></trkpt><trkpt lat="44.32369341608626" lon="10.774599613548792"><ele>821.2</ele><time>2026-05-02T12:25:13.999Z</time></trkpt><trkpt lat="44.323623553641845" lon="10.774704954261521"><ele>820.0</ele><time>2026-05-02T12:25:14.999Z</time></trkpt><trkpt lat="44.32352931641428" lon="10.774814241334985"><ele>819.9999999999999</ele><time>2026-05-02T12:25:16.999Z</time></trkpt><trkpt lat="44.323482640654895" lon="10.774874892537484"><ele>820.0</ele><time>2026-05-02T12:25:17.999Z</time></trkpt><trkpt lat="44.32346628086286" lon="10.77503517526665"><ele>820.0</ele><time>2026-05-02T12:25:19.999Z</time></trkpt><trkpt lat="44.32348111599491" lon="10.775140653080191"><ele>820.0</ele><time>2026-05-02T12:25:20.999Z</time></trkpt><trkpt lat="44.32350232828628" lon="10.775234038403552"><ele>819.9999999999999</ele><time>2026-05-02T12:25:21.999Z</time></trkpt><trkpt lat="44.323537379510945" lon="10.775322280456294"><ele>820.0</ele><time>2026-05-02T12:25:22.999Z</time></trkpt><trkpt lat="44.32358337395867" lon="10.775425280162517"><ele>819.9999999999999</ele><time>2026-05-02T12:25:23.999Z</time></trkpt><trkpt lat="44.32360465901841" lon="10.7755974939559"><ele>820.0</ele><time>2026-05-02T12:25:25.999Z</time></trkpt><trkpt lat="44.323589501372545" lon="10.775694487246662"><ele>820.0</ele><time>2026-05-02T12:25:26.999Z</time></trkpt><trkpt lat="44.32355735883945" lon="10.775793732557455"><ele>820.0</ele><time>2026-05-02T12:25:27.999Z</time></trkpt><trkpt lat="44.32351809201132" lon="10.775879321489382"><ele>819.9999999999999</ele><time>2026-05-02T12:25:28.999Z</time></trkpt><trkpt lat="44.32346415542106" lon="10.775949337905683"><ele>820.0</ele><time>2026-05-02T12:25:29.999Z</time></trkpt><trkpt lat="44.323404180576915" lon="10.77601010372518"><ele>820.1666666666666</ele><time>2026-05-02T12:25:30.999Z</time></trkpt><trkpt lat="44.32333176696066" lon="10.776078862723802"><ele>820.3333333333333</ele><time>2026-05-02T12:25:31.999Z</time></trkpt><trkpt lat="44.32326933622454" lon="10.776152707358131"><ele>820.5</ele><time>2026-05-02T12:25:32.999Z</time></trkpt><trkpt lat="44.3232253727351" lon="10.776240682946876"><ele>820.6666666666667</ele><time>2026-05-02T12:25:33.999Z</time></trkpt><trkpt lat="44.32318195520276" lon="10.77635913072327"><ele>820.8333333333334</ele><time>2026-05-02T12:25:34.999Z</time></trkpt><trkpt lat="44.32315228555742" lon="10.776462170566527"><ele>821.0</ele><time>2026-05-02T12:25:35.999Z</time></trkpt><trkpt lat="44.323123369259875" lon="10.776591862286677"><ele>821.0000000000001</ele><time>2026-05-02T12:25:36.999Z</time></trkpt><trkpt lat="44.32311054105975" lon="10.776722901101918"><ele>821.0</ele><time>2026-05-02T12:25:38Z</time></trkpt><trkpt lat="44.323106948680596" lon="10.776818427783608"><ele>821.0</ele><time>2026-05-02T12:25:39Z</time></trkpt><trkpt lat="44.32309310409069" lon="10.776928739426829"><ele>821.0</ele><time>2026-05-02T12:25:40Z</time></trkpt><trkpt lat="44.323087066972896" lon="10.77702195487068"><ele>821.0000000000001</ele><time>2026-05-02T12:25:41Z</time></trkpt><trkpt lat="44.32308342608776" lon="10.777207052487617"><ele>821.0</ele><time>2026-05-02T12:25:43Z</time></trkpt><trkpt lat="44.323075812096675" lon="10.777329995859825"><ele>819.0</ele><time>2026-05-02T12:25:45Z</time></trkpt><trkpt lat="44.322964527853024" lon="10.777416557468023"><ele>817.0</ele><time>2026-05-02T12:25:47Z</time></trkpt><trkpt lat="44.322831995261126" lon="10.777401686179479"><ele>815.0</ele><time>2026-05-02T12:25:49Z</time></trkpt><trkpt lat="44.32276064313666" lon="10.777392479359705"><ele>813.0</ele><time>2026-05-02T12:25:50Z</time></trkpt><trkpt lat="44.32269333438969" lon="10.77739396374039"><ele>811.0</ele><time>2026-05-02T12:25:51Z</time></trkpt><trkpt lat="44.32257049381627" lon="10.777408510410964"><ele>810.9999999999999</ele><time>2026-05-02T12:25:53Z</time></trkpt><trkpt lat="44.322506159016555" lon="10.77742415543742"><ele>811.0</ele><time>2026-05-02T12:25:54Z</time></trkpt><trkpt lat="44.3224108677209" lon="10.777457834093557"><ele>811.0</ele><time>2026-05-02T12:25:56Z</time></trkpt><trkpt lat="44.32233442454672" lon="10.777489406839967"><ele>811.0</ele><time>2026-05-02T12:25:58Z</time></trkpt><trkpt lat="44.32226178841024" lon="10.777523479218468"><ele>810.9999999999999</ele><time>2026-05-02T12:26:00Z</time></trkpt><trkpt lat="44.322194074356965" lon="10.77760223592747"><ele>811.0</ele><time>2026-05-02T12:26:03Z</time></trkpt><trkpt lat="44.322155754084754" lon="10.777702898764868"><ele>809.1999999999999</ele><time>2026-05-02T12:26:16.999Z</time></trkpt><trkpt lat="44.32209035167374" lon="10.7778807802457"><ele>807.4</ele><time>2026-05-02T12:26:18.999Z</time></trkpt><trkpt lat="44.32204547786238" lon="10.778022461462111"><ele>805.6</ele><time>2026-05-02T12:26:19.999Z</time></trkpt><trkpt lat="44.322004021866974" lon="10.778130551057714"><ele>803.8</ele><time>2026-05-02T12:26:20.999Z</time></trkpt><trkpt lat="44.321955470279875" lon="10.778235451286998"><ele>802.0</ele><time>2026-05-02T12:26:21.999Z</time></trkpt><trkpt lat="44.3219396676091" lon="10.778350590521068"><ele>801.9999999999999</ele><time>2026-05-02T12:26:22.999Z</time></trkpt><trkpt lat="44.32189562289732" lon="10.778447797576664"><ele>802.0</ele><time>2026-05-02T12:26:23.999Z</time></trkpt><trkpt lat="44.32188174368257" lon="10.778568985554697"><ele>802.0</ele><time>2026-05-02T12:26:24.999Z</time></trkpt><trkpt lat="44.32186050813181" lon="10.778665876941034"><ele>802.0</ele><time>2026-05-02T12:26:25.999Z</time></trkpt><trkpt lat="44.32184317206553" lon="10.778778520599959"><ele>801.9999999999999</ele><time>2026-05-02T12:26:26.999Z</time></trkpt><trkpt lat="44.32181951376077" lon="10.778886188251484"><ele>802.0</ele><time>2026-05-02T12:26:27.999Z</time></trkpt><trkpt lat="44.321811844316784" lon="10.779014412826191"><ele>802.0</ele><time>2026-05-02T12:26:28.999Z</time></trkpt><trkpt lat="44.321820299856725" lon="10.779178537270347"><ele>802.0</ele><time>2026-05-02T12:26:29.999Z</time></trkpt><trkpt lat="44.32181880535114" lon="10.779363487569345"><ele>802.0</ele><time>2026-05-02T12:26:30.999Z</time></trkpt><trkpt lat="44.32182200968492" lon="10.779549880721516"><ele>802.0</ele><time>2026-05-02T12:26:31.999Z</time></trkpt><trkpt lat="44.32183460160718" lon="10.77971271520336"><ele>799.5</ele><time>2026-05-02T12:26:32.999Z</time></trkpt><trkpt lat="44.32184372719457" lon="10.779888153645608"><ele>797.0</ele><time>2026-05-02T12:26:33.999Z</time></trkpt><trkpt lat="44.321855226989655" lon="10.780054180892956"><ele>794.5</ele><time>2026-05-02T12:26:34.999Z</time></trkpt><trkpt lat="44.32187278289154" lon="10.780225484417448"><ele>792.0</ele><time>2026-05-02T12:26:35.999Z</time></trkpt><trkpt lat="44.32188566964602" lon="10.780388668122967"><ele>790.8</ele><time>2026-05-02T12:26:36.999Z</time></trkpt><trkpt lat="44.32190203613116" lon="10.780544492971801"><ele>789.6</ele><time>2026-05-02T12:26:37.999Z</time></trkpt><trkpt lat="44.3219119856795" lon="10.780699315460499"><ele>788.4</ele><time>2026-05-02T12:26:38.999Z</time></trkpt><trkpt lat="44.32192381246975" lon="10.780815398262996"><ele>787.1999999999999</ele><time>2026-05-02T12:26:39.999Z</time></trkpt><trkpt lat="44.32195790359647" lon="10.780952689694844"><ele>786.0</ele><time>2026-05-02T12:26:40.999Z</time></trkpt><trkpt lat="44.321990751923686" lon="10.781082716250044"><ele>786.0</ele><time>2026-05-02T12:26:41.999Z</time></trkpt><trkpt lat="44.32202284087229" lon="10.781209315366011"><ele>786.0</ele><time>2026-05-02T12:26:42.999Z</time></trkpt><trkpt lat="44.32206819183203" lon="10.781344167003029"><ele>786.0</ele><time>2026-05-02T12:26:43.999Z</time></trkpt><trkpt lat="44.32212035789142" lon="10.781458893529885"><ele>786.0</ele><time>2026-05-02T12:26:44.999Z</time></trkpt><trkpt lat="44.32218901012402" lon="10.781583444507534"><ele>786.0</ele><time>2026-05-02T12:26:45.999Z</time></trkpt><trkpt lat="44.32226188463697" lon="10.781696667793552"><ele>786.0</ele><time>2026-05-02T12:26:46.999Z</time></trkpt><trkpt lat="44.322328983667994" lon="10.781814279572245"><ele>786.0</ele><time>2026-05-02T12:26:47.999Z</time></trkpt><trkpt lat="44.32236825163189" lon="10.781968800600774"><ele>786.0</ele><time>2026-05-02T12:26:48.999Z</time></trkpt><trkpt lat="44.32241239114222" lon="10.782146021750739"><ele>786.0</ele><time>2026-05-02T12:26:49.999Z</time></trkpt><trkpt lat="44.32247517674103" lon="10.78233924873829"><ele>783.25</ele><time>2026-05-02T12:26:50.999Z</time></trkpt><trkpt lat="44.32251347397712" lon="10.782523060138388"><ele>780.5</ele><time>2026-05-02T12:26:51.999Z</time></trkpt><trkpt lat="44.32256410701174" lon="10.782692332616028"><ele>777.75</ele><time>2026-05-02T12:26:52.999Z</time></trkpt><trkpt lat="44.32261209798748" lon="10.78285280825334"><ele>775.0</ele><time>2026-05-02T12:26:53.999Z</time></trkpt><trkpt lat="44.322654401592445" lon="10.783024140410802"><ele>773.5</ele><time>2026-05-02T12:26:54.999Z</time></trkpt><trkpt lat="44.32268898310344" lon="10.783220876212384"><ele>772.0</ele><time>2026-05-02T12:26:55.999Z</time></trkpt><trkpt lat="44.32272219664208" lon="10.783416850016742"><ele>770.5</ele><time>2026-05-02T12:26:56.999Z</time></trkpt><trkpt lat="44.322762320693045" lon="10.783575521545416"><ele>769.0</ele><time>2026-05-02T12:26:57.999Z</time></trkpt><trkpt lat="44.322820160115846" lon="10.783740637034313"><ele>768.25</ele><time>2026-05-02T12:26:58.999Z</time></trkpt><trkpt lat="44.32287650174694" lon="10.783910017491344"><ele>767.5</ele><time>2026-05-02T12:26:59.999Z</time></trkpt><trkpt lat="44.32292118020589" lon="10.784081115292588"><ele>766.75</ele><time>2026-05-02T12:27:00.999Z</time></trkpt><trkpt lat="44.32296534015412" lon="10.78425715114023"><ele>766.0</ele><time>2026-05-02T12:27:01.999Z</time></trkpt><trkpt lat="44.32301412968122" lon="10.784435824978097"><ele>766.4</ele><time>2026-05-02T12:27:02.999Z</time></trkpt><trkpt lat="44.32305528493648" lon="10.784586087093988"><ele>766.8</ele><time>2026-05-02T12:27:03.999Z</time></trkpt><trkpt lat="44.32309405024006" lon="10.784723060424385"><ele>767.1999999999999</ele><time>2026-05-02T12:27:04.999Z</time></trkpt><trkpt lat="44.32312846500505" lon="10.784855038478367"><ele>767.5999999999999</ele><time>2026-05-02T12:27:05.999Z</time></trkpt><trkpt lat="44.32317063185514" lon="10.784978381823752"><ele>768.0</ele><time>2026-05-02T12:27:06.999Z</time></trkpt><trkpt lat="44.32321843368775" lon="10.785108085758202"><ele>768.5999999999999</ele><time>2026-05-02T12:27:07.999Z</time></trkpt><trkpt lat="44.323274835022026" lon="10.785245549603754"><ele>769.1999999999999</ele><time>2026-05-02T12:27:08.999Z</time></trkpt><trkpt lat="44.32333396313426" lon="10.785350119427028"><ele>769.8</ele><time>2026-05-02T12:27:09.999Z</time></trkpt><trkpt lat="44.32341323616588" lon="10.785450239220822"><ele>770.4</ele><time>2026-05-02T12:27:10.999Z</time></trkpt><trkpt lat="44.32349836336982" lon="10.785533572827985"><ele>771.0</ele><time>2026-05-02T12:27:11.999Z</time></trkpt><trkpt lat="44.32357563860784" lon="10.78559402093364"><ele>771.0</ele><time>2026-05-02T12:27:12.999Z</time></trkpt><trkpt lat="44.32365170518493" lon="10.785655521550538"><ele>771.0</ele><time>2026-05-02T12:27:13.999Z</time></trkpt><trkpt lat="44.32373707610267" lon="10.785734700022644"><ele>771.0</ele><time>2026-05-02T12:27:14.999Z</time></trkpt><trkpt lat="44.32381041569506" lon="10.785868635790417"><ele>771.0</ele><time>2026-05-02T12:27:15.999Z</time></trkpt><trkpt lat="44.32387183264493" lon="10.785968235758588"><ele>771.0</ele><time>2026-05-02T12:27:16.999Z</time></trkpt><trkpt lat="44.32394943362054" lon="10.786055624862838"><ele>768.8</ele><time>2026-05-02T12:27:17.999Z</time></trkpt><trkpt lat="44.324026336449364" lon="10.786172660069994"><ele>766.5999999999999</ele><time>2026-05-02T12:27:18.999Z</time></trkpt><trkpt lat="44.324098773949245" lon="10.786269359205786"><ele>764.4</ele><time>2026-05-02T12:27:19.999Z</time></trkpt><trkpt lat="44.324193998312666" lon="10.786366650331999"><ele>762.2</ele><time>2026-05-02T12:27:20.999Z</time></trkpt><trkpt lat="44.32427791817049" lon="10.786434123763689"><ele>760.0</ele><time>2026-05-02T12:27:21.999Z</time></trkpt><trkpt lat="44.3243786428845" lon="10.786508200277051"><ele>760.0</ele><time>2026-05-02T12:27:22.999Z</time></trkpt><trkpt lat="44.32445193420862" lon="10.786596825122626"><ele>760.0</ele><time>2026-05-02T12:27:23.999Z</time></trkpt><trkpt lat="44.32453670652631" lon="10.78665302569132"><ele>760.0</ele><time>2026-05-02T12:27:24.999Z</time></trkpt><trkpt lat="44.32460029600192" lon="10.786734992233361"><ele>760.0</ele><time>2026-05-02T12:27:25.999Z</time></trkpt><trkpt lat="44.324690596580005" lon="10.786812897820205"><ele>760.0</ele><time>2026-05-02T12:27:26.999Z</time></trkpt><trkpt lat="44.32476678676424" lon="10.786893528413795"><ele>757.0</ele><time>2026-05-02T12:27:27.999Z</time></trkpt><trkpt lat="44.32485064211129" lon="10.786967854570436"><ele>754.0</ele><time>2026-05-02T12:27:28.999Z</time></trkpt><trkpt lat="44.32492667619122" lon="10.78704324887437"><ele>751.0</ele><time>2026-05-02T12:27:29.999Z</time></trkpt><trkpt lat="44.32500259955329" lon="10.787120368028441"><ele>748.0</ele><time>2026-05-02T12:27:30.999Z</time></trkpt><trkpt lat="44.32507812186965" lon="10.787202156798477"><ele>745.0</ele><time>2026-05-02T12:27:31.999Z</time></trkpt><trkpt lat="44.32515410337292" lon="10.787288561528145"><ele>745.0</ele><time>2026-05-02T12:27:32.999Z</time></trkpt><trkpt lat="44.325237045092805" lon="10.787377250377851"><ele>745.0</ele><time>2026-05-02T12:27:33.999Z</time></trkpt><trkpt lat="44.32530290597247" lon="10.787473234936606"><ele>745.0</ele><time>2026-05-02T12:27:34.999Z</time></trkpt><trkpt lat="44.32536054104717" lon="10.787569225105543"><ele>745.0</ele><time>2026-05-02T12:27:35.999Z</time></trkpt><trkpt lat="44.32542740124053" lon="10.787678194522602"><ele>745.0</ele><time>2026-05-02T12:27:36.999Z</time></trkpt><trkpt lat="44.32549171058418" lon="10.7877479351893"><ele>742.2</ele><time>2026-05-02T12:27:37.999Z</time></trkpt><trkpt lat="44.325576636160655" lon="10.787812220853093"><ele>739.4</ele><time>2026-05-02T12:27:38.999Z</time></trkpt><trkpt lat="44.325664906026574" lon="10.7878756678977"><ele>736.5999999999999</ele><time>2026-05-02T12:27:39.999Z</time></trkpt><trkpt lat="44.325751556693916" lon="10.787942176619534"><ele>733.8</ele><time>2026-05-02T12:27:40.999Z</time></trkpt><trkpt lat="44.325820010899214" lon="10.787988106984976"><ele>731.0</ele><time>2026-05-02T12:27:41.999Z</time></trkpt><trkpt lat="44.325903335466926" lon="10.788046037489194"><ele>731.0</ele><time>2026-05-02T12:27:43Z</time></trkpt><trkpt lat="44.32597588524627" lon="10.78809301377927"><ele>731.0</ele><time>2026-05-02T12:27:44Z</time></trkpt><trkpt lat="44.326056703250146" lon="10.788146778768402"><ele>731.0</ele><time>2026-05-02T12:27:45Z</time></trkpt><trkpt lat="44.32613201505944" lon="10.788183349651678"><ele>731.0</ele><time>2026-05-02T12:27:46Z</time></trkpt><trkpt lat="44.32621273009553" lon="10.788201034863945"><ele>731.0</ele><time>2026-05-02T12:27:47Z</time></trkpt><trkpt lat="44.326308340099494" lon="10.7882184430586"><ele>731.0</ele><time>2026-05-02T12:27:48Z</time></trkpt><trkpt lat="44.32645209231273" lon="10.788266207895163"><ele>728.8</ele><time>2026-05-02T12:27:50Z</time></trkpt><trkpt lat="44.32654288995526" lon="10.788301679936588"><ele>726.5999999999999</ele><time>2026-05-02T12:27:51Z</time></trkpt><trkpt lat="44.326678096406994" lon="10.78832830442069"><ele>724.4</ele><time>2026-05-02T12:27:53Z</time></trkpt><trkpt lat="44.32675862126326" lon="10.788332921027372"><ele>722.2</ele><time>2026-05-02T12:27:54Z</time></trkpt><trkpt lat="44.326890532851344" lon="10.788319564278611"><ele>720.0</ele><time>2026-05-02T12:27:56Z</time></trkpt><trkpt lat="44.326954661967086" lon="10.788338923197262"><ele>720.0</ele><time>2026-05-02T12:27:57Z</time></trkpt><trkpt lat="44.32705317647676" lon="10.788339597939265"><ele>720.0</ele><time>2026-05-02T12:27:59Z</time></trkpt><trkpt lat="44.32712441753493" lon="10.78834299078878"><ele>720.0</ele><time>2026-05-02T12:28:01Z</time></trkpt><trkpt lat="44.327149274921126" lon="10.78842587884498"><ele>720.0</ele><time>2026-05-02T12:28:06Z</time></trkpt><trkpt lat="44.32708893639488" lon="10.78848032147657"><ele>720.0</ele><time>2026-05-02T12:28:07Z</time></trkpt><trkpt lat="44.327041410618776" lon="10.788573616366929"><ele>720.0</ele><time>2026-05-02T12:28:08Z</time></trkpt><trkpt lat="44.326987192332545" lon="10.788657506569347"><ele>718.8333333333334</ele><time>2026-05-02T12:28:09Z</time></trkpt><trkpt lat="44.326932556980616" lon="10.788708816794504"><ele>717.6666666666666</ele><time>2026-05-02T12:28:10Z</time></trkpt><trkpt lat="44.326879687546786" lon="10.788799353423412"><ele>716.5</ele><time>2026-05-02T12:28:10.999Z</time></trkpt><trkpt lat="44.326851428240694" lon="10.788915585388589"><ele>715.3333333333333</ele><time>2026-05-02T12:28:11.999Z</time></trkpt><trkpt lat="44.32681077810725" lon="10.789029354246175"><ele>714.1666666666666</ele><time>2026-05-02T12:28:12.999Z</time></trkpt><trkpt lat="44.326772448391836" lon="10.789151302550746"><ele>713.0</ele><time>2026-05-02T12:28:13.999Z</time></trkpt><trkpt lat="44.32673860691663" lon="10.789279576941249"><ele>711.3333333333333</ele><time>2026-05-02T12:28:14.999Z</time></trkpt><trkpt lat="44.32670080060694" lon="10.789389761056265"><ele>709.6666666666666</ele><time>2026-05-02T12:28:15.999Z</time></trkpt><trkpt lat="44.32666021699006" lon="10.789489461977404"><ele>708.0</ele><time>2026-05-02T12:28:16.999Z</time></trkpt><trkpt lat="44.326605236922454" lon="10.789578554806202"><ele>706.3333333333334</ele><time>2026-05-02T12:28:17.999Z</time></trkpt><trkpt lat="44.32654353873492" lon="10.789667014260976"><ele>704.6666666666667</ele><time>2026-05-02T12:28:18.999Z</time></trkpt><trkpt lat="44.32648546749245" lon="10.789738550015448"><ele>703.0</ele><time>2026-05-02T12:28:19.999Z</time></trkpt><trkpt lat="44.32642790990176" lon="10.789818862324205"><ele>702.6666666666667</ele><time>2026-05-02T12:28:20.999Z</time></trkpt><trkpt lat="44.32638134618437" lon="10.789878162471144"><ele>702.3333333333334</ele><time>2026-05-02T12:28:21.999Z</time></trkpt><trkpt lat="44.326332389516566" lon="10.789953769430106"><ele>702.0</ele><time>2026-05-02T12:28:24.999Z</time></trkpt><trkpt lat="44.326280295513335" lon="10.79003457428211"><ele>701.6666666666666</ele><time>2026-05-02T12:28:26.999Z</time></trkpt><trkpt lat="44.32633110372612" lon="10.79019799214536"><ele>701.3333333333333</ele><time>2026-05-02T12:28:27.999Z</time></trkpt><trkpt lat="44.32631119247924" lon="10.790322161199583"><ele>701.0</ele><time>2026-05-02T12:28:29.999Z</time></trkpt><trkpt lat="44.32628456656496" lon="10.79045498004174"><ele>701.0</ele><time>2026-05-02T12:28:31.999Z</time></trkpt><trkpt lat="44.326254003750456" lon="10.790567229754616"><ele>701.0</ele><time>2026-05-02T12:28:33.999Z</time></trkpt><trkpt lat="44.32628546832505" lon="10.790697369316607"><ele>701.0</ele><time>2026-05-02T12:28:35.999Z</time></trkpt><trkpt lat="44.32630165144676" lon="10.790863369927214"><ele>701.0</ele><time>2026-05-02T12:28:37.999Z</time></trkpt><trkpt lat="44.32628423228131" lon="10.790987861352441"><ele>701.0</ele><time>2026-05-02T12:28:39.999Z</time></trkpt><trkpt lat="44.326265785760995" lon="10.791127710668642"><ele>696.8</ele><time>2026-05-02T12:28:41.999Z</time></trkpt><trkpt lat="44.3262231040236" lon="10.791233079021808"><ele>692.5999999999999</ele><time>2026-05-02T12:28:43.999Z</time></trkpt><trkpt lat="44.32615271821828" lon="10.791289790490847"><ele>688.4</ele><time>2026-05-02T12:28:45.999Z</time></trkpt><trkpt lat="44.32608647453464" lon="10.79134849553284"><ele>684.2</ele><time>2026-05-02T12:28:46.999Z</time></trkpt><trkpt lat="44.32599140703372" lon="10.791448511965122"><ele>680.0</ele><time>2026-05-02T12:28:48.999Z</time></trkpt><trkpt lat="44.325890590702464" lon="10.791528510341475"><ele>680.0</ele><time>2026-05-02T12:28:50.999Z</time></trkpt><trkpt lat="44.32578780043882" lon="10.791571960016503"><ele>680.0</ele><time>2026-05-02T12:28:52.999Z</time></trkpt><trkpt lat="44.325679871432726" lon="10.791617127990525"><ele>680.0</ele><time>2026-05-02T12:28:54.999Z</time></trkpt><trkpt lat="44.32556195217724" lon="10.791638117503346"><ele>680.0</ele><time>2026-05-02T12:28:56.999Z</time></trkpt><trkpt lat="44.32550053128776" lon="10.791660480807371"><ele>680.0</ele><time>2026-05-02T12:28:57.999Z</time></trkpt><trkpt lat="44.32541750848622" lon="10.79169642236698"><ele>680.0</ele><time>2026-05-02T12:28:59.999Z</time></trkpt><trkpt lat="44.32538646526413" lon="10.791811612383265"><ele>680.0</ele><time>2026-05-02T12:29:01.999Z</time></trkpt><trkpt lat="44.325388070070375" lon="10.791930879650888"><ele>680.0</ele><time>2026-05-02T12:29:03.999Z</time></trkpt><trkpt lat="44.32543313347698" lon="10.792063865236958"><ele>680.0</ele><time>2026-05-02T12:29:05.999Z</time></trkpt><trkpt lat="44.325494752307705" lon="10.792146569974427"><ele>680.0</ele><time>2026-05-02T12:29:07.999Z</time></trkpt><trkpt lat="44.32557508434336" lon="10.792205047935505"><ele>676.8</ele><time>2026-05-02T12:29:09.999Z</time></trkpt><trkpt lat="44.325653202244354" lon="10.792297535352283"><ele>673.6</ele><time>2026-05-02T12:29:11.999Z</time></trkpt><trkpt lat="44.32574925656854" lon="10.792351119063628"><ele>670.4000000000001</ele><time>2026-05-02T12:29:13.999Z</time></trkpt><trkpt lat="44.32581250313719" lon="10.792434593197605"><ele>667.2</ele><time>2026-05-02T12:29:15.999Z</time></trkpt><trkpt lat="44.325849164731004" lon="10.792566011239924"><ele>664.0</ele><time>2026-05-02T12:29:17.999Z</time></trkpt><trkpt lat="44.325857759825475" lon="10.792688858890665"><ele>661.2</ele><time>2026-05-02T12:29:19.999Z</time></trkpt><trkpt lat="44.325854207581926" lon="10.792830089469765"><ele>658.4000000000001</ele><time>2026-05-02T12:29:21.999Z</time></trkpt><trkpt lat="44.32583224720016" lon="10.79295924501257"><ele>655.6</ele><time>2026-05-02T12:29:23.999Z</time></trkpt><trkpt lat="44.325780127891456" lon="10.793076100235487"><ele>652.8</ele><time>2026-05-02T12:29:25.999Z</time></trkpt><trkpt lat="44.32571621039279" lon="10.793191551522662"><ele>650.0</ele><time>2026-05-02T12:29:27.999Z</time></trkpt><trkpt lat="44.32561849989278" lon="10.793232842566816"><ele>649.6</ele><time>2026-05-02T12:29:29.999Z</time></trkpt><trkpt lat="44.32553286560211" lon="10.793278987411325"><ele>649.2</ele><time>2026-05-02T12:29:31.999Z</time></trkpt><trkpt lat="44.32547019273651" lon="10.793298514352857"><ele>648.8</ele><time>2026-05-02T12:29:32.999Z</time></trkpt><trkpt lat="44.32540978110916" lon="10.79336086512732"><ele>648.4</ele><time>2026-05-02T12:29:33.999Z</time></trkpt><trkpt lat="44.32535873914356" lon="10.793440507415324"><ele>648.0</ele><time>2026-05-02T12:29:34.999Z</time></trkpt><trkpt lat="44.32529945118226" lon="10.793623173893097"><ele>646.4285714285714</ele><time>2026-05-02T12:29:36.999Z</time></trkpt><trkpt lat="44.32527918646381" lon="10.793722239416768"><ele>644.8571428571429</ele><time>2026-05-02T12:29:37.999Z</time></trkpt><trkpt lat="44.325263228404125" lon="10.793824213387913"><ele>643.2857142857142</ele><time>2026-05-02T12:29:38.999Z</time></trkpt><trkpt lat="44.32525603854089" lon="10.793918575543254"><ele>641.7142857142858</ele><time>2026-05-02T12:29:39.999Z</time></trkpt><trkpt lat="44.3252475791043" lon="10.794019442433427"><ele>640.1428571428571</ele><time>2026-05-02T12:29:40.999Z</time></trkpt><trkpt lat="44.325241385083125" lon="10.79411261954405"><ele>638.5714285714286</ele><time>2026-05-02T12:29:41.999Z</time></trkpt><trkpt lat="44.32523575419466" lon="10.794210449759369"><ele>637.0</ele><time>2026-05-02T12:29:42.999Z</time></trkpt><trkpt lat="44.32522683562002" lon="10.794336280112594"><ele>634.6</ele><time>2026-05-02T12:29:44.999Z</time></trkpt><trkpt lat="44.32522938601361" lon="10.794493096390317"><ele>632.2</ele><time>2026-05-02T12:29:46.999Z</time></trkpt><trkpt lat="44.325256165846135" lon="10.794612592031672"><ele>629.8</ele><time>2026-05-02T12:29:47.999Z</time></trkpt><trkpt lat="44.32528448248379" lon="10.794697163302686"><ele>627.4</ele><time>2026-05-02T12:29:48.999Z</time></trkpt><trkpt lat="44.32534238333038" lon="10.794824199577635"><ele>625.0</ele><time>2026-05-02T12:29:49.999Z</time></trkpt><trkpt lat="44.32539438264083" lon="10.794923536006541"><ele>625.0</ele><time>2026-05-02T12:29:50.999Z</time></trkpt><trkpt lat="44.32545031583742" lon="10.795027257950919"><ele>625.0</ele><time>2026-05-02T12:29:51.999Z</time></trkpt><trkpt lat="44.32552306812282" lon="10.79515706324552"><ele>625.0</ele><time>2026-05-02T12:29:53.999Z</time></trkpt><trkpt lat="44.32558051088612" lon="10.795294320120814"><ele>625.0</ele><time>2026-05-02T12:29:55.999Z</time></trkpt><trkpt lat="44.32560631719826" lon="10.795375572832747"><ele>625.0</ele><time>2026-05-02T12:29:56.999Z</time></trkpt><trkpt lat="44.32564915612566" lon="10.795549851662543"><ele>622.0</ele><time>2026-05-02T12:29:58.999Z</time></trkpt><trkpt lat="44.32568189076446" lon="10.795663014210682"><ele>619.0</ele><time>2026-05-02T12:29:59.999Z</time></trkpt><trkpt lat="44.32573620285886" lon="10.795765858180246"><ele>616.0</ele><time>2026-05-02T12:30:01Z</time></trkpt><trkpt lat="44.325802011266205" lon="10.795835413206447"><ele>613.0</ele><time>2026-05-02T12:30:02Z</time></trkpt><trkpt lat="44.32588209542469" lon="10.795881852673396"><ele>610.0</ele><time>2026-05-02T12:30:03Z</time></trkpt><trkpt lat="44.3260072600416" lon="10.795747826179875"><ele>610.0</ele><time>2026-05-02T12:30:04Z</time></trkpt><trkpt lat="44.326079007448705" lon="10.795777245232555"><ele>610.0</ele><time>2026-05-02T12:30:04.999Z</time></trkpt><trkpt lat="44.32616708007824" lon="10.795848693486963"><ele>610.0</ele><time>2026-05-02T12:30:06.999Z</time></trkpt><trkpt lat="44.326244025961266" lon="10.795881573652137"><ele>610.0</ele><time>2026-05-02T12:30:08.999Z</time></trkpt><trkpt lat="44.326337900502196" lon="10.795835900215966"><ele>610.0</ele><time>2026-05-02T12:30:11.999Z</time></trkpt><trkpt lat="44.32643672246166" lon="10.795723982143103"><ele>611.8333333333334</ele><time>2026-05-02T12:30:13.999Z</time></trkpt><trkpt lat="44.32649359014973" lon="10.795660669998897"><ele>613.6666666666667</ele><time>2026-05-02T12:30:14.999Z</time></trkpt><trkpt lat="44.32654897400468" lon="10.795610617163565"><ele>615.5</ele><time>2026-05-02T12:30:15.999Z</time></trkpt><trkpt lat="44.326605819597" lon="10.795546563939226"><ele>617.3333333333334</ele><time>2026-05-02T12:30:16.999Z</time></trkpt><trkpt lat="44.32667807763429" lon="10.795532610684209"><ele>619.1666666666666</ele><time>2026-05-02T12:30:17.999Z</time></trkpt><trkpt lat="44.32676293952215" lon="10.795631275193102"><ele>621.0</ele><time>2026-05-02T12:30:18.999Z</time></trkpt><trkpt lat="44.326872754692666" lon="10.795610134383388"><ele>621.0</ele><time>2026-05-02T12:30:19.999Z</time></trkpt><trkpt lat="44.32697025576403" lon="10.79557741542066"><ele>621.0</ele><time>2026-05-02T12:30:20.999Z</time></trkpt><trkpt lat="44.32704239850761" lon="10.795552206922993"><ele>621.0</ele><time>2026-05-02T12:30:21.999Z</time></trkpt><trkpt lat="44.327172767250936" lon="10.795517321406177"><ele>621.0</ele><time>2026-05-02T12:30:23.999Z</time></trkpt><trkpt lat="44.32723160975964" lon="10.795603831172961"><ele>621.0</ele><time>2026-05-02T12:30:24.999Z</time></trkpt><trkpt lat="44.327327935272194" lon="10.795626175484115"><ele>623.8</ele><time>2026-05-02T12:30:25.999Z</time></trkpt><trkpt lat="44.327407335940215" lon="10.795589930528887"><ele>626.6</ele><time>2026-05-02T12:30:26.999Z</time></trkpt><trkpt lat="44.327487287930786" lon="10.79553677743895"><ele>629.4</ele><time>2026-05-02T12:30:27.999Z</time></trkpt><trkpt lat="44.32757398946029" lon="10.795461396468257"><ele>632.2</ele><time>2026-05-02T12:30:28.999Z</time></trkpt><trkpt lat="44.3276616631347" lon="10.795372689207426"><ele>635.0</ele><time>2026-05-02T12:30:29.999Z</time></trkpt><trkpt lat="44.327731580678005" lon="10.79528469608782"><ele>635.0</ele><time>2026-05-02T12:30:30.999Z</time></trkpt><trkpt lat="44.327806945272705" lon="10.79522106767137"><ele>635.0</ele><time>2026-05-02T12:30:31.999Z</time></trkpt><trkpt lat="44.32786714507196" lon="10.795157481858704"><ele>635.0</ele><time>2026-05-02T12:30:32.999Z</time></trkpt><trkpt lat="44.32791900572866" lon="10.795102704208396"><ele>635.0</ele><time>2026-05-02T12:30:33.999Z</time></trkpt><trkpt lat="44.32798664946052" lon="10.795032598058052"><ele>635.0</ele><time>2026-05-02T12:30:34.999Z</time></trkpt><trkpt lat="44.328039388806054" lon="10.794964432591136"><ele>635.0</ele><time>2026-05-02T12:30:35.999Z</time></trkpt><trkpt lat="44.328102984741086" lon="10.794936724415058"><ele>630.75</ele><time>2026-05-02T12:30:36.999Z</time></trkpt><trkpt lat="44.328225127312855" lon="10.794993214122064"><ele>626.5</ele><time>2026-05-02T12:30:38.999Z</time></trkpt><trkpt lat="44.32833548683256" lon="10.795013660881905"><ele>622.25</ele><time>2026-05-02T12:30:39.999Z</time></trkpt><trkpt lat="44.32846202477583" lon="10.795009132555275"><ele>618.0</ele><time>2026-05-02T12:30:40.999Z</time></trkpt><trkpt lat="44.32857373236828" lon="10.795040847204925"><ele>618.0</ele><time>2026-05-02T12:30:41.999Z</time></trkpt><trkpt lat="44.32863728908195" lon="10.795066156532863"><ele>618.0</ele><time>2026-05-02T12:30:42.999Z</time></trkpt><trkpt lat="44.32871441051442" lon="10.795119530659061"><ele>618.0</ele><time>2026-05-02T12:30:44.999Z</time></trkpt><trkpt lat="44.32873444646431" lon="10.795248171371842"><ele>618.0</ele><time>2026-05-02T12:30:46.999Z</time></trkpt><trkpt lat="44.32880256177291" lon="10.795348788906507"><ele>618.0</ele><time>2026-05-02T12:30:48.999Z</time></trkpt><trkpt lat="44.3288658959227" lon="10.795455794311533"><ele>618.0</ele><time>2026-05-02T12:30:50.999Z</time></trkpt><trkpt lat="44.328942900986405" lon="10.795555016141034"><ele>622.25</ele><time>2026-05-02T12:30:52.999Z</time></trkpt><trkpt lat="44.32901970030851" lon="10.79565671470705"><ele>626.5</ele><time>2026-05-02T12:30:54.999Z</time></trkpt><trkpt lat="44.32893436172046" lon="10.795949893313901"><ele>630.75</ele><time>2026-05-02T12:30:56.999Z</time></trkpt><trkpt lat="44.32894673871744" lon="10.796058020604635"><ele>635.0</ele><time>2026-05-02T12:30:57.999Z</time></trkpt><trkpt lat="44.329022042580384" lon="10.796192898917726"><ele>637.6</ele><time>2026-05-02T12:30:59.999Z</time></trkpt><trkpt lat="44.32906259444309" lon="10.79633271992932"><ele>640.2</ele><time>2026-05-02T12:31:01.999Z</time></trkpt><trkpt lat="44.32908713847812" lon="10.796471799164362"><ele>642.8</ele><time>2026-05-02T12:31:03.999Z</time></trkpt><trkpt lat="44.329069678412594" lon="10.796559958479161"><ele>645.4</ele><time>2026-05-02T12:31:04.999Z</time></trkpt><trkpt lat="44.329041334220214" lon="10.796657199136957"><ele>648.0</ele><time>2026-05-02T12:31:05.999Z</time></trkpt><trkpt lat="44.32898922151262" lon="10.796774291402304"><ele>649.1666666666666</ele><time>2026-05-02T12:31:06.999Z</time></trkpt><trkpt lat="44.32898225604944" lon="10.79687038307783"><ele>650.3333333333334</ele><time>2026-05-02T12:31:07.999Z</time></trkpt><trkpt lat="44.328972567897324" lon="10.796961075867365"><ele>651.5</ele><time>2026-05-02T12:31:08.999Z</time></trkpt><trkpt lat="44.328952735793116" lon="10.797054913601459"><ele>652.6666666666667</ele><time>2026-05-02T12:31:09.999Z</time></trkpt><trkpt lat="44.32894863699451" lon="10.79722125177084"><ele>653.8333333333334</ele><time>2026-05-02T12:31:11.999Z</time></trkpt><trkpt lat="44.328970636153734" lon="10.797305069525047"><ele>655.0</ele><time>2026-05-02T12:31:12.999Z</time></trkpt><trkpt lat="44.329024157258814" lon="10.797447827893034"><ele>655.0</ele><time>2026-05-02T12:31:14.999Z</time></trkpt><trkpt lat="44.329083056055254" lon="10.797504980719385"><ele>655.0</ele><time>2026-05-02T12:31:15.999Z</time></trkpt><trkpt lat="44.32916988434265" lon="10.797544782867469"><ele>655.0</ele><time>2026-05-02T12:31:17.999Z</time></trkpt><trkpt lat="44.32924449600298" lon="10.797584517093235"><ele>655.0</ele><time>2026-05-02T12:31:19.999Z</time></trkpt><trkpt lat="44.32928147068171" lon="10.797656695657452"><ele>655.0</ele><time>2026-05-02T12:31:21.999Z</time></trkpt><trkpt lat="44.32926151446632" lon="10.797761832343173"><ele>655.0</ele><time>2026-05-02T12:31:23.999Z</time></trkpt><trkpt lat="44.329276399848105" lon="10.797884638164236"><ele>656.6</ele><time>2026-05-02T12:31:25.999Z</time></trkpt><trkpt lat="44.329245974049456" lon="10.79803930453702"><ele>658.2</ele><time>2026-05-02T12:31:27.999Z</time></trkpt><trkpt lat="44.32920511555578" lon="10.798181413985493"><ele>659.8</ele><time>2026-05-02T12:31:29.999Z</time></trkpt><trkpt lat="44.32915605397563" lon="10.798294612526432"><ele>661.4</ele><time>2026-05-02T12:31:31.999Z</time></trkpt><trkpt lat="44.329101268962724" lon="10.798381721000194"><ele>663.0</ele><time>2026-05-02T12:31:33.999Z</time></trkpt><trkpt lat="44.329024051877845" lon="10.79843879318669"><ele>663.0</ele><time>2026-05-02T12:31:35.999Z</time></trkpt><trkpt lat="44.32895821567624" lon="10.798483563874724"><ele>663.0</ele><time>2026-05-02T12:31:37.999Z</time></trkpt><trkpt lat="44.32890020506279" lon="10.798541155499342"><ele>663.0</ele><time>2026-05-02T12:31:39.999Z</time></trkpt><trkpt lat="44.32882848246316" lon="10.798619516480544"><ele>663.0</ele><time>2026-05-02T12:31:41.999Z</time></trkpt><trkpt lat="44.328797335885056" lon="10.7986987812149"><ele>663.0</ele><time>2026-05-02T12:31:43.999Z</time></trkpt><trkpt lat="44.32873174823109" lon="10.798735277562589"><ele>663.0</ele><time>2026-05-02T12:31:45.999Z</time></trkpt><trkpt lat="44.328663590797376" lon="10.798825773775695"><ele>667.8333333333334</ele><time>2026-05-02T12:31:47.999Z</time></trkpt><trkpt lat="44.32856327356892" lon="10.798901328423428"><ele>672.6666666666666</ele><time>2026-05-02T12:31:49.999Z</time></trkpt><trkpt lat="44.328500984893104" lon="10.79900657553331"><ele>677.5</ele><time>2026-05-02T12:31:51.999Z</time></trkpt><trkpt lat="44.32855768023182" lon="10.79906138176737"><ele>682.3333333333333</ele><time>2026-05-02T12:31:55.999Z</time></trkpt><trkpt lat="44.32863603004806" lon="10.79905201667422"><ele>687.1666666666666</ele><time>2026-05-02T12:31:57.999Z</time></trkpt><trkpt lat="44.32870993584697" lon="10.799111383578316"><ele>692.0</ele><time>2026-05-02T12:32:00.999Z</time></trkpt><trkpt lat="44.328634393436005" lon="10.799077420823343"><ele>692.0</ele><time>2026-05-02T12:32:20.999Z</time></trkpt><trkpt lat="44.32856652565564" lon="10.79906659060104"><ele>692.0</ele><time>2026-05-02T12:32:34.999Z</time></trkpt><trkpt lat="44.32849353898722" lon="10.799034391753286"><ele>692.0</ele><time>2026-05-02T12:32:41.999Z</time></trkpt><trkpt lat="44.32842155512384" lon="10.799051370696258"><ele>692.0</ele><time>2026-05-02T12:33:08.999Z</time></trkpt><trkpt lat="44.328354405352975" lon="10.799069547463489"><ele>692.0</ele><time>2026-05-02T12:33:11.999Z</time></trkpt><trkpt lat="44.32827938605555" lon="10.799100261039209"><ele>692.0</ele><time>2026-05-02T12:33:13.999Z</time></trkpt><trkpt lat="44.3282173305853" lon="10.799115544890874"><ele>692.0</ele><time>2026-05-02T12:33:16.999Z</time></trkpt><trkpt lat="44.328300307112926" lon="10.79908098937321"><ele>692.0</ele><time>2026-05-02T12:35:13.999Z</time></trkpt><trkpt lat="44.3283729999752" lon="10.799049403519128"><ele>692.0</ele><time>2026-05-02T12:35:16.999Z</time></trkpt><trkpt lat="44.32847250087335" lon="10.799025996184644"><ele>692.0</ele><time>2026-05-02T12:35:31.999Z</time></trkpt><trkpt lat="44.32852815002122" lon="10.79894168285193"><ele>692.0</ele><time>2026-05-02T12:35:33.999Z</time></trkpt><trkpt lat="44.32856912432247" lon="10.798873345124115"><ele>692.0</ele><time>2026-05-02T12:35:36.999Z</time></trkpt><trkpt lat="44.32864440181139" lon="10.798823839956977"><ele>692.0</ele><time>2026-05-02T12:35:41.999Z</time></trkpt><trkpt lat="44.32871047592792" lon="10.798774591790862"><ele>692.0</ele><time>2026-05-02T12:35:44.999Z</time></trkpt><trkpt lat="44.32874866999948" lon="10.798703950514216"><ele>692.0</ele><time>2026-05-02T12:35:47.999Z</time></trkpt><trkpt lat="44.32880698553624" lon="10.798629243300063"><ele>692.0</ele><time>2026-05-02T12:35:50.999Z</time></trkpt><trkpt lat="44.328873684469016" lon="10.79856655528256"><ele>692.0</ele><time>2026-05-02T12:35:53.999Z</time></trkpt><trkpt lat="44.328923604023885" lon="10.798508794304905"><ele>692.0</ele><time>2026-05-02T12:35:55.999Z</time></trkpt><trkpt lat="44.32897828418743" lon="10.798452026929375"><ele>692.0</ele><time>2026-05-02T12:35:58.999Z</time></trkpt><trkpt lat="44.32902857117145" lon="10.798363883120743"><ele>692.0</ele><time>2026-05-02T12:36:21.999Z</time></trkpt><trkpt lat="44.32909693070457" lon="10.798330593472524"><ele>687.8571428571428</ele><time>2026-05-02T12:36:23.999Z</time></trkpt><trkpt lat="44.32916390987433" lon="10.798254865675467"><ele>683.7142857142858</ele><time>2026-05-02T12:36:25.999Z</time></trkpt><trkpt lat="44.32919653042256" lon="10.798157211023181"><ele>679.5714285714286</ele><time>2026-05-02T12:36:28.999Z</time></trkpt><trkpt lat="44.32921963747537" lon="10.798068263270027"><ele>675.4285714285713</ele><time>2026-05-02T12:36:31.999Z</time></trkpt><trkpt lat="44.329250925047056" lon="10.797991544906253"><ele>671.2857142857142</ele><time>2026-05-02T12:36:33.999Z</time></trkpt><trkpt lat="44.32925151146912" lon="10.797890303683905"><ele>667.1428571428571</ele><time>2026-05-02T12:36:36.999Z</time></trkpt><trkpt lat="44.32927315302434" lon="10.797796224121164"><ele>663.0</ele><time>2026-05-02T12:36:39.999Z</time></trkpt><trkpt lat="44.32925267055286" lon="10.797706485879136"><ele>663.0</ele><time>2026-05-02T12:36:43.999Z</time></trkpt><trkpt lat="44.329300990953186" lon="10.797620528884213"><ele>663.0</ele><time>2026-05-02T12:36:59.999Z</time></trkpt><trkpt lat="44.32935922932848" lon="10.797698465724704"><ele>663.0</ele><time>2026-05-02T12:37:02.999Z</time></trkpt><trkpt lat="44.32944016363947" lon="10.797712890463046"><ele>663.0</ele><time>2026-05-02T12:37:05.999Z</time></trkpt><trkpt lat="44.32949867761867" lon="10.79778567522161"><ele>663.0</ele><time>2026-05-02T12:37:08.999Z</time></trkpt><trkpt lat="44.32957796438396" lon="10.797848445540268"><ele>663.0</ele><time>2026-05-02T12:38:32Z</time></trkpt><trkpt lat="44.329651170944025" lon="10.797936075488936"><ele>663.0</ele><time>2026-05-02T12:38:33.999Z</time></trkpt><trkpt lat="44.329695517988505" lon="10.798014102546356"><ele>663.0</ele><time>2026-05-02T12:38:35.999Z</time></trkpt><trkpt lat="44.329770784108334" lon="10.798112179057181"><ele>663.0</ele><time>2026-05-02T12:38:37.999Z</time></trkpt><trkpt lat="44.32981871003552" lon="10.798022598002577"><ele>663.0</ele><time>2026-05-02T12:38:40.999Z</time></trkpt><trkpt lat="44.32975899679297" lon="10.797866072555335"><ele>663.0</ele><time>2026-05-02T12:38:42.999Z</time></trkpt><trkpt lat="44.32972482237194" lon="10.79769446077591"><ele>661.4</ele><time>2026-05-02T12:38:44.999Z</time></trkpt><trkpt lat="44.32971096094624" lon="10.797607779028171"><ele>659.8</ele><time>2026-05-02T12:38:45.999Z</time></trkpt><trkpt lat="44.32970876806427" lon="10.797471661893908"><ele>658.2</ele><time>2026-05-02T12:38:47.999Z</time></trkpt><trkpt lat="44.32976452080223" lon="10.797364059961172"><ele>656.6</ele><time>2026-05-02T12:38:49.999Z</time></trkpt><trkpt lat="44.32984082087201" lon="10.797224410603523"><ele>655.0</ele><time>2026-05-02T12:38:51.999Z</time></trkpt><trkpt lat="44.3299236522843" lon="10.797180870495481"><ele>658.6</ele><time>2026-05-02T12:38:53.999Z</time></trkpt><trkpt lat="44.33000345581363" lon="10.79711028409152"><ele>662.2</ele><time>2026-05-02T12:38:54.999Z</time></trkpt><trkpt lat="44.33010882151877" lon="10.796998876157646"><ele>665.8</ele><time>2026-05-02T12:38:56.999Z</time></trkpt><trkpt lat="44.33014644404499" lon="10.796927092986765"><ele>669.4</ele><time>2026-05-02T12:38:57.999Z</time></trkpt><trkpt lat="44.330198293274584" lon="10.79685441606944"><ele>673.0</ele><time>2026-05-02T12:38:58.999Z</time></trkpt><trkpt lat="44.330306543508996" lon="10.79684692247002"><ele>673.0</ele><time>2026-05-02T12:39:21.999Z</time></trkpt><trkpt lat="44.33037572362433" lon="10.796857347573457"><ele>673.0</ele><time>2026-05-02T12:39:22.999Z</time></trkpt><trkpt lat="44.33044694626596" lon="10.796837960983174"><ele>673.0</ele><time>2026-05-02T12:39:24.999Z</time></trkpt><trkpt lat="44.33053426357493" lon="10.79683525173317"><ele>673.0</ele><time>2026-05-02T12:39:26.999Z</time></trkpt><trkpt lat="44.3306091634576" lon="10.79680046025716"><ele>673.0</ele><time>2026-05-02T12:39:29.999Z</time></trkpt><trkpt lat="44.33067821444329" lon="10.796844197352486"><ele>673.0</ele><time>2026-05-02T12:39:31.999Z</time></trkpt><trkpt lat="44.33076182001233" lon="10.796842544480446"><ele>677.5</ele><time>2026-05-02T12:39:33.999Z</time></trkpt><trkpt lat="44.330853532405534" lon="10.796922946174606"><ele>682.0</ele><time>2026-05-02T12:39:35.999Z</time></trkpt><trkpt lat="44.330931551584854" lon="10.796952118179563"><ele>686.5</ele><time>2026-05-02T12:39:38.999Z</time></trkpt><trkpt lat="44.33099123031557" lon="10.797023194729508"><ele>691.0</ele><time>2026-05-02T12:39:41.999Z</time></trkpt><trkpt lat="44.331064081463104" lon="10.797112997954947"><ele>695.5</ele><time>2026-05-02T12:39:43.999Z</time></trkpt><trkpt lat="44.331127267135585" lon="10.797130283577427"><ele>700.0</ele><time>2026-05-02T12:39:45.999Z</time></trkpt><trkpt lat="44.33120363210299" lon="10.797193141122793"><ele>700.0</ele><time>2026-05-02T12:39:47.999Z</time></trkpt><trkpt lat="44.33128273964678" lon="10.797252839640029"><ele>700.0</ele><time>2026-05-02T12:39:49.999Z</time></trkpt><trkpt lat="44.33135141483746" lon="10.797327749911432"><ele>700.0</ele><time>2026-05-02T12:39:51.999Z</time></trkpt><trkpt lat="44.33138462465837" lon="10.797429806138675"><ele>700.0</ele><time>2026-05-02T12:39:53.999Z</time></trkpt><trkpt lat="44.33144309107448" lon="10.797553944584486"><ele>700.0</ele><time>2026-05-02T12:40:11.999Z</time></trkpt><trkpt lat="44.331524253833344" lon="10.797649386778312"><ele>704.0</ele><time>2026-05-02T12:40:13.999Z</time></trkpt><trkpt lat="44.33160178311567" lon="10.797722110084026"><ele>708.0</ele><time>2026-05-02T12:40:15.999Z</time></trkpt><trkpt lat="44.33167563808437" lon="10.797809659954309"><ele>712.0</ele><time>2026-05-02T12:40:17.999Z</time></trkpt><trkpt lat="44.331729174142" lon="10.79785772148708"><ele>716.0</ele><time>2026-05-02T12:40:18.999Z</time></trkpt><trkpt lat="44.33179207687346" lon="10.797959482275774"><ele>720.0</ele><time>2026-05-02T12:40:20.999Z</time></trkpt><trkpt lat="44.33186800875485" lon="10.798009319437387"><ele>724.0</ele><time>2026-05-02T12:40:45.999Z</time></trkpt><trkpt lat="44.331937050622365" lon="10.798097508559142"><ele>724.0</ele><time>2026-05-02T12:40:47.999Z</time></trkpt><trkpt lat="44.331989234556076" lon="10.79816535493614"><ele>724.0</ele><time>2026-05-02T12:40:48.999Z</time></trkpt><trkpt lat="44.33208455289458" lon="10.798225753795567"><ele>724.0</ele><time>2026-05-02T12:40:50.999Z</time></trkpt><trkpt lat="44.332228223321096" lon="10.798193984827353"><ele>724.0</ele><time>2026-05-02T12:40:52.999Z</time></trkpt><trkpt lat="44.332322098869554" lon="10.798218017278714"><ele>724.0</ele><time>2026-05-02T12:40:53.999Z</time></trkpt><trkpt lat="44.33239633144601" lon="10.798248152334548"><ele>726.1666666666667</ele><time>2026-05-02T12:40:54.999Z</time></trkpt><trkpt lat="44.33246292048749" lon="10.798265137582138"><ele>728.3333333333334</ele><time>2026-05-02T12:40:55.999Z</time></trkpt><trkpt lat="44.33253134484012" lon="10.798258939215144"><ele>730.5</ele><time>2026-05-02T12:40:56.999Z</time></trkpt><trkpt lat="44.332643254713915" lon="10.79828046983781"><ele>732.6666666666666</ele><time>2026-05-02T12:40:58.999Z</time></trkpt><trkpt lat="44.33270807307431" lon="10.798302749946478"><ele>734.8333333333333</ele><time>2026-05-02T12:40:59.999Z</time></trkpt><trkpt lat="44.33279595740072" lon="10.798318061494943"><ele>737.0</ele><time>2026-05-02T12:41:00.999Z</time></trkpt><trkpt lat="44.33289891609909" lon="10.79831808040971"><ele>737.0</ele><time>2026-05-02T12:41:02.999Z</time></trkpt><trkpt lat="44.33296311953336" lon="10.798347241349296"><ele>737.0</ele><time>2026-05-02T12:41:03.999Z</time></trkpt><trkpt lat="44.33304448730005" lon="10.798401656895411"><ele>737.0</ele><time>2026-05-02T12:41:05.999Z</time></trkpt><trkpt lat="44.333112972929314" lon="10.798389046970046"><ele>737.0</ele><time>2026-05-02T12:41:07.999Z</time></trkpt><trkpt lat="44.33320655718192" lon="10.798364881470528"><ele>737.0</ele><time>2026-05-02T12:41:09.999Z</time></trkpt><trkpt lat="44.333271945241286" lon="10.79846705922822"><ele>737.0</ele><time>2026-05-02T12:41:12.999Z</time></trkpt><trkpt lat="44.33324161172463" lon="10.798579152787074"><ele>738.3333333333333</ele><time>2026-05-02T12:41:14.999Z</time></trkpt><trkpt lat="44.33324666412026" lon="10.79869000042647"><ele>739.6666666666666</ele><time>2026-05-02T12:41:16.999Z</time></trkpt><trkpt lat="44.33324215481068" lon="10.798852671976833"><ele>741.0</ele><time>2026-05-02T12:41:18.999Z</time></trkpt><trkpt lat="44.333239655203634" lon="10.798955080334345"><ele>742.3333333333334</ele><time>2026-05-02T12:41:19.999Z</time></trkpt><trkpt lat="44.333217203941324" lon="10.799086936307335"><ele>743.6666666666667</ele><time>2026-05-02T12:41:20.999Z</time></trkpt><trkpt lat="44.33321270710047" lon="10.79917648333234"><ele>745.0</ele><time>2026-05-02T12:41:21.999Z</time></trkpt><trkpt lat="44.333215372610915" lon="10.799282789363353"><ele>743.1666666666667</ele><time>2026-05-02T12:41:23.999Z</time></trkpt><trkpt lat="44.33320787244414" lon="10.799377338768071"><ele>741.3333333333334</ele><time>2026-05-02T12:41:24.999Z</time></trkpt><trkpt lat="44.33319859734415" lon="10.799525761644935"><ele>739.5</ele><time>2026-05-02T12:41:26.999Z</time></trkpt><trkpt lat="44.33317885867644" lon="10.799614235432982"><ele>737.6666666666666</ele><time>2026-05-02T12:41:27.999Z</time></trkpt><trkpt lat="44.33316425109406" lon="10.799771764826833"><ele>735.8333333333333</ele><time>2026-05-02T12:41:29.999Z</time></trkpt><trkpt lat="44.33317845918196" lon="10.799891969427959"><ele>734.0</ele><time>2026-05-02T12:41:31.999Z</time></trkpt><trkpt lat="44.33316151796651" lon="10.800033327465624"><ele>733.8000000000001</ele><time>2026-05-02T12:41:33.999Z</time></trkpt><trkpt lat="44.33317460582245" lon="10.80018525765964"><ele>733.6</ele><time>2026-05-02T12:41:35.999Z</time></trkpt><trkpt lat="44.33317057543331" lon="10.800312580953142"><ele>733.4</ele><time>2026-05-02T12:41:37.999Z</time></trkpt><trkpt lat="44.3331249857742" lon="10.800476988549333"><ele>733.2</ele><time>2026-05-02T12:41:39.999Z</time></trkpt><trkpt lat="44.3330984908424" lon="10.800562646534424"><ele>733.0</ele><time>2026-05-02T12:41:40.999Z</time></trkpt><trkpt lat="44.333065226016416" lon="10.800670940815289"><ele>734.0</ele><time>2026-05-02T12:41:42.999Z</time></trkpt><trkpt lat="44.333048623713005" lon="10.800869315091765"><ele>735.0</ele><time>2026-05-02T12:41:44.999Z</time></trkpt><trkpt lat="44.3330241934648" lon="10.80096539804326"><ele>736.0</ele><time>2026-05-02T12:41:45.999Z</time></trkpt><trkpt lat="44.33299349117965" lon="10.8011114047785"><ele>737.0</ele><time>2026-05-02T12:41:47.999Z</time></trkpt><trkpt lat="44.332972460461775" lon="10.801268561261598"><ele>738.0</ele><time>2026-05-02T12:41:49.999Z</time></trkpt><trkpt lat="44.33297735874452" lon="10.801415460787938"><ele>738.0</ele><time>2026-05-02T12:41:51.999Z</time></trkpt><trkpt lat="44.332945131468705" lon="10.801633976573497"><ele>738.0</ele><time>2026-05-02T12:41:53.999Z</time></trkpt><trkpt lat="44.33293916582143" lon="10.801726489829244"><ele>738.0</ele><time>2026-05-02T12:41:54.999Z</time></trkpt><trkpt lat="44.332935362152455" lon="10.801822396982615"><ele>738.0</ele><time>2026-05-02T12:41:55.999Z</time></trkpt><trkpt lat="44.33296629775611" lon="10.801955946517586"><ele>738.0</ele><time>2026-05-02T12:42:07.999Z</time></trkpt><trkpt lat="44.333023845068624" lon="10.802102774868569"><ele>741.0</ele><time>2026-05-02T12:42:09.999Z</time></trkpt><trkpt lat="44.332981195485964" lon="10.802236937684574"><ele>744.0</ele><time>2026-05-02T12:42:11.999Z</time></trkpt><trkpt lat="44.332872018134054" lon="10.802355902414796"><ele>747.0</ele><time>2026-05-02T12:42:13.999Z</time></trkpt><trkpt lat="44.33279354922197" lon="10.802441838851115"><ele>750.0</ele><time>2026-05-02T12:42:14.999Z</time></trkpt><trkpt lat="44.33273825292957" lon="10.802484965250047"><ele>753.0</ele><time>2026-05-02T12:42:15.999Z</time></trkpt><trkpt lat="44.33267497160676" lon="10.802531532792198"><ele>753.0</ele><time>2026-05-02T12:42:16.999Z</time></trkpt><trkpt lat="44.33260436440101" lon="10.802599119761688"><ele>753.0</ele><time>2026-05-02T12:42:18.998Z</time></trkpt><trkpt lat="44.33247197883438" lon="10.802551107339099"><ele>753.0</ele><time>2026-05-02T12:42:20.998Z</time></trkpt><trkpt lat="44.33240803775294" lon="10.802521218758072"><ele>753.0</ele><time>2026-05-02T12:42:21.998Z</time></trkpt><trkpt lat="44.332333990956215" lon="10.802541833668537"><ele>753.0</ele><time>2026-05-02T12:42:22.999Z</time></trkpt><trkpt lat="44.33227874509037" lon="10.802601921384042"><ele>753.0</ele><time>2026-05-02T12:42:23.999Z</time></trkpt><trkpt lat="44.332218682415395" lon="10.802650254510132"><ele>754.8</ele><time>2026-05-02T12:42:24.999Z</time></trkpt><trkpt lat="44.33214296765559" lon="10.802693477182773"><ele>756.5999999999999</ele><time>2026-05-02T12:42:25.999Z</time></trkpt><trkpt lat="44.33202127199283" lon="10.80273939099032"><ele>758.4000000000001</ele><time>2026-05-02T12:42:27.999Z</time></trkpt><trkpt lat="44.331908463039326" lon="10.802768795233948"><ele>760.2</ele><time>2026-05-02T12:42:29.999Z</time></trkpt><trkpt lat="44.33183532144142" lon="10.802795185514144"><ele>762.0</ele><time>2026-05-02T12:42:30.999Z</time></trkpt><trkpt lat="44.33171995732462" lon="10.802896530556533"><ele>762.0</ele><time>2026-05-02T12:42:32.999Z</time></trkpt><trkpt lat="44.33162358211138" lon="10.802993681520457"><ele>762.0</ele><time>2026-05-02T12:42:34.999Z</time></trkpt><trkpt lat="44.331578301163105" lon="10.803065180273219"><ele>762.0</ele><time>2026-05-02T12:42:35.999Z</time></trkpt><trkpt lat="44.33150244870835" lon="10.803177850347218"><ele>762.0</ele><time>2026-05-02T12:42:37.999Z</time></trkpt><trkpt lat="44.331446128589036" lon="10.80331799336673"><ele>762.0</ele><time>2026-05-02T12:42:39.999Z</time></trkpt><trkpt lat="44.331410388421276" lon="10.803470871968033"><ele>760.6</ele><time>2026-05-02T12:42:41.999Z</time></trkpt><trkpt lat="44.33137106425753" lon="10.803575955138633"><ele>759.2</ele><time>2026-05-02T12:42:43.999Z</time></trkpt><trkpt lat="44.33133021237734" lon="10.803669105264396"><ele>757.8</ele><time>2026-05-02T12:42:46.999Z</time></trkpt><trkpt lat="44.33126674527026" lon="10.803778459062555"><ele>756.4</ele><time>2026-05-02T12:42:55.999Z</time></trkpt><trkpt lat="44.33114603960912" lon="10.803891983951981"><ele>755.0</ele><time>2026-05-02T12:42:57.999Z</time></trkpt><trkpt lat="44.33108646057544" lon="10.80393176938729"><ele>755.0</ele><time>2026-05-02T12:42:58.999Z</time></trkpt><trkpt lat="44.3309846147599" lon="10.804035936931529"><ele>755.0</ele><time>2026-05-02T12:43:00.999Z</time></trkpt><trkpt lat="44.3309232683248" lon="10.804092800640708"><ele>755.0</ele><time>2026-05-02T12:43:01.999Z</time></trkpt><trkpt lat="44.33086709086961" lon="10.804143848691066"><ele>755.0</ele><time>2026-05-02T12:43:02.999Z</time></trkpt><trkpt lat="44.33077653188881" lon="10.804169944268587"><ele>755.0</ele><time>2026-05-02T12:43:04.999Z</time></trkpt><trkpt lat="44.33070602885152" lon="10.80417492167452"><ele>755.0</ele><time>2026-05-02T12:43:05.999Z</time></trkpt><trkpt lat="44.330639159752856" lon="10.804196464566513"><ele>755.6</ele><time>2026-05-02T12:43:06.999Z</time></trkpt><trkpt lat="44.3305229340324" lon="10.804260495734523"><ele>756.2</ele><time>2026-05-02T12:43:08.999Z</time></trkpt><trkpt lat="44.330408330876175" lon="10.804287312408386"><ele>756.8</ele><time>2026-05-02T12:43:10.999Z</time></trkpt><trkpt lat="44.330336938883285" lon="10.804275498633954"><ele>757.4</ele><time>2026-05-02T12:43:11.999Z</time></trkpt><trkpt lat="44.330247502114986" lon="10.804204643221171"><ele>758.0</ele><time>2026-05-02T12:43:13.999Z</time></trkpt><trkpt lat="44.33017409320417" lon="10.804068058163857"><ele>758.0</ele><time>2026-05-02T12:43:15.999Z</time></trkpt><trkpt lat="44.33012318790352" lon="10.804002431020486"><ele>758.0</ele><time>2026-05-02T12:43:16.999Z</time></trkpt><trkpt lat="44.330075507022514" lon="10.803919373926126"><ele>758.0</ele><time>2026-05-02T12:43:18.999Z</time></trkpt><trkpt lat="44.33012215969174" lon="10.804005331430067"><ele>758.0</ele><time>2026-05-02T12:43:25.999Z</time></trkpt><trkpt lat="44.33020633829721" lon="10.804121623560569"><ele>758.0</ele><time>2026-05-02T12:43:27.999Z</time></trkpt><trkpt lat="44.330267805165434" lon="10.804187670489636"><ele>758.0</ele><time>2026-05-02T12:43:29.999Z</time></trkpt><trkpt lat="44.33031174984844" lon="10.80426567366992"><ele>758.0</ele><time>2026-05-02T12:43:31.999Z</time></trkpt><trkpt lat="44.33038458791523" lon="10.804280693501935"><ele>758.0</ele><time>2026-05-02T12:43:33.999Z</time></trkpt><trkpt lat="44.330456637795265" lon="10.804255443622054"><ele>758.0</ele><time>2026-05-02T12:43:36.999Z</time></trkpt><trkpt lat="44.330518484273284" lon="10.80423058477852"><ele>758.0</ele><time>2026-05-02T12:43:39.999Z</time></trkpt><trkpt lat="44.33043725981591" lon="10.804280738121221"><ele>758.0</ele><time>2026-05-02T12:44:18.999Z</time></trkpt><trkpt lat="44.33034388658762" lon="10.804275395457491"><ele>758.0</ele><time>2026-05-02T12:44:20.999Z</time></trkpt><trkpt lat="44.33025338270815" lon="10.80424684933069"><ele>758.0</ele><time>2026-05-02T12:44:22.999Z</time></trkpt><trkpt lat="44.33017464869886" lon="10.804217811398905"><ele>758.0</ele><time>2026-05-02T12:44:24.999Z</time></trkpt><trkpt lat="44.33007691659273" lon="10.804195919609402"><ele>758.0</ele><time>2026-05-02T12:44:26.999Z</time></trkpt><trkpt lat="44.3299987335507" lon="10.804184429657555"><ele>758.0</ele><time>2026-05-02T12:44:28.999Z</time></trkpt><trkpt lat="44.32991176191577" lon="10.804211603832554"><ele>758.0</ele><time>2026-05-02T12:44:30.999Z</time></trkpt><trkpt lat="44.32985597903728" lon="10.804256668872144"><ele>758.0</ele><time>2026-05-02T12:44:31.999Z</time></trkpt><trkpt lat="44.32978800361611" lon="10.804331462712033"><ele>756.0000000000001</ele><time>2026-05-02T12:44:33.999Z</time></trkpt><trkpt lat="44.32972839838711" lon="10.804407340361054"><ele>754.0</ele><time>2026-05-02T12:44:38.999Z</time></trkpt><trkpt lat="44.32971574802689" lon="10.804495733164613"><ele>752.0</ele><time>2026-05-02T12:44:40.999Z</time></trkpt><trkpt lat="44.329697162106136" lon="10.804584159601268"><ele>750.0</ele><time>2026-05-02T12:44:42.999Z</time></trkpt><trkpt lat="44.329673592481264" lon="10.804685316273495"><ele>748.0</ele><time>2026-05-02T12:44:44.999Z</time></trkpt><trkpt lat="44.32964054292575" lon="10.804764210568715"><ele>746.0000000000001</ele><time>2026-05-02T12:44:46.999Z</time></trkpt><trkpt lat="44.32956741488602" lon="10.804843683181506"><ele>744.0</ele><time>2026-05-02T12:44:48.999Z</time></trkpt><trkpt lat="44.329514858420715" lon="10.804910277578214"><ele>742.6666666666666</ele><time>2026-05-02T12:44:50.999Z</time></trkpt><trkpt lat="44.32947453028505" lon="10.804996326245046"><ele>741.3333333333334</ele><time>2026-05-02T12:44:53.999Z</time></trkpt><trkpt lat="44.329415716759925" lon="10.80503431697001"><ele>740.0</ele><time>2026-05-02T12:44:55.999Z</time></trkpt><trkpt lat="44.3293382142215" lon="10.80503752543812"><ele>738.6666666666667</ele><time>2026-05-02T12:44:57.999Z</time></trkpt><trkpt lat="44.32925341681374" lon="10.80501707456386"><ele>737.3333333333334</ele><time>2026-05-02T12:44:59.999Z</time></trkpt><trkpt lat="44.32914435355051" lon="10.805004331849988"><ele>736.0</ele><time>2026-05-02T12:45:01.999Z</time></trkpt><trkpt lat="44.3290597229616" lon="10.805041408108476"><ele>736.0</ele><time>2026-05-02T12:45:04.999Z</time></trkpt><trkpt lat="44.32897685339458" lon="10.805059627780842"><ele>736.0</ele><time>2026-05-02T12:45:07.999Z</time></trkpt><trkpt lat="44.328931846715946" lon="10.805125602119203"><ele>736.0</ele><time>2026-05-02T12:45:10Z</time></trkpt><trkpt lat="44.328873001067" lon="10.805185616890105"><ele>736.0</ele><time>2026-05-02T12:45:12Z</time></trkpt><trkpt lat="44.32878655603343" lon="10.805191719701938"><ele>736.0</ele><time>2026-05-02T12:45:15Z</time></trkpt><trkpt lat="44.328703982302905" lon="10.805207481566201"><ele>736.0</ele><time>2026-05-02T12:45:17Z</time></trkpt><trkpt lat="44.32863647517984" lon="10.805267018446829"><ele>733.1666666666667</ele><time>2026-05-02T12:45:18Z</time></trkpt><trkpt lat="44.328563669290084" lon="10.805319674804117"><ele>730.3333333333334</ele><time>2026-05-02T12:45:19Z</time></trkpt><trkpt lat="44.3284973517237" lon="10.805364176327936"><ele>727.5</ele><time>2026-05-02T12:45:20Z</time></trkpt><trkpt lat="44.32840307166551" lon="10.805432494126265"><ele>724.6666666666666</ele><time>2026-05-02T12:45:22Z</time></trkpt><trkpt lat="44.328346917624394" lon="10.805517146602428"><ele>721.8333333333333</ele><time>2026-05-02T12:45:44Z</time></trkpt><trkpt lat="44.32825457798644" lon="10.805569293193363"><ele>719.0</ele><time>2026-05-02T12:45:46Z</time></trkpt><trkpt lat="44.32811021567621" lon="10.805514433950364"><ele>717.6</ele><time>2026-05-02T12:45:48Z</time></trkpt><trkpt lat="44.328038337710396" lon="10.805538043765939"><ele>716.2</ele><time>2026-05-02T12:45:51Z</time></trkpt><trkpt lat="44.3279702446329" lon="10.805540899935608"><ele>714.8000000000001</ele><time>2026-05-02T12:45:53Z</time></trkpt><trkpt lat="44.32787061266913" lon="10.805523453146312"><ele>713.4000000000001</ele><time>2026-05-02T12:45:55Z</time></trkpt><trkpt lat="44.327781867525026" lon="10.80551569045251"><ele>712.0</ele><time>2026-05-02T12:45:57Z</time></trkpt><trkpt lat="44.327663092277156" lon="10.805537717647393"><ele>712.0</ele><time>2026-05-02T12:45:59Z</time></trkpt><trkpt lat="44.32754822523944" lon="10.805545881603399"><ele>712.0</ele><time>2026-05-02T12:46:01Z</time></trkpt><trkpt lat="44.32745205401809" lon="10.805532300635754"><ele>712.0</ele><time>2026-05-02T12:46:03Z</time></trkpt><trkpt lat="44.32735657848921" lon="10.805611679822231"><ele>712.0</ele><time>2026-05-02T12:46:06Z</time></trkpt><trkpt lat="44.32725288844361" lon="10.805599194955994"><ele>712.0</ele><time>2026-05-02T12:46:10Z</time></trkpt><trkpt lat="44.32716950345155" lon="10.805588560674883"><ele>711.0</ele><time>2026-05-02T12:46:11Z</time></trkpt><trkpt lat="44.32710436157276" lon="10.805607633429553"><ele>710.0</ele><time>2026-05-02T12:46:12Z</time></trkpt><trkpt lat="44.32699657829063" lon="10.805666748128244"><ele>709.0</ele><time>2026-05-02T12:46:14Z</time></trkpt><trkpt lat="44.32690515521789" lon="10.805688759642628"><ele>708.0</ele><time>2026-05-02T12:46:16Z</time></trkpt><trkpt lat="44.32680113787346" lon="10.805759115154967"><ele>707.0</ele><time>2026-05-02T12:46:18Z</time></trkpt><trkpt lat="44.326734074184074" lon="10.805780080979744"><ele>707.0</ele><time>2026-05-02T12:46:20Z</time></trkpt><trkpt lat="44.32665208494541" lon="10.805780102201446"><ele>707.0</ele><time>2026-05-02T12:46:24Z</time></trkpt><trkpt lat="44.326556255697504" lon="10.805809168557065"><ele>707.0</ele><time>2026-05-02T12:46:26Z</time></trkpt><trkpt lat="44.326484374315044" lon="10.805830834752092"><ele>707.0</ele><time>2026-05-02T12:46:27Z</time></trkpt><trkpt lat="44.326420554570994" lon="10.805804792511244"><ele>707.0</ele><time>2026-05-02T12:46:28Z</time></trkpt><trkpt lat="44.32632950719646" lon="10.805870474547262"><ele>707.0</ele><time>2026-05-02T12:46:31Z</time></trkpt><trkpt lat="44.32628252584357" lon="10.805952081849668"><ele>704.6666666666666</ele><time>2026-05-02T12:46:33Z</time></trkpt><trkpt lat="44.32621829315571" lon="10.80598410551588"><ele>702.3333333333333</ele><time>2026-05-02T12:46:36Z</time></trkpt><trkpt lat="44.32615131519302" lon="10.805899658468604"><ele>700.0</ele><time>2026-05-02T12:46:43Z</time></trkpt><trkpt lat="44.32609175606115" lon="10.805985796125166"><ele>697.6666666666666</ele><time>2026-05-02T12:46:49Z</time></trkpt><trkpt lat="44.326148001942634" lon="10.8060748676983"><ele>695.3333333333334</ele><time>2026-05-02T12:46:53Z</time></trkpt><trkpt lat="44.32618752156529" lon="10.805982199578258"><ele>693.0</ele><time>2026-05-02T12:46:56Z</time></trkpt><trkpt lat="44.32625001278403" lon="10.805954560927997"><ele>693.0</ele><time>2026-05-02T12:46:58Z</time></trkpt><trkpt lat="44.32630152988168" lon="10.805901300493735"><ele>693.0</ele><time>2026-05-02T12:46:59Z</time></trkpt><trkpt lat="44.32634839015008" lon="10.805840582349951"><ele>693.0</ele><time>2026-05-02T12:47:00Z</time></trkpt><trkpt lat="44.326423422382334" lon="10.80579270296549"><ele>693.0</ele><time>2026-05-02T12:47:02Z</time></trkpt><trkpt lat="44.326515436804904" lon="10.80583851388838"><ele>693.0</ele><time>2026-05-02T12:47:04Z</time></trkpt><trkpt lat="44.326577387092726" lon="10.805810662175267"><ele>693.0</ele><time>2026-05-02T12:47:05Z</time></trkpt><trkpt lat="44.32665791763423" lon="10.805753232842484"><ele>695.8</ele><time>2026-05-02T12:47:07Z</time></trkpt><trkpt lat="44.326732723774796" lon="10.805762788509192"><ele>698.5999999999999</ele><time>2026-05-02T12:47:09Z</time></trkpt><trkpt lat="44.326858328977536" lon="10.80571700473886"><ele>701.4000000000001</ele><time>2026-05-02T12:47:11Z</time></trkpt><trkpt lat="44.32691536601465" lon="10.80565410556665"><ele>704.2</ele><time>2026-05-02T12:47:12Z</time></trkpt><trkpt lat="44.32701920647275" lon="10.805625227169244"><ele>707.0</ele><time>2026-05-02T12:47:14Z</time></trkpt><trkpt lat="44.32710140964349" lon="10.805607939349299"><ele>707.0</ele><time>2026-05-02T12:47:15Z</time></trkpt><trkpt lat="44.32721440140872" lon="10.805591562547782"><ele>707.0</ele><time>2026-05-02T12:47:17Z</time></trkpt><trkpt lat="44.32728884164167" lon="10.805614161684396"><ele>707.0</ele><time>2026-05-02T12:47:20Z</time></trkpt><trkpt lat="44.32740987379107" lon="10.805574455207662"><ele>707.0</ele><time>2026-05-02T12:47:22Z</time></trkpt><trkpt lat="44.32748747986211" lon="10.805545129543333"><ele>707.0</ele><time>2026-05-02T12:47:24Z</time></trkpt><trkpt lat="44.32759676203592" lon="10.805570990921655"><ele>708.0</ele><time>2026-05-02T12:47:26Z</time></trkpt><trkpt lat="44.327671007998774" lon="10.805547002573988"><ele>709.0</ele><time>2026-05-02T12:47:27Z</time></trkpt><trkpt lat="44.32778585835802" lon="10.805539536892237"><ele>710.0</ele><time>2026-05-02T12:47:29Z</time></trkpt><trkpt lat="44.327904286224395" lon="10.805560304031943"><ele>711.0</ele><time>2026-05-02T12:47:31Z</time></trkpt><trkpt lat="44.32799767902254" lon="10.805558382005975"><ele>712.0</ele><time>2026-05-02T12:47:33Z</time></trkpt><trkpt lat="44.328062568394394" lon="10.805536768282634"><ele>713.4000000000001</ele><time>2026-05-02T12:47:34Z</time></trkpt><trkpt lat="44.32816991420503" lon="10.805497285298951"><ele>714.8000000000001</ele><time>2026-05-02T12:47:36Z</time></trkpt><trkpt lat="44.32826353502423" lon="10.805480033216737"><ele>716.2</ele><time>2026-05-02T12:47:38Z</time></trkpt><trkpt lat="44.32832831462484" lon="10.805480185847149"><ele>717.6</ele><time>2026-05-02T12:47:40Z</time></trkpt><trkpt lat="44.32837394878615" lon="10.805541245908834"><ele>719.0</ele><time>2026-05-02T12:47:50Z</time></trkpt><trkpt lat="44.328339034093354" lon="10.805702150247047"><ele>719.0</ele><time>2026-05-02T12:47:52Z</time></trkpt><trkpt lat="44.32833118631186" lon="10.805847413503233"><ele>719.0</ele><time>2026-05-02T12:47:54Z</time></trkpt><trkpt lat="44.32835521083598" lon="10.805933003074573"><ele>719.0</ele><time>2026-05-02T12:47:55Z</time></trkpt><trkpt lat="44.32839961589383" lon="10.806004167179248"><ele>719.0</ele><time>2026-05-02T12:47:56Z</time></trkpt><trkpt lat="44.328449416923014" lon="10.806091328549549"><ele>719.0</ele><time>2026-05-02T12:47:57Z</time></trkpt><trkpt lat="44.328494261194784" lon="10.806268104998097"><ele>717.8333333333333</ele><time>2026-05-02T12:47:59Z</time></trkpt><trkpt lat="44.32852369573389" lon="10.806371005710117"><ele>716.6666666666666</ele><time>2026-05-02T12:48:00Z</time></trkpt><trkpt lat="44.32851837006014" lon="10.806527835367083"><ele>715.5</ele><time>2026-05-02T12:48:02Z</time></trkpt><trkpt lat="44.328463171283715" lon="10.806589487993582"><ele>714.3333333333334</ele><time>2026-05-02T12:48:03Z</time></trkpt><trkpt lat="44.32841139216336" lon="10.80665933252157"><ele>713.1666666666667</ele><time>2026-05-02T12:48:04Z</time></trkpt><trkpt lat="44.328358605990836" lon="10.806730676375016"><ele>712.0</ele><time>2026-05-02T12:48:05Z</time></trkpt><trkpt lat="44.32830608583416" lon="10.80679996011415"><ele>710.0</ele><time>2026-05-02T12:48:06Z</time></trkpt><trkpt lat="44.32826830289225" lon="10.806877648936583"><ele>708.0</ele><time>2026-05-02T12:48:07Z</time></trkpt><trkpt lat="44.328185986343016" lon="10.806943966571577"><ele>706.0</ele><time>2026-05-02T12:48:08Z</time></trkpt><trkpt lat="44.32812652904224" lon="10.80700342388703"><ele>704.0</ele><time>2026-05-02T12:48:09Z</time></trkpt><trkpt lat="44.32806438882957" lon="10.807063885650521"><ele>702.0</ele><time>2026-05-02T12:48:10Z</time></trkpt><trkpt lat="44.3280019837034" lon="10.807131994516928"><ele>700.0</ele><time>2026-05-02T12:48:11Z</time></trkpt><trkpt lat="44.32792969120358" lon="10.807191598466298"><ele>699.8333333333334</ele><time>2026-05-02T12:48:12Z</time></trkpt><trkpt lat="44.32785468818418" lon="10.807251660405255"><ele>699.6666666666667</ele><time>2026-05-02T12:48:13Z</time></trkpt><trkpt lat="44.327807576167686" lon="10.80731028553395"><ele>699.5</ele><time>2026-05-02T12:48:14Z</time></trkpt><trkpt lat="44.32774722700448" lon="10.807381708857365"><ele>699.3333333333334</ele><time>2026-05-02T12:48:15Z</time></trkpt><trkpt lat="44.32767773809195" lon="10.80745468718439"><ele>699.1666666666666</ele><time>2026-05-02T12:48:16Z</time></trkpt><trkpt lat="44.32761338939741" lon="10.807515472712709"><ele>699.0</ele><time>2026-05-02T12:48:17Z</time></trkpt><trkpt lat="44.327537450656514" lon="10.807687907657542"><ele>698.1666666666666</ele><time>2026-05-02T12:48:19Z</time></trkpt><trkpt lat="44.32751611203874" lon="10.807809192327918"><ele>697.3333333333334</ele><time>2026-05-02T12:48:20Z</time></trkpt><trkpt lat="44.32751861401861" lon="10.807909030255074"><ele>696.5</ele><time>2026-05-02T12:48:21Z</time></trkpt><trkpt lat="44.32752789807694" lon="10.807997101636055"><ele>695.6666666666667</ele><time>2026-05-02T12:48:22Z</time></trkpt><trkpt lat="44.32751546222572" lon="10.808097425130917"><ele>694.8333333333334</ele><time>2026-05-02T12:48:23Z</time></trkpt><trkpt lat="44.32751854506905" lon="10.808185579680845"><ele>694.0</ele><time>2026-05-02T12:48:24Z</time></trkpt><trkpt lat="44.32752357055046" lon="10.80835126356068"><ele>694.0</ele><time>2026-05-02T12:48:26Z</time></trkpt><trkpt lat="44.327544103249416" lon="10.808503909467195"><ele>694.0</ele><time>2026-05-02T12:48:28Z</time></trkpt><trkpt lat="44.327544744399276" lon="10.80863758926217"><ele>694.0</ele><time>2026-05-02T12:48:29Z</time></trkpt><trkpt lat="44.32756202011558" lon="10.808756506678755"><ele>694.0</ele><time>2026-05-02T12:48:30Z</time></trkpt><trkpt lat="44.327583565849835" lon="10.808890666515088"><ele>694.0</ele><time>2026-05-02T12:48:31Z</time></trkpt><trkpt lat="44.32762852100262" lon="10.809051934401959"><ele>694.0</ele><time>2026-05-02T12:48:32Z</time></trkpt><trkpt lat="44.32769519604317" lon="10.809190042295873"><ele>694.0</ele><time>2026-05-02T12:48:33Z</time></trkpt><trkpt lat="44.32777948918509" lon="10.809336301286148"><ele>694.0</ele><time>2026-05-02T12:48:34Z</time></trkpt><trkpt lat="44.32784608997239" lon="10.809473023755768"><ele>694.0</ele><time>2026-05-02T12:48:35Z</time></trkpt><trkpt lat="44.32789997279453" lon="10.809551697660591"><ele>694.8000000000001</ele><time>2026-05-02T12:48:36Z</time></trkpt><trkpt lat="44.32796608099572" lon="10.809613230875954"><ele>695.6</ele><time>2026-05-02T12:48:37Z</time></trkpt><trkpt lat="44.328026926906524" lon="10.809689084222866"><ele>696.4</ele><time>2026-05-02T12:48:38.001Z</time></trkpt><trkpt lat="44.328098218067325" lon="10.80979116513079"><ele>697.2</ele><time>2026-05-02T12:48:40.001Z</time></trkpt><trkpt lat="44.328081370160945" lon="10.809931942120192"><ele>698.0</ele><time>2026-05-02T12:48:44.001Z</time></trkpt><trkpt lat="44.32801402840734" lon="10.810030477437511"><ele>698.0</ele><time>2026-05-02T12:48:46.001Z</time></trkpt><trkpt lat="44.328001032228094" lon="10.810137623965757"><ele>698.0</ele><time>2026-05-02T12:48:48.001Z</time></trkpt><trkpt lat="44.32801763919329" lon="10.810289517778546"><ele>698.0</ele><time>2026-05-02T12:48:50.001Z</time></trkpt><trkpt lat="44.328064337013515" lon="10.810362936039477"><ele>698.0</ele><time>2026-05-02T12:48:52.001Z</time></trkpt><trkpt lat="44.32814739002308" lon="10.810430306865367"><ele>698.0</ele><time>2026-05-02T12:48:54.001Z</time></trkpt><trkpt lat="44.32823132233962" lon="10.810511624223135"><ele>700.0</ele><time>2026-05-02T12:48:56.001Z</time></trkpt><trkpt lat="44.32830698368882" lon="10.8105975454136"><ele>702.0</ele><time>2026-05-02T12:48:58.001Z</time></trkpt><trkpt lat="44.32837089650904" lon="10.810649789527087"><ele>704.0</ele><time>2026-05-02T12:49:00.001Z</time></trkpt><trkpt lat="44.328420279049055" lon="10.810593400857163"><ele>706.0</ele><time>2026-05-02T12:49:03.001Z</time></trkpt><trkpt lat="44.328480411710274" lon="10.810554999864596"><ele>708.0</ele><time>2026-05-02T12:50:13Z</time></trkpt><trkpt lat="44.32853452931612" lon="10.810614910702675"><ele>710.0</ele><time>2026-05-02T12:50:15Z</time></trkpt><trkpt lat="44.328625814992144" lon="10.810679897441574"><ele>710.0</ele><time>2026-05-02T12:50:17Z</time></trkpt><trkpt lat="44.32868913750101" lon="10.810789901701227"><ele>710.0</ele><time>2026-05-02T12:50:19Z</time></trkpt><trkpt lat="44.32877600594391" lon="10.8108763193707"><ele>710.0</ele><time>2026-05-02T12:50:21Z</time></trkpt><trkpt lat="44.32885774493914" lon="10.810984112708383"><ele>710.0</ele><time>2026-05-02T12:50:23Z</time></trkpt><trkpt lat="44.328910921688085" lon="10.811039352912717"><ele>710.0</ele><time>2026-05-02T12:50:24Z</time></trkpt><trkpt lat="44.32894438799634" lon="10.811210238167066"><ele>709.0</ele><time>2026-05-02T12:50:26Z</time></trkpt><trkpt lat="44.328945981993314" lon="10.811341396764758"><ele>708.0</ele><time>2026-05-02T12:50:27Z</time></trkpt><trkpt lat="44.32894491327584" lon="10.811503322835689"><ele>707.0</ele><time>2026-05-02T12:50:28Z</time></trkpt><trkpt lat="44.32894511017397" lon="10.81167754045792"><ele>706.0</ele><time>2026-05-02T12:50:29Z</time></trkpt><trkpt lat="44.32893554471364" lon="10.81183327391354"><ele>705.0</ele><time>2026-05-02T12:50:30Z</time></trkpt><trkpt lat="44.32891853347467" lon="10.811987052366495"><ele>705.0</ele><time>2026-05-02T12:50:31Z</time></trkpt><trkpt lat="44.32889803281746" lon="10.81213418403598"><ele>705.0</ele><time>2026-05-02T12:50:32Z</time></trkpt><trkpt lat="44.32886529287943" lon="10.812248676513768"><ele>705.0</ele><time>2026-05-02T12:50:33Z</time></trkpt><trkpt lat="44.328838934978016" lon="10.812373335935616"><ele>705.0</ele><time>2026-05-02T12:50:34Z</time></trkpt><trkpt lat="44.32879820981325" lon="10.812489149150176"><ele>705.0</ele><time>2026-05-02T12:50:35Z</time></trkpt><trkpt lat="44.32877315806962" lon="10.812607534661883"><ele>707.5</ele><time>2026-05-02T12:50:36Z</time></trkpt><trkpt lat="44.32875269901203" lon="10.812726344682929"><ele>710.0</ele><time>2026-05-02T12:50:37Z</time></trkpt><trkpt lat="44.32876477105021" lon="10.812829616273048"><ele>712.5</ele><time>2026-05-02T12:50:38Z</time></trkpt><trkpt lat="44.32879453135301" lon="10.812915591912597"><ele>715.0</ele><time>2026-05-02T12:50:39Z</time></trkpt><trkpt lat="44.32883745347655" lon="10.813000390399923"><ele>717.5</ele><time>2026-05-02T12:50:40Z</time></trkpt><trkpt lat="44.32889684731966" lon="10.813140468044843"><ele>720.0</ele><time>2026-05-02T12:50:41Z</time></trkpt><trkpt lat="44.32897057110425" lon="10.813265984615972"><ele>720.0</ele><time>2026-05-02T12:50:42Z</time></trkpt><trkpt lat="44.329053497908944" lon="10.813408736790727"><ele>720.0</ele><time>2026-05-02T12:50:43Z</time></trkpt><trkpt lat="44.32912457181022" lon="10.813495317113697"><ele>720.0</ele><time>2026-05-02T12:50:44.001Z</time></trkpt><trkpt lat="44.329166707585934" lon="10.813588556043168"><ele>720.0</ele><time>2026-05-02T12:50:45.001Z</time></trkpt><trkpt lat="44.32922222230466" lon="10.813664553042162"><ele>720.0</ele><time>2026-05-02T12:50:46.001Z</time></trkpt><trkpt lat="44.329244918614165" lon="10.813762694114589"><ele>722.5</ele><time>2026-05-02T12:50:47.001Z</time></trkpt><trkpt lat="44.32927708855802" lon="10.813864171086744"><ele>725.0</ele><time>2026-05-02T12:50:48.001Z</time></trkpt><trkpt lat="44.329241700567465" lon="10.813981000809456"><ele>727.5</ele><time>2026-05-02T12:50:49.001Z</time></trkpt><trkpt lat="44.32923342787326" lon="10.81411206404842"><ele>730.0</ele><time>2026-05-02T12:50:50.001Z</time></trkpt><trkpt lat="44.32925547851982" lon="10.814231642125105"><ele>732.5</ele><time>2026-05-02T12:50:51.001Z</time></trkpt><trkpt lat="44.329273270550814" lon="10.81433151974417"><ele>735.0</ele><time>2026-05-02T12:50:52.001Z</time></trkpt><trkpt lat="44.3293147642114" lon="10.814428466976938"><ele>738.2</ele><time>2026-05-02T12:50:53.001Z</time></trkpt><trkpt lat="44.32936842046946" lon="10.814500880817429"><ele>741.4</ele><time>2026-05-02T12:50:54.001Z</time></trkpt><trkpt lat="44.329423246296024" lon="10.814613793978562"><ele>744.5999999999999</ele><time>2026-05-02T12:50:56.001Z</time></trkpt><trkpt lat="44.329458676539566" lon="10.814701163257505"><ele>747.8</ele><time>2026-05-02T12:51:00.001Z</time></trkpt><trkpt lat="44.329358584923774" lon="10.81469756087637"><ele>751.0</ele><time>2026-05-02T12:51:02.001Z</time></trkpt><trkpt lat="44.32925381806194" lon="10.814578204645658"><ele>751.0</ele><time>2026-05-02T12:51:04.001Z</time></trkpt><trkpt lat="44.32920953464171" lon="10.814478264285917"><ele>751.0</ele><time>2026-05-02T12:51:05.001Z</time></trkpt><trkpt lat="44.3291563923196" lon="10.814371930870289"><ele>751.0</ele><time>2026-05-02T12:51:06.001Z</time></trkpt><trkpt lat="44.32911047707382" lon="10.814247009359379"><ele>751.0</ele><time>2026-05-02T12:51:07.001Z</time></trkpt><trkpt lat="44.329033425711856" lon="10.814143077885914"><ele>751.0</ele><time>2026-05-02T12:51:08.001Z</time></trkpt><trkpt lat="44.32894559448976" lon="10.814072471876706"><ele>749.8333333333334</ele><time>2026-05-02T12:51:09.001Z</time></trkpt><trkpt lat="44.32886251543314" lon="10.814011754663083"><ele>748.6666666666667</ele><time>2026-05-02T12:51:10.001Z</time></trkpt><trkpt lat="44.32876962588053" lon="10.814016059194921"><ele>747.5</ele><time>2026-05-02T12:51:11.001Z</time></trkpt><trkpt lat="44.328683065059465" lon="10.814017151350106"><ele>746.3333333333334</ele><time>2026-05-02T12:51:12.001Z</time></trkpt><trkpt lat="44.32861031758007" lon="10.814038183379683"><ele>745.1666666666666</ele><time>2026-05-02T12:51:13.001Z</time></trkpt><trkpt lat="44.328544082825815" lon="10.814081496553674"><ele>744.0</ele><time>2026-05-02T12:51:14.001Z</time></trkpt><trkpt lat="44.32847699697033" lon="10.814149297078233"><ele>744.0</ele><time>2026-05-02T12:51:15.001Z</time></trkpt><trkpt lat="44.328407146067704" lon="10.814224756368445"><ele>744.0</ele><time>2026-05-02T12:51:16.001Z</time></trkpt><trkpt lat="44.32834986965193" lon="10.814282870526561"><ele>744.0</ele><time>2026-05-02T12:51:17.001Z</time></trkpt><trkpt lat="44.32828098811713" lon="10.81436357388192"><ele>744.0</ele><time>2026-05-02T12:51:19.001Z</time></trkpt><trkpt lat="44.328390403819654" lon="10.814534071949927"><ele>744.0</ele><time>2026-05-02T12:51:23.001Z</time></trkpt><trkpt lat="44.32844308497869" lon="10.814664126050607"><ele>747.3333333333334</ele><time>2026-05-02T12:51:25.001Z</time></trkpt><trkpt lat="44.32851259655251" lon="10.814767170794454"><ele>750.6666666666666</ele><time>2026-05-02T12:51:27Z</time></trkpt><trkpt lat="44.328559893977875" lon="10.814850104368908"><ele>754.0</ele><time>2026-05-02T12:51:29Z</time></trkpt><trkpt lat="44.32861059577915" lon="10.814945709943764"><ele>757.3333333333333</ele><time>2026-05-02T12:51:30Z</time></trkpt><trkpt lat="44.32865370294555" lon="10.81503105359116"><ele>760.6666666666666</ele><time>2026-05-02T12:51:31Z</time></trkpt><trkpt lat="44.328709115233465" lon="10.815116353098134"><ele>764.0</ele><time>2026-05-02T12:51:36Z</time></trkpt><trkpt lat="44.32876071211993" lon="10.81521411846129"><ele>765.2</ele><time>2026-05-02T12:51:38Z</time></trkpt><trkpt lat="44.32882496517924" lon="10.815324975468547"><ele>766.4000000000001</ele><time>2026-05-02T12:51:40Z</time></trkpt><trkpt lat="44.32887386336931" lon="10.815450564883303"><ele>767.6</ele><time>2026-05-02T12:51:42Z</time></trkpt><trkpt lat="44.32892792661584" lon="10.815615091657133"><ele>768.8</ele><time>2026-05-02T12:51:44Z</time></trkpt><trkpt lat="44.32897241715992" lon="10.815736868591982"><ele>770.0</ele><time>2026-05-02T12:51:46Z</time></trkpt><trkpt lat="44.32902543281567" lon="10.815844014435287"><ele>770.0</ele><time>2026-05-02T12:51:48Z</time></trkpt><trkpt lat="44.3290807458713" lon="10.815968262529552"><ele>770.0</ele><time>2026-05-02T12:51:50Z</time></trkpt><trkpt lat="44.329190365456625" lon="10.816022933652219"><ele>770.0</ele><time>2026-05-02T12:51:52Z</time></trkpt><trkpt lat="44.32928542304174" lon="10.816091666667637"><ele>770.0</ele><time>2026-05-02T12:51:54Z</time></trkpt><trkpt lat="44.3293411115445" lon="10.816134634584078"><ele>770.0</ele><time>2026-05-02T12:51:55Z</time></trkpt><trkpt lat="44.32943690375052" lon="10.816266127411248"><ele>774.2</ele><time>2026-05-02T12:51:57Z</time></trkpt><trkpt lat="44.32951970835216" lon="10.816373430451451"><ele>778.4</ele><time>2026-05-02T12:51:59Z</time></trkpt><trkpt lat="44.329598877038194" lon="10.816430431751858"><ele>782.5999999999999</ele><time>2026-05-02T12:52:01Z</time></trkpt><trkpt lat="44.32970535240997" lon="10.816457519301613"><ele>786.8</ele><time>2026-05-02T12:52:03Z</time></trkpt><trkpt lat="44.32980030491157" lon="10.81647102738983"><ele>791.0</ele><time>2026-05-02T12:52:05Z</time></trkpt><trkpt lat="44.3298615659543" lon="10.816504919399428"><ele>791.0</ele><time>2026-05-02T12:52:06Z</time></trkpt><trkpt lat="44.32992059980828" lon="10.816591943166104"><ele>791.0</ele><time>2026-05-02T12:52:08Z</time></trkpt><trkpt lat="44.330005114000976" lon="10.816680746981374"><ele>791.0</ele><time>2026-05-02T12:52:10Z</time></trkpt><trkpt lat="44.3300762123548" lon="10.816734592055482"><ele>791.0</ele><time>2026-05-02T12:52:13Z</time></trkpt><trkpt lat="44.33013563328405" lon="10.816842264350381"><ele>791.0</ele><time>2026-05-02T12:52:15Z</time></trkpt><trkpt lat="44.33018623769661" lon="10.816946592909332"><ele>796.3333333333334</ele><time>2026-05-02T12:52:17Z</time></trkpt><trkpt lat="44.330223832210635" lon="10.81704460291112"><ele>801.6666666666667</ele><time>2026-05-02T12:52:19Z</time></trkpt><trkpt lat="44.33029372736938" lon="10.817142354910509"><ele>807.0</ele><time>2026-05-02T12:52:21Z</time></trkpt><trkpt lat="44.33035085400257" lon="10.81723048030268"><ele>812.3333333333333</ele><time>2026-05-02T12:52:23Z</time></trkpt><trkpt lat="44.33039828491661" lon="10.817345015193462"><ele>817.6666666666666</ele><time>2026-05-02T12:52:25Z</time></trkpt><trkpt lat="44.33045273425286" lon="10.817437966521295"><ele>823.0</ele><time>2026-05-02T12:52:27Z</time></trkpt><trkpt lat="44.33054659358613" lon="10.817506078239036"><ele>824.5999999999999</ele><time>2026-05-02T12:52:29Z</time></trkpt><trkpt lat="44.33068057378053" lon="10.817536351886927"><ele>826.1999999999999</ele><time>2026-05-02T12:52:31Z</time></trkpt><trkpt lat="44.33077851179759" lon="10.817579689189092"><ele>827.8</ele><time>2026-05-02T12:52:33Z</time></trkpt><trkpt lat="44.33086289010544" lon="10.817606013827602"><ele>829.4</ele><time>2026-05-02T12:52:35Z</time></trkpt><trkpt lat="44.330958640704694" lon="10.817635534891439"><ele>831.0</ele><time>2026-05-02T12:52:37Z</time></trkpt><trkpt lat="44.33105049143661" lon="10.817678875519665"><ele>831.0</ele><time>2026-05-02T12:52:39Z</time></trkpt><trkpt lat="44.33105772418179" lon="10.817816563831279"><ele>831.0</ele><time>2026-05-02T12:52:42Z</time></trkpt><trkpt lat="44.33109437867416" lon="10.817892798308268"><ele>831.0</ele><time>2026-05-02T12:52:44Z</time></trkpt><trkpt lat="44.33111092649581" lon="10.817984179860666"><ele>831.0</ele><time>2026-05-02T12:52:47Z</time></trkpt><trkpt lat="44.3311236389774" lon="10.818118470983661"><ele>831.0</ele><time>2026-05-02T12:52:51.001Z</time></trkpt><trkpt lat="44.33115765595842" lon="10.818240412321039"><ele>831.0</ele><time>2026-05-02T12:52:54.001Z</time></trkpt><trkpt lat="44.331214568390926" lon="10.818279134726657"><ele>831.0</ele><time>2026-05-02T12:52:58.001Z</time></trkpt><trkpt lat="44.33129661517479" lon="10.81830036737169"><ele>831.0</ele><time>2026-05-02T12:53:00.001Z</time></trkpt><trkpt lat="44.3313807755631" lon="10.818357584234995"><ele>831.0</ele><time>2026-05-02T12:53:02.001Z</time></trkpt><trkpt lat="44.3314702838887" lon="10.818406677604658"><ele>831.0</ele><time>2026-05-02T12:53:05.001Z</time></trkpt><trkpt lat="44.331531454432714" lon="10.818459697225949"><ele>831.0</ele><time>2026-05-02T12:53:08.001Z</time></trkpt><trkpt lat="44.33157268915455" lon="10.818535591187896"><ele>831.0</ele><time>2026-05-02T12:53:14Z</time></trkpt><trkpt lat="44.331647931552" lon="10.818647607538004"><ele>824.8</ele><time>2026-05-02T12:53:17Z</time></trkpt><trkpt lat="44.33169689743913" lon="10.818712044973628"><ele>818.5999999999999</ele><time>2026-05-02T12:53:23Z</time></trkpt><trkpt lat="44.331749320807724" lon="10.8187718528724"><ele>812.4</ele><time>2026-05-02T12:53:43Z</time></trkpt><trkpt lat="44.331818174194446" lon="10.818821519031282"><ele>806.2</ele><time>2026-05-02T12:53:46Z</time></trkpt><trkpt lat="44.3318701196983" lon="10.818896670464767"><ele>800.0</ele><time>2026-05-02T12:54:01Z</time></trkpt><trkpt lat="44.33171727899912" lon="10.819041350991425"><ele>800.0000000000001</ele><time>2026-05-02T12:54:08Z</time></trkpt><trkpt lat="44.331637947608776" lon="10.819080707374475"><ele>800.0</ele><time>2026-05-02T12:54:10Z</time></trkpt><trkpt lat="44.33161815402096" lon="10.819206163566864"><ele>800.0</ele><time>2026-05-02T12:54:12Z</time></trkpt><trkpt lat="44.33161491438334" lon="10.819318757154674"><ele>800.0</ele><time>2026-05-02T12:54:13Z</time></trkpt><trkpt lat="44.33162416855109" lon="10.819457354042653"><ele>800.0000000000001</ele><time>2026-05-02T12:54:15Z</time></trkpt><trkpt lat="44.33162276361634" lon="10.819580224659685"><ele>800.0</ele><time>2026-05-02T12:54:17Z</time></trkpt><trkpt lat="44.3315744158866" lon="10.819706234034415"><ele>799.0000000000001</ele><time>2026-05-02T12:54:20Z</time></trkpt><trkpt lat="44.331526858156415" lon="10.819797841235081"><ele>798.0</ele><time>2026-05-02T12:54:22Z</time></trkpt><trkpt lat="44.33145220882837" lon="10.819851766634264"><ele>797.0</ele><time>2026-05-02T12:54:24Z</time></trkpt><trkpt lat="44.33138718346044" lon="10.819902739063451"><ele>796.0</ele><time>2026-05-02T12:54:27Z</time></trkpt><trkpt lat="44.33135170103505" lon="10.820013835070297"><ele>795.0000000000001</ele><time>2026-05-02T12:54:29Z</time></trkpt><trkpt lat="44.33138886924315" lon="10.820136321987938"><ele>794.0</ele><time>2026-05-02T12:54:31Z</time></trkpt><trkpt lat="44.33140618775988" lon="10.820235199038741"><ele>793.8333333333334</ele><time>2026-05-02T12:54:32Z</time></trkpt><trkpt lat="44.33142520051088" lon="10.820319776867782"><ele>793.6666666666667</ele><time>2026-05-02T12:54:33Z</time></trkpt><trkpt lat="44.33144073971027" lon="10.820437905979734"><ele>793.5</ele><time>2026-05-02T12:54:35Z</time></trkpt><trkpt lat="44.33145049420379" lon="10.820558127517579"><ele>793.3333333333333</ele><time>2026-05-02T12:54:37Z</time></trkpt><trkpt lat="44.33151343944852" lon="10.820606976876983"><ele>793.1666666666666</ele><time>2026-05-02T12:54:41Z</time></trkpt><trkpt lat="44.33157835347276" lon="10.820683139483181"><ele>793.0</ele><time>2026-05-02T12:54:43Z</time></trkpt><trkpt lat="44.331653595494835" lon="10.820733392018704"><ele>792.9999999999999</ele><time>2026-05-02T12:54:45Z</time></trkpt><trkpt lat="44.33173997795154" lon="10.820778899789824"><ele>793.0</ele><time>2026-05-02T12:54:47Z</time></trkpt><trkpt lat="44.331787820788925" lon="10.820839548247346"><ele>793.0</ele><time>2026-05-02T12:54:49Z</time></trkpt><trkpt lat="44.331849715632124" lon="10.820894199910652"><ele>793.0</ele><time>2026-05-02T12:54:51Z</time></trkpt><trkpt lat="44.33187198209517" lon="10.820993063907444"><ele>792.9999999999999</ele><time>2026-05-02T12:54:53Z</time></trkpt><trkpt lat="44.33187833946687" lon="10.821085414542013"><ele>793.0</ele><time>2026-05-02T12:54:55Z</time></trkpt><trkpt lat="44.33193137712367" lon="10.821177997366041"><ele>790.3333333333333</ele><time>2026-05-02T12:54:57Z</time></trkpt><trkpt lat="44.33198438206115" lon="10.82126147931396"><ele>787.6666666666666</ele><time>2026-05-02T12:54:59Z</time></trkpt><trkpt lat="44.33199886415581" lon="10.821363343474488"><ele>785.0</ele><time>2026-05-02T12:55:01Z</time></trkpt><trkpt lat="44.332054558966526" lon="10.821441771440332"><ele>782.3333333333333</ele><time>2026-05-02T12:55:03Z</time></trkpt><trkpt lat="44.332110329559846" lon="10.82150162274795"><ele>779.6666666666666</ele><time>2026-05-02T12:55:05Z</time></trkpt><trkpt lat="44.33213721193803" lon="10.821618694393166"><ele>777.0</ele><time>2026-05-02T12:55:07Z</time></trkpt><trkpt lat="44.33216696893175" lon="10.821720247608106"><ele>777.0</ele><time>2026-05-02T12:55:09Z</time></trkpt><trkpt lat="44.33215408742011" lon="10.82181218083551"><ele>777.0</ele><time>2026-05-02T12:55:11Z</time></trkpt><trkpt lat="44.33214233533315" lon="10.821913376392883"><ele>777.0</ele><time>2026-05-02T12:55:13Z</time></trkpt><trkpt lat="44.33210925166771" lon="10.82199698256444"><ele>777.0</ele><time>2026-05-02T12:55:15Z</time></trkpt><trkpt lat="44.33206445142092" lon="10.822063655504875"><ele>777.0</ele><time>2026-05-02T12:55:18Z</time></trkpt><trkpt lat="44.332019298240255" lon="10.822146716892956"><ele>777.0</ele><time>2026-05-02T12:55:21Z</time></trkpt><trkpt lat="44.331926895206564" lon="10.822148586985989"><ele>777.0</ele><time>2026-05-02T12:55:24Z</time></trkpt><trkpt lat="44.33187203919288" lon="10.822084791677808"><ele>772.0</ele><time>2026-05-02T12:55:26Z</time></trkpt><trkpt lat="44.331779559568865" lon="10.82208137762853"><ele>767.0</ele><time>2026-05-02T12:55:30Z</time></trkpt><trkpt lat="44.33173407673741" lon="10.822184761910705"><ele>762.0</ele><time>2026-05-02T12:55:33Z</time></trkpt><trkpt lat="44.331684510182725" lon="10.822273447835729"><ele>757.0</ele><time>2026-05-02T12:55:35Z</time></trkpt><trkpt lat="44.33162544579416" lon="10.822355962670182"><ele>752.0</ele><time>2026-05-02T12:55:37Z</time></trkpt><trkpt lat="44.33152439800766" lon="10.822464887597375"><ele>752.0</ele><time>2026-05-02T12:55:40Z</time></trkpt><trkpt lat="44.33143931642645" lon="10.82251174738153"><ele>752.0</ele><time>2026-05-02T12:55:42Z</time></trkpt><trkpt lat="44.33136332916209" lon="10.82256713008783"><ele>752.0</ele><time>2026-05-02T12:55:44Z</time></trkpt><trkpt lat="44.33128379551829" lon="10.822637608116306"><ele>752.0</ele><time>2026-05-02T12:55:46Z</time></trkpt><trkpt lat="44.33118095598106" lon="10.82273953933641"><ele>752.0</ele><time>2026-05-02T12:55:48Z</time></trkpt><trkpt lat="44.33111472054774" lon="10.822809746354647"><ele>748.5</ele><time>2026-05-02T12:55:50Z</time></trkpt><trkpt lat="44.331046045994704" lon="10.822857160751575"><ele>745.0</ele><time>2026-05-02T12:55:52Z</time></trkpt><trkpt lat="44.33096342402178" lon="10.822924574074642"><ele>741.5</ele><time>2026-05-02T12:55:54Z</time></trkpt><trkpt lat="44.33089865773519" lon="10.822991751661135"><ele>738.0</ele><time>2026-05-02T12:55:56Z</time></trkpt><trkpt lat="44.330845302380354" lon="10.823080808433547"><ele>734.5</ele><time>2026-05-02T12:55:58Z</time></trkpt><trkpt lat="44.33079851318895" lon="10.823183620802205"><ele>731.0</ele><time>2026-05-02T12:56:00Z</time></trkpt><trkpt lat="44.33079181972273" lon="10.823320310459657"><ele>731.0</ele><time>2026-05-02T12:56:02Z</time></trkpt><trkpt lat="44.33076625292076" lon="10.823423879524539"><ele>731.0</ele><time>2026-05-02T12:56:04Z</time></trkpt><trkpt lat="44.33070445328934" lon="10.82353725448477"><ele>731.0</ele><time>2026-05-02T12:56:06Z</time></trkpt><trkpt lat="44.330620918066224" lon="10.823616919143866"><ele>731.0</ele><time>2026-05-02T12:56:08Z</time></trkpt><trkpt lat="44.33055044232483" lon="10.823703156254112"><ele>731.0</ele><time>2026-05-02T12:56:10Z</time></trkpt><trkpt lat="44.330489627771776" lon="10.823767338964467"><ele>727.0</ele><time>2026-05-02T12:56:12Z</time></trkpt><trkpt lat="44.33039609242688" lon="10.82381618686545"><ele>723.0</ele><time>2026-05-02T12:56:14Z</time></trkpt><trkpt lat="44.33031005991853" lon="10.82382988335991"><ele>719.0</ele><time>2026-05-02T12:56:16Z</time></trkpt><trkpt lat="44.33023014551234" lon="10.823910402974398"><ele>715.0</ele><time>2026-05-02T12:56:18Z</time></trkpt><trkpt lat="44.330151066896185" lon="10.824006404327358"><ele>711.0</ele><time>2026-05-02T12:56:20Z</time></trkpt><trkpt lat="44.33006834521703" lon="10.82412100336479"><ele>711.0</ele><time>2026-05-02T12:56:22Z</time></trkpt><trkpt lat="44.3299939736421" lon="10.824234875185898"><ele>711.0</ele><time>2026-05-02T12:56:24Z</time></trkpt><trkpt lat="44.3299544300378" lon="10.824353729493781"><ele>711.0</ele><time>2026-05-02T12:56:26Z</time></trkpt><trkpt lat="44.329960649166246" lon="10.82445870216299"><ele>711.0</ele><time>2026-05-02T12:56:28Z</time></trkpt><trkpt lat="44.32994942845947" lon="10.824556456739714"><ele>711.0</ele><time>2026-05-02T12:56:30Z</time></trkpt><trkpt lat="44.32995018826069" lon="10.824395133878365"><ele>711.0</ele><time>2026-05-02T12:56:39Z</time></trkpt><trkpt lat="44.32993830638525" lon="10.824255316788554"><ele>711.0</ele><time>2026-05-02T12:56:41Z</time></trkpt><trkpt lat="44.32987735139848" lon="10.824140991796655"><ele>711.0</ele><time>2026-05-02T12:56:43Z</time></trkpt><trkpt lat="44.3298091262762" lon="10.824036836813708"><ele>711.0</ele><time>2026-05-02T12:56:45Z</time></trkpt><trkpt lat="44.32974350101016" lon="10.824061999177106"><ele>711.0</ele><time>2026-05-02T12:56:48Z</time></trkpt><trkpt lat="44.329809711237075" lon="10.824066370843907"><ele>711.0</ele><time>2026-05-02T12:57:09Z</time></trkpt><trkpt lat="44.329871260741626" lon="10.824132672936388"><ele>711.0</ele><time>2026-05-02T12:57:12Z</time></trkpt><trkpt lat="44.329936758523566" lon="10.824245372500174"><ele>711.0</ele><time>2026-05-02T12:57:14Z</time></trkpt><trkpt lat="44.3299472411416" lon="10.824384981116465"><ele>711.0</ele><time>2026-05-02T12:57:16Z</time></trkpt><trkpt lat="44.32995469948782" lon="10.824490960317783"><ele>711.0</ele><time>2026-05-02T12:57:17Z</time></trkpt><trkpt lat="44.3299670014642" lon="10.824615465343298"><ele>711.0</ele><time>2026-05-02T12:57:18Z</time></trkpt><trkpt lat="44.32997449148186" lon="10.824722444258647"><ele>711.0</ele><time>2026-05-02T12:57:19Z</time></trkpt><trkpt lat="44.32997260807498" lon="10.824815120697146"><ele>710.5999999999999</ele><time>2026-05-02T12:57:20Z</time></trkpt><trkpt lat="44.32998365860282" lon="10.824953632623675"><ele>710.2</ele><time>2026-05-02T12:57:22Z</time></trkpt><trkpt lat="44.33000844130303" lon="10.82511363667015"><ele>709.8</ele><time>2026-05-02T12:57:24Z</time></trkpt><trkpt lat="44.33001396839912" lon="10.82528897307651"><ele>709.4000000000001</ele><time>2026-05-02T12:57:26Z</time></trkpt><trkpt lat="44.33004124378985" lon="10.825389172168721"><ele>709.0</ele><time>2026-05-02T12:57:27Z</time></trkpt><trkpt lat="44.33005117978549" lon="10.825501961447788"><ele>710.25</ele><time>2026-05-02T12:57:29Z</time></trkpt><trkpt lat="44.32987645694864" lon="10.825601335142979"><ele>711.5</ele><time>2026-05-02T12:57:33Z</time></trkpt><trkpt lat="44.32979089911388" lon="10.825601858515327"><ele>712.75</ele><time>2026-05-02T12:57:35Z</time></trkpt><trkpt lat="44.329698482038076" lon="10.825563061515764"><ele>714.0</ele><time>2026-05-02T12:57:38Z</time></trkpt><trkpt lat="44.3296059650336" lon="10.825543061638472"><ele>711.8333333333334</ele><time>2026-05-02T12:57:40Z</time></trkpt><trkpt lat="44.329520411097505" lon="10.825560789238097"><ele>709.6666666666666</ele><time>2026-05-02T12:57:43Z</time></trkpt><trkpt lat="44.329441693028244" lon="10.825630836048697"><ele>707.5</ele><time>2026-05-02T12:57:45Z</time></trkpt><trkpt lat="44.3293949696004" lon="10.825700435938218"><ele>705.3333333333333</ele><time>2026-05-02T12:57:47Z</time></trkpt><trkpt lat="44.32936503464743" lon="10.825792825453199"><ele>703.1666666666666</ele><time>2026-05-02T12:57:49Z</time></trkpt><trkpt lat="44.329305686380586" lon="10.825888572814454"><ele>701.0</ele><time>2026-05-02T12:57:51Z</time></trkpt><trkpt lat="44.32925438625416" lon="10.825960695307698"><ele>700.8333333333333</ele><time>2026-05-02T12:57:53Z</time></trkpt><trkpt lat="44.32919018403223" lon="10.826010335251285"><ele>700.6666666666666</ele><time>2026-05-02T12:57:55Z</time></trkpt><trkpt lat="44.32908936707588" lon="10.826030397904702"><ele>700.5</ele><time>2026-05-02T12:57:57Z</time></trkpt><trkpt lat="44.32898101879012" lon="10.826049161285349"><ele>700.3333333333334</ele><time>2026-05-02T12:57:59Z</time></trkpt><trkpt lat="44.3288850268859" lon="10.826045390007216"><ele>700.1666666666667</ele><time>2026-05-02T12:58:01Z</time></trkpt><trkpt lat="44.32882707643879" lon="10.82600196771725"><ele>700.0</ele><time>2026-05-02T12:58:02Z</time></trkpt><trkpt lat="44.32876129131874" lon="10.825912995017957"><ele>698.8</ele><time>2026-05-02T12:58:04Z</time></trkpt><trkpt lat="44.32868626586501" lon="10.8258592799846"><ele>697.6</ele><time>2026-05-02T12:58:07Z</time></trkpt><trkpt lat="44.32863334671267" lon="10.82596299136702"><ele>696.4000000000001</ele><time>2026-05-02T12:58:08Z</time></trkpt><trkpt lat="44.32859382492225" lon="10.826117860414278"><ele>695.2</ele><time>2026-05-02T12:58:10Z</time></trkpt><trkpt lat="44.32857732192756" lon="10.826288751083858"><ele>694.0</ele><time>2026-05-02T12:58:12Z</time></trkpt><trkpt lat="44.32856588528753" lon="10.826394393208187"><ele>693.6</ele><time>2026-05-02T12:58:13Z</time></trkpt><trkpt lat="44.3285295909736" lon="10.826501169274149"><ele>693.2</ele><time>2026-05-02T12:58:14Z</time></trkpt><trkpt lat="44.328478069387145" lon="10.82658247508958"><ele>692.8000000000001</ele><time>2026-05-02T12:58:15Z</time></trkpt><trkpt lat="44.32841437662597" lon="10.82668147216735"><ele>692.4000000000001</ele><time>2026-05-02T12:58:16Z</time></trkpt><trkpt lat="44.32833726241649" lon="10.82680527852239"><ele>692.0</ele><time>2026-05-02T12:58:17Z</time></trkpt><trkpt lat="44.32825750504196" lon="10.826931346689644"><ele>691.75</ele><time>2026-05-02T12:58:18Z</time></trkpt><trkpt lat="44.32818239783492" lon="10.827059362753719"><ele>691.5</ele><time>2026-05-02T12:58:19Z</time></trkpt><trkpt lat="44.32811346822519" lon="10.827187626674522"><ele>691.25</ele><time>2026-05-02T12:58:20Z</time></trkpt><trkpt lat="44.328049594542975" lon="10.827311882622203"><ele>691.0</ele><time>2026-05-02T12:58:21Z</time></trkpt><trkpt lat="44.32797300224831" lon="10.827462022302878"><ele>689.75</ele><time>2026-05-02T12:58:22Z</time></trkpt><trkpt lat="44.32790222058627" lon="10.827621946777263"><ele>688.5</ele><time>2026-05-02T12:58:23Z</time></trkpt><trkpt lat="44.32783733035636" lon="10.827795367443523"><ele>687.25</ele><time>2026-05-02T12:58:24Z</time></trkpt><trkpt lat="44.327778713109815" lon="10.827976263084754"><ele>686.0</ele><time>2026-05-02T12:58:25Z</time></trkpt><trkpt lat="44.32772683116171" lon="10.828152363803813"><ele>686.0</ele><time>2026-05-02T12:58:26Z</time></trkpt><trkpt lat="44.327676972903305" lon="10.82832426023377"><ele>686.0</ele><time>2026-05-02T12:58:27Z</time></trkpt><trkpt lat="44.32762642178557" lon="10.828490753024582"><ele>686.0</ele><time>2026-05-02T12:58:28Z</time></trkpt><trkpt lat="44.32758012369498" lon="10.82866862840157"><ele>686.0</ele><time>2026-05-02T12:58:29Z</time></trkpt><trkpt lat="44.327550277034234" lon="10.828838851225067"><ele>685.75</ele><time>2026-05-02T12:58:30Z</time></trkpt><trkpt lat="44.327532082472764" lon="10.828998754347705"><ele>685.5</ele><time>2026-05-02T12:58:31Z</time></trkpt><trkpt lat="44.32752410967003" lon="10.829165273997065"><ele>685.25</ele><time>2026-05-02T12:58:32Z</time></trkpt><trkpt lat="44.32751692716121" lon="10.829342235217277"><ele>685.0</ele><time>2026-05-02T12:58:33Z</time></trkpt><trkpt lat="44.32750402412355" lon="10.829504725474772"><ele>684.5</ele><time>2026-05-02T12:58:34Z</time></trkpt><trkpt lat="44.32749092186158" lon="10.829655052358401"><ele>684.0</ele><time>2026-05-02T12:58:35Z</time></trkpt><trkpt lat="44.327479437555276" lon="10.82982088803697"><ele>683.5</ele><time>2026-05-02T12:58:36Z</time></trkpt><trkpt lat="44.32747014816585" lon="10.829982517287194"><ele>683.0</ele><time>2026-05-02T12:58:37Z</time></trkpt><trkpt lat="44.327458769554006" lon="10.830136774300696"><ele>682.5999999999999</ele><time>2026-05-02T12:58:38Z</time></trkpt><trkpt lat="44.32744689205314" lon="10.830271932927781"><ele>682.1999999999999</ele><time>2026-05-02T12:58:39Z</time></trkpt><trkpt lat="44.32743574571425" lon="10.830417300761036"><ele>681.8</ele><time>2026-05-02T12:58:40Z</time></trkpt><trkpt lat="44.327426786299945" lon="10.830547954822165"><ele>681.4</ele><time>2026-05-02T12:58:41Z</time></trkpt><trkpt lat="44.32742097650596" lon="10.830667382689256"><ele>681.0</ele><time>2026-05-02T12:58:42Z</time></trkpt><trkpt lat="44.327411090639565" lon="10.830773675485052"><ele>681.0</ele><time>2026-05-02T12:58:43Z</time></trkpt><trkpt lat="44.32740104677891" lon="10.830888296487528"><ele>681.0</ele><time>2026-05-02T12:58:45Z</time></trkpt><trkpt lat="44.327388892053285" lon="10.830993428965417"><ele>681.0</ele><time>2026-05-02T12:58:50Z</time></trkpt><trkpt lat="44.32757671580467" lon="10.831018849056452"><ele>681.0</ele><time>2026-05-02T12:58:51Z</time></trkpt><trkpt lat="44.327663804566505" lon="10.831021473107102"><ele>681.0</ele><time>2026-05-02T12:58:52Z</time></trkpt><trkpt lat="44.32776979615253" lon="10.831037325232508"><ele>680.8</ele><time>2026-05-02T12:58:53Z</time></trkpt><trkpt lat="44.32787608011613" lon="10.831057392193543"><ele>680.5999999999999</ele><time>2026-05-02T12:58:54Z</time></trkpt><trkpt lat="44.32797821899468" lon="10.83107054618054"><ele>680.4</ele><time>2026-05-02T12:58:55Z</time></trkpt><trkpt lat="44.32808622079595" lon="10.831079786018392"><ele>680.2</ele><time>2026-05-02T12:58:56Z</time></trkpt><trkpt lat="44.32819537611861" lon="10.83109517356607"><ele>680.0</ele><time>2026-05-02T12:58:57Z</time></trkpt><trkpt lat="44.32829591630508" lon="10.831111071832574"><ele>680.0</ele><time>2026-05-02T12:58:58Z</time></trkpt><trkpt lat="44.32841612533931" lon="10.831130510784773"><ele>680.0</ele><time>2026-05-02T12:58:59Z</time></trkpt><trkpt lat="44.328527141518926" lon="10.83114163574171"><ele>680.0</ele><time>2026-05-02T12:59:00Z</time></trkpt><trkpt lat="44.328636365195216" lon="10.83116175003451"><ele>680.0</ele><time>2026-05-02T12:59:01Z</time></trkpt><trkpt lat="44.32875257879994" lon="10.8311857141619"><ele>680.0</ele><time>2026-05-02T12:59:02Z</time></trkpt><trkpt lat="44.32886271214901" lon="10.831210148382606"><ele>680.0</ele><time>2026-05-02T12:59:03Z</time></trkpt><trkpt lat="44.32898923465508" lon="10.831227317806793"><ele>680.0</ele><time>2026-05-02T12:59:04Z</time></trkpt><trkpt lat="44.32911379332931" lon="10.831243624690476"><ele>680.0</ele><time>2026-05-02T12:59:05Z</time></trkpt><trkpt lat="44.3292291646434" lon="10.83126395941063"><ele>680.0</ele><time>2026-05-02T12:59:06Z</time></trkpt><trkpt lat="44.32932899872937" lon="10.831276635322999"><ele>680.0</ele><time>2026-05-02T12:59:07Z</time></trkpt><trkpt lat="44.329442374189064" lon="10.831288861955144"><ele>680.0</ele><time>2026-05-02T12:59:08Z</time></trkpt><trkpt lat="44.329548413455996" lon="10.831304511193565"><ele>680.0</ele><time>2026-05-02T12:59:09Z</time></trkpt><trkpt lat="44.32964819786388" lon="10.831320012511823"><ele>680.0</ele><time>2026-05-02T12:59:10Z</time></trkpt><trkpt lat="44.32975322618404" lon="10.831336605929362"><ele>680.0</ele><time>2026-05-02T12:59:11Z</time></trkpt><trkpt lat="44.32984939128624" lon="10.831354948556195"><ele>680.0</ele><time>2026-05-02T12:59:12Z</time></trkpt><trkpt lat="44.329946539550654" lon="10.831368196562194"><ele>680.0</ele><time>2026-05-02T12:59:13Z</time></trkpt><trkpt lat="44.330029580950594" lon="10.831378039780494"><ele>680.0</ele><time>2026-05-02T12:59:14Z</time></trkpt><trkpt lat="44.33012684949748" lon="10.831384254271308"><ele>680.0</ele><time>2026-05-02T12:59:15Z</time></trkpt><trkpt lat="44.3301984792129" lon="10.831393083654989"><ele>680.0</ele><time>2026-05-02T12:59:16Z</time></trkpt><trkpt lat="44.330277178689535" lon="10.831404446828772"><ele>680.0</ele><time>2026-05-02T12:59:17Z</time></trkpt><trkpt lat="44.33035644055449" lon="10.831413316879317"><ele>680.0</ele><time>2026-05-02T12:59:18Z</time></trkpt><trkpt lat="44.33042348379632" lon="10.831425256875882"><ele>680.0</ele><time>2026-05-02T12:59:19Z</time></trkpt><trkpt lat="44.33049470647297" lon="10.831445348692352"><ele>680.0</ele><time>2026-05-02T12:59:20Z</time></trkpt><trkpt lat="44.33061477452314" lon="10.831481327830426"><ele>680.0</ele><time>2026-05-02T12:59:22Z</time></trkpt><trkpt lat="44.33073011958755" lon="10.831501414930734"><ele>679.3333333333333</ele><time>2026-05-02T12:59:24Z</time></trkpt><trkpt lat="44.33081102143847" lon="10.831502193675044"><ele>678.6666666666666</ele><time>2026-05-02T12:59:26Z</time></trkpt><trkpt lat="44.33089193237672" lon="10.831496139851732"><ele>678.0</ele><time>2026-05-02T12:59:31Z</time></trkpt><trkpt lat="44.330956029754255" lon="10.831489162666"><ele>677.3333333333334</ele><time>2026-05-02T12:59:32Z</time></trkpt><trkpt lat="44.33103910474462" lon="10.83134735380032"><ele>676.6666666666667</ele><time>2026-05-02T12:59:34Z</time></trkpt><trkpt lat="44.331084879818874" lon="10.831254952903356"><ele>676.0</ele><time>2026-05-02T12:59:35Z</time></trkpt><trkpt lat="44.33115782342397" lon="10.831187819878428"><ele>676.0</ele><time>2026-05-02T12:59:36Z</time></trkpt><trkpt lat="44.33123087051035" lon="10.831121655009852"><ele>676.0</ele><time>2026-05-02T12:59:37Z</time></trkpt><trkpt lat="44.33133858800474" lon="10.831037610052352"><ele>676.0</ele><time>2026-05-02T12:59:39Z</time></trkpt><trkpt lat="44.331394412395944" lon="10.830964030501011"><ele>676.0</ele><time>2026-05-02T12:59:41Z</time></trkpt><trkpt lat="44.331470973114364" lon="10.831105071411596"><ele>676.0</ele><time>2026-05-02T12:59:42Z</time></trkpt><trkpt lat="44.33146235810611" lon="10.831194787140364"><ele>676.0</ele><time>2026-05-02T12:59:43Z</time></trkpt><trkpt lat="44.33146756520939" lon="10.8313164912427"><ele>676.0</ele><time>2026-05-02T12:59:45Z</time></trkpt><trkpt lat="44.33146864437635" lon="10.831422184772222"><ele>676.0</ele><time>2026-05-02T12:59:47Z</time></trkpt><trkpt lat="44.33146446895886" lon="10.831531715290476"><ele>676.0</ele><time>2026-05-02T12:59:49Z</time></trkpt><trkpt lat="44.33135403343368" lon="10.831548077704076"><ele>676.0</ele><time>2026-05-02T12:59:50Z</time></trkpt><trkpt lat="44.33124536459326" lon="10.831561805393777"><ele>676.0</ele><time>2026-05-02T12:59:52Z</time></trkpt><trkpt lat="44.331219276056764" lon="10.831659293170507"><ele>676.0</ele><time>2026-05-02T12:59:53Z</time></trkpt><trkpt lat="44.331211255114866" lon="10.831761985746635"><ele>676.0</ele><time>2026-05-02T12:59:54Z</time></trkpt><trkpt lat="44.331217364554696" lon="10.831866428885155"><ele>676.0</ele><time>2026-05-02T12:59:55Z</time></trkpt><trkpt lat="44.3312342532466" lon="10.831998024409438"><ele>676.0</ele><time>2026-05-02T12:59:56Z</time></trkpt><trkpt lat="44.33124252406233" lon="10.832110780674363"><ele>676.0</ele><time>2026-05-02T12:59:57Z</time></trkpt><trkpt lat="44.331256694940016" lon="10.832272457335332"><ele>676.1666666666667</ele><time>2026-05-02T12:59:59Z</time></trkpt><trkpt lat="44.33126868321521" lon="10.832414469516817"><ele>676.3333333333334</ele><time>2026-05-02T13:00:01Z</time></trkpt><trkpt lat="44.331287925081924" lon="10.832522166018457"><ele>676.5</ele><time>2026-05-02T13:00:02Z</time></trkpt><trkpt lat="44.33129390569602" lon="10.832610250206342"><ele>676.6666666666666</ele><time>2026-05-02T13:00:03Z</time></trkpt><trkpt lat="44.33129938626557" lon="10.832773361062191"><ele>676.8333333333333</ele><time>2026-05-02T13:00:05Z</time></trkpt><trkpt lat="44.331297679946026" lon="10.832883077317405"><ele>677.0</ele><time>2026-05-02T13:00:07Z</time></trkpt><trkpt lat="44.33116039475928" lon="10.832979167155466"><ele>677.0</ele><time>2026-05-02T13:00:15Z</time></trkpt><trkpt lat="44.331093656653124" lon="10.832998152909688"><ele>677.0</ele><time>2026-05-02T13:00:16Z</time></trkpt><trkpt lat="44.3310351061765" lon="10.833050609953034"><ele>677.0</ele><time>2026-05-02T13:00:17Z</time></trkpt><trkpt lat="44.33096338206864" lon="10.833145503933107"><ele>677.0</ele><time>2026-05-02T13:00:18Z</time></trkpt><trkpt lat="44.33088283327393" lon="10.833215323001339"><ele>677.0</ele><time>2026-05-02T13:00:19Z</time></trkpt><trkpt lat="44.33079753385221" lon="10.833289937918723"><ele>677.0</ele><time>2026-05-02T13:00:20Z</time></trkpt><trkpt lat="44.330705870236436" lon="10.833371830080628"><ele>677.0</ele><time>2026-05-02T13:00:21Z</time></trkpt><trkpt lat="44.33061045963253" lon="10.833461684764211"><ele>677.0</ele><time>2026-05-02T13:00:22Z</time></trkpt><trkpt lat="44.330524794581805" lon="10.83353946444502"><ele>677.0</ele><time>2026-05-02T13:00:23Z</time></trkpt><trkpt lat="44.33044691882138" lon="10.833607551027391"><ele>677.0</ele><time>2026-05-02T13:00:24Z</time></trkpt><trkpt lat="44.3303657872844" lon="10.833685247519425"><ele>677.0</ele><time>2026-05-02T13:00:25Z</time></trkpt><trkpt lat="44.33028955644578" lon="10.83374615594381"><ele>677.3333333333333</ele><time>2026-05-02T13:00:26Z</time></trkpt><trkpt lat="44.33021868110465" lon="10.833800102401025"><ele>677.6666666666666</ele><time>2026-05-02T13:00:27Z</time></trkpt><trkpt lat="44.33014380920515" lon="10.833880240870933"><ele>678.0</ele><time>2026-05-02T13:00:28Z</time></trkpt><trkpt lat="44.3300655188902" lon="10.833939649028514"><ele>678.3333333333334</ele><time>2026-05-02T13:00:29Z</time></trkpt><trkpt lat="44.32998311748046" lon="10.833981314329034"><ele>678.6666666666667</ele><time>2026-05-02T13:00:30Z</time></trkpt><trkpt lat="44.32992029788732" lon="10.834014922875616"><ele>679.0</ele><time>2026-05-02T13:00:31Z</time></trkpt><trkpt lat="44.32984421723762" lon="10.834020639912083"><ele>679.0</ele><time>2026-05-02T13:00:32Z</time></trkpt><trkpt lat="44.329791589649204" lon="10.834099055460984"><ele>679.0</ele><time>2026-05-02T13:00:33Z</time></trkpt><trkpt lat="44.32974922695217" lon="10.834195534197528"><ele>679.0</ele><time>2026-05-02T13:00:34Z</time></trkpt><trkpt lat="44.32972043345108" lon="10.834331745081645"><ele>679.0</ele><time>2026-05-02T13:00:35Z</time></trkpt><trkpt lat="44.32970019932555" lon="10.834469081911525"><ele>679.0</ele><time>2026-05-02T13:00:36Z</time></trkpt><trkpt lat="44.329663412157544" lon="10.834637887214997"><ele>679.3333333333334</ele><time>2026-05-02T13:00:37Z</time></trkpt><trkpt lat="44.32960991319925" lon="10.834836923005467"><ele>679.6666666666666</ele><time>2026-05-02T13:00:38Z</time></trkpt><trkpt lat="44.32955960586348" lon="10.83504126595222"><ele>680.0</ele><time>2026-05-02T13:00:39Z</time></trkpt><trkpt lat="44.32951575656264" lon="10.835244295540374"><ele>679.5</ele><time>2026-05-02T13:00:40Z</time></trkpt><trkpt lat="44.32948031271476" lon="10.83540971245664"><ele>679.0</ele><time>2026-05-02T13:00:41Z</time></trkpt><trkpt lat="44.32944162138566" lon="10.835560669009459"><ele>678.5</ele><time>2026-05-02T13:00:42Z</time></trkpt><trkpt lat="44.32940216812212" lon="10.835712028090091"><ele>678.0</ele><time>2026-05-02T13:00:43Z</time></trkpt><trkpt lat="44.32936368575572" lon="10.835871946015082"><ele>677.8</ele><time>2026-05-02T13:00:44Z</time></trkpt><trkpt lat="44.329328852417085" lon="10.836032221265896"><ele>677.5999999999999</ele><time>2026-05-02T13:00:45Z</time></trkpt><trkpt lat="44.329297409711344" lon="10.836177155090155"><ele>677.4000000000001</ele><time>2026-05-02T13:00:46Z</time></trkpt><trkpt lat="44.32926801189394" lon="10.836307054550346"><ele>677.2</ele><time>2026-05-02T13:00:47Z</time></trkpt><trkpt lat="44.329243509272594" lon="10.836416067724542"><ele>677.0</ele><time>2026-05-02T13:00:48Z</time></trkpt><trkpt lat="44.329211907458436" lon="10.836516018808144"><ele>677.0</ele><time>2026-05-02T13:00:49Z</time></trkpt><trkpt lat="44.32916927606184" lon="10.836621339487374"><ele>677.0</ele><time>2026-05-02T13:00:50Z</time></trkpt><trkpt lat="44.329121125945036" lon="10.836712982186468"><ele>677.0</ele><time>2026-05-02T13:00:51Z</time></trkpt><trkpt lat="44.32905926411124" lon="10.836811579027103"><ele>677.0</ele><time>2026-05-02T13:00:52Z</time></trkpt><trkpt lat="44.32899452343604" lon="10.836888452157098"><ele>677.0</ele><time>2026-05-02T13:00:53Z</time></trkpt><trkpt lat="44.328917840499926" lon="10.836930213246909"><ele>677.0</ele><time>2026-05-02T13:00:54Z</time></trkpt><trkpt lat="44.328808570640405" lon="10.836930436966561"><ele>677.25</ele><time>2026-05-02T13:00:55Z</time></trkpt><trkpt lat="44.32867542553595" lon="10.836963668685412"><ele>677.5</ele><time>2026-05-02T13:00:56Z</time></trkpt><trkpt lat="44.32853384371966" lon="10.836980220321411"><ele>677.75</ele><time>2026-05-02T13:00:57Z</time></trkpt><trkpt lat="44.32841409678358" lon="10.836998057139896"><ele>678.0</ele><time>2026-05-02T13:00:58Z</time></trkpt><trkpt lat="44.32829404101091" lon="10.837016426625748"><ele>678.0</ele><time>2026-05-02T13:00:59Z</time></trkpt><trkpt lat="44.32817022817339" lon="10.837035718184284"><ele>678.0</ele><time>2026-05-02T13:01:00Z</time></trkpt><trkpt lat="44.328039413933496" lon="10.837055569383264"><ele>678.0</ele><time>2026-05-02T13:01:01Z</time></trkpt><trkpt lat="44.32789047346542" lon="10.8370679347916"><ele>678.0</ele><time>2026-05-02T13:01:02Z</time></trkpt><trkpt lat="44.32774483044887" lon="10.83708521899719"><ele>678.0</ele><time>2026-05-02T13:01:03Z</time></trkpt><trkpt lat="44.3276084122449" lon="10.837107987994763"><ele>678.0</ele><time>2026-05-02T13:01:04Z</time></trkpt><trkpt lat="44.32747964666876" lon="10.837128921285025"><ele>678.0</ele><time>2026-05-02T13:01:05Z</time></trkpt><trkpt lat="44.32735018893731" lon="10.837151717169892"><ele>678.0</ele><time>2026-05-02T13:01:06Z</time></trkpt><trkpt lat="44.32721721146563" lon="10.837175055614722"><ele>678.0</ele><time>2026-05-02T13:01:07Z</time></trkpt><trkpt lat="44.32708915562594" lon="10.837193724884191"><ele>678.0</ele><time>2026-05-02T13:01:08Z</time></trkpt><trkpt lat="44.32696863563971" lon="10.837217044076251"><ele>678.0</ele><time>2026-05-02T13:01:09Z</time></trkpt><trkpt lat="44.32685652594629" lon="10.837239284877972"><ele>678.0</ele><time>2026-05-02T13:01:10Z</time></trkpt><trkpt lat="44.32674126978707" lon="10.837258489183517"><ele>678.0</ele><time>2026-05-02T13:01:11Z</time></trkpt><trkpt lat="44.32662136030799" lon="10.837292709756746"><ele>678.0</ele><time>2026-05-02T13:01:12Z</time></trkpt><trkpt lat="44.32651108959515" lon="10.837331782856985"><ele>678.0</ele><time>2026-05-02T13:01:13Z</time></trkpt><trkpt lat="44.32640960806854" lon="10.837368811665923"><ele>678.0</ele><time>2026-05-02T13:01:14Z</time></trkpt><trkpt lat="44.32630516818165" lon="10.837410622662507"><ele>678.5999999999999</ele><time>2026-05-02T13:01:15Z</time></trkpt><trkpt lat="44.326207615116736" lon="10.837450708281056"><ele>679.1999999999999</ele><time>2026-05-02T13:01:16Z</time></trkpt><trkpt lat="44.32610707566566" lon="10.837490802898643"><ele>679.8</ele><time>2026-05-02T13:01:17Z</time></trkpt><trkpt lat="44.326013714535" lon="10.837524111911785"><ele>680.4</ele><time>2026-05-02T13:01:18Z</time></trkpt><trkpt lat="44.32591830171306" lon="10.837538986858005"><ele>681.0</ele><time>2026-05-02T13:01:19Z</time></trkpt><trkpt lat="44.32583577506128" lon="10.837547467390028"><ele>681.0</ele><time>2026-05-02T13:01:20Z</time></trkpt><trkpt lat="44.325741416326366" lon="10.83753081118462"><ele>681.0</ele><time>2026-05-02T13:01:21Z</time></trkpt><trkpt lat="44.32564235385949" lon="10.837527909309326"><ele>681.0</ele><time>2026-05-02T13:01:22Z</time></trkpt><trkpt lat="44.32554470977245" lon="10.837540368051744"><ele>681.0</ele><time>2026-05-02T13:01:23Z</time></trkpt><trkpt lat="44.32544541720014" lon="10.837530445224962"><ele>681.0</ele><time>2026-05-02T13:01:24Z</time></trkpt><trkpt lat="44.325341815278435" lon="10.837497607356388"><ele>681.1999999999999</ele><time>2026-05-02T13:01:25Z</time></trkpt><trkpt lat="44.32523838996996" lon="10.83750610783787"><ele>681.4</ele><time>2026-05-02T13:01:26Z</time></trkpt><trkpt lat="44.32513437668695" lon="10.837487626379492"><ele>681.6</ele><time>2026-05-02T13:01:27Z</time></trkpt><trkpt lat="44.325026481327846" lon="10.837474080058408"><ele>681.8</ele><time>2026-05-02T13:01:28Z</time></trkpt><trkpt lat="44.3249223950166" lon="10.837478367917807"><ele>682.0</ele><time>2026-05-02T13:01:29Z</time></trkpt><trkpt lat="44.32482773871231" lon="10.837502124712003"><ele>682.0</ele><time>2026-05-02T13:01:30Z</time></trkpt><trkpt lat="44.32473516757489" lon="10.837513985128897"><ele>682.0</ele><time>2026-05-02T13:01:31Z</time></trkpt><trkpt lat="44.32465756556784" lon="10.837544666468597"><ele>682.0</ele><time>2026-05-02T13:01:32Z</time></trkpt><trkpt lat="44.32458499691494" lon="10.83756345719944"><ele>682.0</ele><time>2026-05-02T13:01:33Z</time></trkpt><trkpt lat="44.3245129645318" lon="10.83758458025645"><ele>682.0</ele><time>2026-05-02T13:01:34Z</time></trkpt><trkpt lat="44.3243971911945" lon="10.837612933565666"><ele>682.0</ele><time>2026-05-02T13:01:36Z</time></trkpt><trkpt lat="44.324314405155356" lon="10.837641723814526"><ele>681.2</ele><time>2026-05-02T13:01:38Z</time></trkpt><trkpt lat="44.32419993658252" lon="10.837660945251892"><ele>680.4000000000001</ele><time>2026-05-02T13:01:40Z</time></trkpt><trkpt lat="44.32411937699057" lon="10.837645891110709"><ele>679.5999999999999</ele><time>2026-05-02T13:01:41Z</time></trkpt><trkpt lat="44.324038851152594" lon="10.837649053519458"><ele>678.8</ele><time>2026-05-02T13:01:42Z</time></trkpt><trkpt lat="44.323947208169095" lon="10.837649158215301"><ele>678.0</ele><time>2026-05-02T13:01:43Z</time></trkpt><trkpt lat="44.32384667894826" lon="10.83763582615816"><ele>678.2</ele><time>2026-05-02T13:01:44Z</time></trkpt><trkpt lat="44.323745923840306" lon="10.837603334187005"><ele>678.4</ele><time>2026-05-02T13:01:45Z</time></trkpt><trkpt lat="44.3236335315634" lon="10.837549636668687"><ele>678.6</ele><time>2026-05-02T13:01:46Z</time></trkpt><trkpt lat="44.32353445076844" lon="10.837495264239976"><ele>678.8000000000001</ele><time>2026-05-02T13:01:47Z</time></trkpt><trkpt lat="44.323433933000366" lon="10.837436898205116"><ele>679.0</ele><time>2026-05-02T13:01:48Z</time></trkpt><trkpt lat="44.32333186489992" lon="10.837372513056053"><ele>679.0</ele><time>2026-05-02T13:01:49Z</time></trkpt><trkpt lat="44.32322770060056" lon="10.837314813160699"><ele>679.0</ele><time>2026-05-02T13:01:50Z</time></trkpt><trkpt lat="44.32313718846923" lon="10.837270725042652"><ele>679.0</ele><time>2026-05-02T13:01:51Z</time></trkpt><trkpt lat="44.32303396928717" lon="10.837213698679012"><ele>679.0</ele><time>2026-05-02T13:01:52Z</time></trkpt><trkpt lat="44.32292967115479" lon="10.837146401692465"><ele>679.0</ele><time>2026-05-02T13:01:53Z</time></trkpt><trkpt lat="44.32282657163618" lon="10.837083943163114"><ele>678.75</ele><time>2026-05-02T13:01:54Z</time></trkpt><trkpt lat="44.32271914528906" lon="10.837029498638008"><ele>678.5</ele><time>2026-05-02T13:01:55Z</time></trkpt><trkpt lat="44.322621465061424" lon="10.836973284370947"><ele>678.25</ele><time>2026-05-02T13:01:56Z</time></trkpt><trkpt lat="44.32251850785785" lon="10.836904424144945"><ele>678.0</ele><time>2026-05-02T13:01:57Z</time></trkpt><trkpt lat="44.32240611712051" lon="10.836837575243813"><ele>679.0</ele><time>2026-05-02T13:01:58Z</time></trkpt><trkpt lat="44.32228955682254" lon="10.836772213666675"><ele>680.0</ele><time>2026-05-02T13:01:59Z</time></trkpt><trkpt lat="44.322170719356684" lon="10.836702615572147"><ele>681.0</ele><time>2026-05-02T13:02:00Z</time></trkpt><trkpt lat="44.32205209852713" lon="10.836629414123154"><ele>682.0</ele><time>2026-05-02T13:02:01Z</time></trkpt><trkpt lat="44.321932250714845" lon="10.836552403332872"><ele>682.0</ele><time>2026-05-02T13:02:02Z</time></trkpt><trkpt lat="44.32182173659161" lon="10.836474836685078"><ele>682.0</ele><time>2026-05-02T13:02:03Z</time></trkpt><trkpt lat="44.32170921635213" lon="10.836390846165923"><ele>682.0</ele><time>2026-05-02T13:02:04Z</time></trkpt><trkpt lat="44.32160176793475" lon="10.836306867818482"><ele>682.0</ele><time>2026-05-02T13:02:05Z</time></trkpt><trkpt lat="44.321489540291545" lon="10.836224925113699"><ele>682.25</ele><time>2026-05-02T13:02:06Z</time></trkpt><trkpt lat="44.32137496533041" lon="10.836144004862739"><ele>682.5</ele><time>2026-05-02T13:02:07Z</time></trkpt><trkpt lat="44.32126668608993" lon="10.83605213289472"><ele>682.75</ele><time>2026-05-02T13:02:08Z</time></trkpt><trkpt lat="44.32116042952911" lon="10.835957768098474"><ele>683.0</ele><time>2026-05-02T13:02:09Z</time></trkpt><trkpt lat="44.32104939335678" lon="10.835863394538906"><ele>683.0</ele><time>2026-05-02T13:02:10Z</time></trkpt><trkpt lat="44.32093421860184" lon="10.835771472911995"><ele>683.0</ele><time>2026-05-02T13:02:11Z</time></trkpt><trkpt lat="44.320816739893864" lon="10.83566808832504"><ele>683.0</ele><time>2026-05-02T13:02:12Z</time></trkpt><trkpt lat="44.320693536542265" lon="10.835558290414129"><ele>683.0</ele><time>2026-05-02T13:02:13Z</time></trkpt><trkpt lat="44.32057050227594" lon="10.835457070887818"><ele>683.0</ele><time>2026-05-02T13:02:14Z</time></trkpt><trkpt lat="44.3204339862525" lon="10.835347927878331"><ele>683.0</ele><time>2026-05-02T13:02:15Z</time></trkpt><trkpt lat="44.32031042176259" lon="10.835255310941518"><ele>683.0</ele><time>2026-05-02T13:02:16Z</time></trkpt><trkpt lat="44.32018326860766" lon="10.835154479360469"><ele>683.0</ele><time>2026-05-02T13:02:17Z</time></trkpt><trkpt lat="44.32006078625327" lon="10.835060579271483"><ele>683.0</ele><time>2026-05-02T13:02:18Z</time></trkpt><trkpt lat="44.31993652349793" lon="10.834963284365799"><ele>683.0</ele><time>2026-05-02T13:02:19Z</time></trkpt><trkpt lat="44.31980865715368" lon="10.834858472069344"><ele>683.0</ele><time>2026-05-02T13:02:20Z</time></trkpt><trkpt lat="44.319687984565505" lon="10.834754410083695"><ele>683.0</ele><time>2026-05-02T13:02:21Z</time></trkpt><trkpt lat="44.3195622162572" lon="10.834648037856626"><ele>682.75</ele><time>2026-05-02T13:02:22Z</time></trkpt><trkpt lat="44.31943704651934" lon="10.834550867106781"><ele>682.5</ele><time>2026-05-02T13:02:23Z</time></trkpt><trkpt lat="44.3193035358644" lon="10.83445380273605"><ele>682.25</ele><time>2026-05-02T13:02:24Z</time></trkpt><trkpt lat="44.31917390616742" lon="10.834357056305917"><ele>682.0</ele><time>2026-05-02T13:02:25Z</time></trkpt><trkpt lat="44.31905694788502" lon="10.83425343965378"><ele>682.6666666666667</ele><time>2026-05-02T13:02:26Z</time></trkpt><trkpt lat="44.318931176550166" lon="10.834149196505425"><ele>683.3333333333334</ele><time>2026-05-02T13:02:27Z</time></trkpt><trkpt lat="44.31879152480769" lon="10.83405176107219"><ele>684.0</ele><time>2026-05-02T13:02:28Z</time></trkpt><trkpt lat="44.31864910477667" lon="10.833957995627339"><ele>684.0</ele><time>2026-05-02T13:02:29Z</time></trkpt><trkpt lat="44.31852124624502" lon="10.833865262371093"><ele>684.0</ele><time>2026-05-02T13:02:30Z</time></trkpt><trkpt lat="44.31839497910751" lon="10.83377604657697"><ele>684.0</ele><time>2026-05-02T13:02:31Z</time></trkpt><trkpt lat="44.31826804016143" lon="10.833700542696683"><ele>684.0</ele><time>2026-05-02T13:02:32Z</time></trkpt><trkpt lat="44.31813099819596" lon="10.833631207929702"><ele>683.0</ele><time>2026-05-02T13:02:33Z</time></trkpt><trkpt lat="44.31800441941914" lon="10.833564872861457"><ele>682.0</ele><time>2026-05-02T13:02:34Z</time></trkpt><trkpt lat="44.317867078143124" lon="10.833486074103902"><ele>681.0</ele><time>2026-05-02T13:02:35Z</time></trkpt><trkpt lat="44.31773484541594" lon="10.83340524151976"><ele>680.0</ele><time>2026-05-02T13:02:36Z</time></trkpt><trkpt lat="44.31759094629135" lon="10.833323513397762"><ele>681.0</ele><time>2026-05-02T13:02:37Z</time></trkpt><trkpt lat="44.31746317004612" lon="10.833254585260237"><ele>682.0</ele><time>2026-05-02T13:02:38Z</time></trkpt><trkpt lat="44.31734485140492" lon="10.833190360911331"><ele>683.0</ele><time>2026-05-02T13:02:39Z</time></trkpt><trkpt lat="44.31720509660082" lon="10.8331106719869"><ele>684.0</ele><time>2026-05-02T13:02:40Z</time></trkpt><trkpt lat="44.31707561860135" lon="10.83303324474218"><ele>684.0</ele><time>2026-05-02T13:02:41Z</time></trkpt><trkpt lat="44.31693553226453" lon="10.832961715075088"><ele>684.0</ele><time>2026-05-02T13:02:42Z</time></trkpt><trkpt lat="44.31679951458441" lon="10.83289485593864"><ele>684.0</ele><time>2026-05-02T13:02:43Z</time></trkpt><trkpt lat="44.31664782100996" lon="10.832834445711923"><ele>684.0</ele><time>2026-05-02T13:02:44Z</time></trkpt><trkpt lat="44.31651320056943" lon="10.832792641303907"><ele>684.0</ele><time>2026-05-02T13:02:45Z</time></trkpt><trkpt lat="44.31636584482102" lon="10.832745453729789"><ele>684.0</ele><time>2026-05-02T13:02:46Z</time></trkpt><trkpt lat="44.31623801233311" lon="10.832703803498148"><ele>684.0</ele><time>2026-05-02T13:02:47Z</time></trkpt><trkpt lat="44.31609781386032" lon="10.832665321456647"><ele>683.75</ele><time>2026-05-02T13:02:48Z</time></trkpt><trkpt lat="44.31596398769853" lon="10.83265279738854"><ele>683.5</ele><time>2026-05-02T13:02:49Z</time></trkpt><trkpt lat="44.31581627334938" lon="10.83264263523116"><ele>683.25</ele><time>2026-05-02T13:02:50Z</time></trkpt><trkpt lat="44.31567267779035" lon="10.832625000135726"><ele>683.0</ele><time>2026-05-02T13:02:51Z</time></trkpt><trkpt lat="44.315521078532264" lon="10.832598134929595"><ele>684.6666666666666</ele><time>2026-05-02T13:02:52Z</time></trkpt><trkpt lat="44.31537220380642" lon="10.832575747533479"><ele>686.3333333333334</ele><time>2026-05-02T13:02:53Z</time></trkpt><trkpt lat="44.31521477640425" lon="10.832559951647635"><ele>688.0</ele><time>2026-05-02T13:02:54Z</time></trkpt><trkpt lat="44.315066194129855" lon="10.832542589060454"><ele>688.0</ele><time>2026-05-02T13:02:55Z</time></trkpt><trkpt lat="44.314907888322004" lon="10.832515453887785"><ele>688.0</ele><time>2026-05-02T13:02:56Z</time></trkpt><trkpt lat="44.314771011927036" lon="10.832496118211607"><ele>688.0</ele><time>2026-05-02T13:02:57Z</time></trkpt><trkpt lat="44.31459470794671" lon="10.83248478475832"><ele>688.0</ele><time>2026-05-02T13:02:58Z</time></trkpt><trkpt lat="44.3144162684635" lon="10.832477805145327"><ele>688.0</ele><time>2026-05-02T13:02:59Z</time></trkpt><trkpt lat="44.314200705459214" lon="10.832455001775818"><ele>688.0</ele><time>2026-05-02T13:03:00Z</time></trkpt><trkpt lat="44.31400895286457" lon="10.832412813424508"><ele>689.6666666666667</ele><time>2026-05-02T13:03:01Z</time></trkpt><trkpt lat="44.31383149402713" lon="10.832372040783103"><ele>691.3333333333334</ele><time>2026-05-02T13:03:02Z</time></trkpt><trkpt lat="44.31365261118423" lon="10.832339642657894"><ele>693.0</ele><time>2026-05-02T13:03:03Z</time></trkpt><trkpt lat="44.313485765554965" lon="10.832319297781506"><ele>693.0</ele><time>2026-05-02T13:03:04Z</time></trkpt><trkpt lat="44.31334910549602" lon="10.832302893911672"><ele>693.0</ele><time>2026-05-02T13:03:05Z</time></trkpt><trkpt lat="44.31318719278861" lon="10.832289319900706"><ele>693.0</ele><time>2026-05-02T13:03:06Z</time></trkpt><trkpt lat="44.31304571469414" lon="10.832263263688972"><ele>693.0</ele><time>2026-05-02T13:03:07Z</time></trkpt><trkpt lat="44.31291360493089" lon="10.832238917179303"><ele>693.5</ele><time>2026-05-02T13:03:08Z</time></trkpt><trkpt lat="44.31279304307169" lon="10.832214719231311"><ele>694.0</ele><time>2026-05-02T13:03:09Z</time></trkpt><trkpt lat="44.31268373544352" lon="10.832154295159542"><ele>694.5</ele><time>2026-05-02T13:03:10Z</time></trkpt><trkpt lat="44.312591386784746" lon="10.832041264866024"><ele>695.0</ele><time>2026-05-02T13:03:11Z</time></trkpt><trkpt lat="44.31252383381557" lon="10.831894339186414"><ele>696.0</ele><time>2026-05-02T13:03:12Z</time></trkpt><trkpt lat="44.31250503021444" lon="10.831713091848778"><ele>697.0</ele><time>2026-05-02T13:03:13Z</time></trkpt><trkpt lat="44.31249924204829" lon="10.831527262322869"><ele>698.0</ele><time>2026-05-02T13:03:14Z</time></trkpt><trkpt lat="44.3124796158675" lon="10.83134806325747"><ele>699.0</ele><time>2026-05-02T13:03:15Z</time></trkpt><trkpt lat="44.31247558743891" lon="10.831139706155431"><ele>700.3333333333334</ele><time>2026-05-02T13:03:16Z</time></trkpt><trkpt lat="44.31247191030514" lon="10.83092193496447"><ele>701.6666666666667</ele><time>2026-05-02T13:03:17Z</time></trkpt><trkpt lat="44.31245624018548" lon="10.830699862177909"><ele>703.0</ele><time>2026-05-02T13:03:18Z</time></trkpt><trkpt lat="44.312435196537855" lon="10.830491657888071"><ele>703.0</ele><time>2026-05-02T13:03:19Z</time></trkpt><trkpt lat="44.312418385237315" lon="10.830288042924861"><ele>703.0</ele><time>2026-05-02T13:03:20.001Z</time></trkpt><trkpt lat="44.31239446350795" lon="10.830115220012948"><ele>703.0</ele><time>2026-05-02T13:03:21.001Z</time></trkpt><trkpt lat="44.31237048775264" lon="10.829939296736406"><ele>703.0</ele><time>2026-05-02T13:03:22.001Z</time></trkpt><trkpt lat="44.31234208878792" lon="10.829771009367999"><ele>704.0</ele><time>2026-05-02T13:03:23.001Z</time></trkpt><trkpt lat="44.3123041633156" lon="10.829594110599611"><ele>705.0</ele><time>2026-05-02T13:03:24.001Z</time></trkpt><trkpt lat="44.31226907673359" lon="10.829410459443869"><ele>706.0</ele><time>2026-05-02T13:03:25.001Z</time></trkpt><trkpt lat="44.312242926859234" lon="10.829218463409992"><ele>707.0</ele><time>2026-05-02T13:03:26.001Z</time></trkpt><trkpt lat="44.31222204394152" lon="10.829036899990504"><ele>708.75</ele><time>2026-05-02T13:03:27.001Z</time></trkpt><trkpt lat="44.31220630388722" lon="10.828846906125627"><ele>710.5</ele><time>2026-05-02T13:03:28.001Z</time></trkpt><trkpt lat="44.31219384877788" lon="10.828658140929692"><ele>712.25</ele><time>2026-05-02T13:03:29.001Z</time></trkpt><trkpt lat="44.31218367746947" lon="10.828486526573911"><ele>714.0</ele><time>2026-05-02T13:03:30.001Z</time></trkpt><trkpt lat="44.31217624802074" lon="10.828334814588615"><ele>714.0</ele><time>2026-05-02T13:03:31.001Z</time></trkpt><trkpt lat="44.31216917558986" lon="10.828184402278472"><ele>714.0</ele><time>2026-05-02T13:03:32.001Z</time></trkpt><trkpt lat="44.31215918128523" lon="10.828048694982092"><ele>714.0</ele><time>2026-05-02T13:03:33.001Z</time></trkpt><trkpt lat="44.312148635782115" lon="10.827926255752363"><ele>714.0</ele><time>2026-05-02T13:03:34.001Z</time></trkpt><trkpt lat="44.31212152114764" lon="10.827828359593214"><ele>714.0</ele><time>2026-05-02T13:03:35.001Z</time></trkpt><trkpt lat="44.31207098775266" lon="10.827755264912513"><ele>714.0</ele><time>2026-05-02T13:03:36.001Z</time></trkpt><trkpt lat="44.312144697821054" lon="10.827741135421356"><ele>714.0</ele><time>2026-05-02T13:03:37.001Z</time></trkpt><trkpt lat="44.311969144546445" lon="10.827802681390546"><ele>714.0</ele><time>2026-05-02T13:03:38.001Z</time></trkpt><trkpt lat="44.31192524580039" lon="10.827866785938783"><ele>714.0</ele><time>2026-05-02T13:03:39.001Z</time></trkpt><trkpt lat="44.31181867199149" lon="10.82798236590264"><ele>714.0</ele><time>2026-05-02T13:03:41.001Z</time></trkpt><trkpt lat="44.311758490480315" lon="10.828046100289546"><ele>714.0</ele><time>2026-05-02T13:03:42.001Z</time></trkpt><trkpt lat="44.311673941658725" lon="10.828133919441807"><ele>714.0</ele><time>2026-05-02T13:03:43.001Z</time></trkpt><trkpt lat="44.31158612080005" lon="10.828214270626786"><ele>714.0</ele><time>2026-05-02T13:03:44.001Z</time></trkpt><trkpt lat="44.31150197648355" lon="10.82831134673289"><ele>714.0</ele><time>2026-05-02T13:03:45.001Z</time></trkpt><trkpt lat="44.31140891934881" lon="10.828400405312228"><ele>714.0</ele><time>2026-05-02T13:03:46.001Z</time></trkpt><trkpt lat="44.31132548015769" lon="10.828486310337018"><ele>715.5</ele><time>2026-05-02T13:03:47Z</time></trkpt><trkpt lat="44.3112504376252" lon="10.828584116200522"><ele>717.0</ele><time>2026-05-02T13:03:48Z</time></trkpt><trkpt lat="44.31113349930142" lon="10.8286802375444"><ele>718.5</ele><time>2026-05-02T13:03:49Z</time></trkpt><trkpt lat="44.31102250826042" lon="10.828817732989384"><ele>720.0</ele><time>2026-05-02T13:03:50Z</time></trkpt><trkpt lat="44.31090202412901" lon="10.82893746734927"><ele>720.0</ele><time>2026-05-02T13:03:51Z</time></trkpt><trkpt lat="44.310774005176434" lon="10.829066133917461"><ele>720.0</ele><time>2026-05-02T13:03:52Z</time></trkpt><trkpt lat="44.310657555083" lon="10.829194916415696"><ele>720.0</ele><time>2026-05-02T13:03:53Z</time></trkpt><trkpt lat="44.310548194592734" lon="10.829315520533033"><ele>720.0</ele><time>2026-05-02T13:03:54Z</time></trkpt><trkpt lat="44.310444532195056" lon="10.82942920452538"><ele>723.25</ele><time>2026-05-02T13:03:55Z</time></trkpt><trkpt lat="44.310348766199134" lon="10.829536670242868"><ele>726.5</ele><time>2026-05-02T13:03:56Z</time></trkpt><trkpt lat="44.310259592067425" lon="10.829652891047738"><ele>729.75</ele><time>2026-05-02T13:03:57Z</time></trkpt><trkpt lat="44.310171547772285" lon="10.829778483121133"><ele>733.0</ele><time>2026-05-02T13:03:58Z</time></trkpt><trkpt lat="44.310090263739006" lon="10.829913603931534"><ele>733.0</ele><time>2026-05-02T13:03:59Z</time></trkpt><trkpt lat="44.3100236629535" lon="10.830046601856449"><ele>733.0</ele><time>2026-05-02T13:04:00Z</time></trkpt><trkpt lat="44.30996419347348" lon="10.83019655478187"><ele>733.0</ele><time>2026-05-02T13:04:01Z</time></trkpt><trkpt lat="44.30991156601103" lon="10.830361608251087"><ele>733.0</ele><time>2026-05-02T13:04:02Z</time></trkpt><trkpt lat="44.309866396701366" lon="10.830527680638115"><ele>732.75</ele><time>2026-05-02T13:04:03Z</time></trkpt><trkpt lat="44.309828360850844" lon="10.830705663288711"><ele>732.5</ele><time>2026-05-02T13:04:04Z</time></trkpt><trkpt lat="44.30980380502445" lon="10.83089540781661"><ele>732.25</ele><time>2026-05-02T13:04:05Z</time></trkpt><trkpt lat="44.309797967366954" lon="10.831074564241073"><ele>732.0</ele><time>2026-05-02T13:04:06Z</time></trkpt><trkpt lat="44.30980619001474" lon="10.831262227134367"><ele>733.25</ele><time>2026-05-02T13:04:07Z</time></trkpt><trkpt lat="44.30982674152878" lon="10.831458892582802"><ele>734.5</ele><time>2026-05-02T13:04:08Z</time></trkpt><trkpt lat="44.30983618508446" lon="10.831642421349006"><ele>735.75</ele><time>2026-05-02T13:04:09Z</time></trkpt><trkpt lat="44.30984602041323" lon="10.831821142561257"><ele>737.0</ele><time>2026-05-02T13:04:10Z</time></trkpt><trkpt lat="44.30985986319488" lon="10.831996182721248"><ele>738.5</ele><time>2026-05-02T13:04:11Z</time></trkpt><trkpt lat="44.30987341987569" lon="10.832158424370649"><ele>740.0</ele><time>2026-05-02T13:04:12Z</time></trkpt><trkpt lat="44.309887515032734" lon="10.832326510707752"><ele>741.5</ele><time>2026-05-02T13:04:13Z</time></trkpt><trkpt lat="44.309899416016144" lon="10.832486698869948"><ele>743.0</ele><time>2026-05-02T13:04:14Z</time></trkpt><trkpt lat="44.30992101883464" lon="10.832649268452966"><ele>745.0</ele><time>2026-05-02T13:04:15Z</time></trkpt><trkpt lat="44.30996845710288" lon="10.832806097175196"><ele>747.0</ele><time>2026-05-02T13:04:16Z</time></trkpt><trkpt lat="44.31003236184608" lon="10.832953245778178"><ele>749.0</ele><time>2026-05-02T13:04:17Z</time></trkpt><trkpt lat="44.31010177692176" lon="10.833074803943322"><ele>751.0</ele><time>2026-05-02T13:04:18Z</time></trkpt><trkpt lat="44.31017035660123" lon="10.833192368890959"><ele>751.0</ele><time>2026-05-02T13:04:19Z</time></trkpt><trkpt lat="44.310217006237586" lon="10.833300293973876"><ele>751.0</ele><time>2026-05-02T13:04:20Z</time></trkpt><trkpt lat="44.310256182001865" lon="10.833420123206452"><ele>751.0</ele><time>2026-05-02T13:04:21Z</time></trkpt><trkpt lat="44.3102510789426" lon="10.83354608997439"><ele>751.0</ele><time>2026-05-02T13:04:22Z</time></trkpt><trkpt lat="44.31023719210772" lon="10.833663488198711"><ele>751.0</ele><time>2026-05-02T13:04:23Z</time></trkpt><trkpt lat="44.31017732304163" lon="10.833761364709453"><ele>749.8</ele><time>2026-05-02T13:04:24Z</time></trkpt><trkpt lat="44.31008066163647" lon="10.83380514752318"><ele>748.5999999999999</ele><time>2026-05-02T13:04:25Z</time></trkpt><trkpt lat="44.3099833691489" lon="10.833830464074204"><ele>747.4</ele><time>2026-05-02T13:04:26Z</time></trkpt><trkpt lat="44.3098684099884" lon="10.833897549334324"><ele>746.2</ele><time>2026-05-02T13:04:27Z</time></trkpt><trkpt lat="44.3097570216537" lon="10.833926429573118"><ele>745.0</ele><time>2026-05-02T13:04:28Z</time></trkpt><trkpt lat="44.30963686788367" lon="10.833970993639218"><ele>748.5</ele><time>2026-05-02T13:04:29Z</time></trkpt><trkpt lat="44.309513890871436" lon="10.833999401006361"><ele>752.0</ele><time>2026-05-02T13:04:30Z</time></trkpt><trkpt lat="44.30938792296008" lon="10.834015899940388"><ele>755.5</ele><time>2026-05-02T13:04:31Z</time></trkpt><trkpt lat="44.30925509232167" lon="10.834022011724878"><ele>759.0</ele><time>2026-05-02T13:04:32Z</time></trkpt><trkpt lat="44.30912475614611" lon="10.834019419113162"><ele>759.0</ele><time>2026-05-02T13:04:33Z</time></trkpt><trkpt lat="44.30899673096873" lon="10.83401525299677"><ele>759.0</ele><time>2026-05-02T13:04:34Z</time></trkpt><trkpt lat="44.30887062654017" lon="10.834013929746199"><ele>759.0</ele><time>2026-05-02T13:04:35Z</time></trkpt><trkpt lat="44.30874602650265" lon="10.834021214733642"><ele>759.0</ele><time>2026-05-02T13:04:36Z</time></trkpt><trkpt lat="44.308623957136284" lon="10.834019642698047"><ele>760.5</ele><time>2026-05-02T13:04:37Z</time></trkpt><trkpt lat="44.3084986703912" lon="10.834011519017945"><ele>762.0</ele><time>2026-05-02T13:04:38Z</time></trkpt><trkpt lat="44.308378308891854" lon="10.834006682309285"><ele>763.5</ele><time>2026-05-02T13:04:39Z</time></trkpt><trkpt lat="44.308254985070946" lon="10.834002981431329"><ele>765.0</ele><time>2026-05-02T13:04:40Z</time></trkpt><trkpt lat="44.3081339588535" lon="10.83400574740731"><ele>764.75</ele><time>2026-05-02T13:04:41Z</time></trkpt><trkpt lat="44.30801175762759" lon="10.834014933543017"><ele>764.5</ele><time>2026-05-02T13:04:42Z</time></trkpt><trkpt lat="44.30788896453896" lon="10.83400259377204"><ele>764.25</ele><time>2026-05-02T13:04:43Z</time></trkpt><trkpt lat="44.30777555061922" lon="10.83403900248422"><ele>764.0</ele><time>2026-05-02T13:04:44Z</time></trkpt><trkpt lat="44.3076699631275" lon="10.834050643979587"><ele>764.0</ele><time>2026-05-02T13:04:45Z</time></trkpt><trkpt lat="44.30756837342509" lon="10.834078930781008"><ele>764.0</ele><time>2026-05-02T13:04:46Z</time></trkpt><trkpt lat="44.30746427232045" lon="10.834119570636018"><ele>764.0</ele><time>2026-05-02T13:04:47Z</time></trkpt><trkpt lat="44.307358317995146" lon="10.834142364963974"><ele>764.0</ele><time>2026-05-02T13:04:48Z</time></trkpt><trkpt lat="44.30724009442655" lon="10.834157431731867"><ele>764.0</ele><time>2026-05-02T13:04:49Z</time></trkpt><trkpt lat="44.307119574964865" lon="10.834163391066204"><ele>763.25</ele><time>2026-05-02T13:04:50Z</time></trkpt><trkpt lat="44.30700464131977" lon="10.834165581098372"><ele>762.5</ele><time>2026-05-02T13:04:51Z</time></trkpt><trkpt lat="44.306890089430034" lon="10.83415691179652"><ele>761.75</ele><time>2026-05-02T13:04:52Z</time></trkpt><trkpt lat="44.30677610172212" lon="10.834093175163058"><ele>761.0</ele><time>2026-05-02T13:04:53Z</time></trkpt><trkpt lat="44.30665910833572" lon="10.834070517502498"><ele>761.0</ele><time>2026-05-02T13:04:54Z</time></trkpt><trkpt lat="44.306544455543744" lon="10.834023175535258"><ele>761.0</ele><time>2026-05-02T13:04:55Z</time></trkpt><trkpt lat="44.30642565162894" lon="10.833981957455503"><ele>761.0</ele><time>2026-05-02T13:04:56Z</time></trkpt><trkpt lat="44.30630392021568" lon="10.833935297406265"><ele>761.0</ele><time>2026-05-02T13:04:57Z</time></trkpt><trkpt lat="44.30618265682854" lon="10.833887520743598"><ele>760.0</ele><time>2026-05-02T13:04:58Z</time></trkpt><trkpt lat="44.306063362246576" lon="10.833840119250064"><ele>759.0</ele><time>2026-05-02T13:04:59Z</time></trkpt><trkpt lat="44.305947849494785" lon="10.833792221642598"><ele>758.0</ele><time>2026-05-02T13:05:00Z</time></trkpt><trkpt lat="44.305827312604684" lon="10.833749355591198"><ele>757.0</ele><time>2026-05-02T13:05:01Z</time></trkpt><trkpt lat="44.30570759324455" lon="10.833698342682554"><ele>757.0</ele><time>2026-05-02T13:05:02Z</time></trkpt><trkpt lat="44.30558791519802" lon="10.833648178244484"><ele>757.0</ele><time>2026-05-02T13:05:03Z</time></trkpt><trkpt lat="44.30546266494454" lon="10.833601275884163"><ele>757.0</ele><time>2026-05-02T13:05:04Z</time></trkpt><trkpt lat="44.30535320107913" lon="10.833554173811988"><ele>757.0</ele><time>2026-05-02T13:05:05Z</time></trkpt><trkpt lat="44.30523650387277" lon="10.833496282922015"><ele>758.5</ele><time>2026-05-02T13:05:06Z</time></trkpt><trkpt lat="44.30512207088492" lon="10.833440966928057"><ele>760.0</ele><time>2026-05-02T13:05:07Z</time></trkpt><trkpt lat="44.30500320159316" lon="10.833389496618292"><ele>761.5</ele><time>2026-05-02T13:05:08Z</time></trkpt><trkpt lat="44.30488886552794" lon="10.83333362216962"><ele>763.0</ele><time>2026-05-02T13:05:09Z</time></trkpt><trkpt lat="44.30477836465573" lon="10.83326846944582"><ele>762.5</ele><time>2026-05-02T13:05:10Z</time></trkpt><trkpt lat="44.30465503830645" lon="10.833202562543358"><ele>762.0</ele><time>2026-05-02T13:05:11Z</time></trkpt><trkpt lat="44.30455564427861" lon="10.833106422629802"><ele>761.5</ele><time>2026-05-02T13:05:12Z</time></trkpt><trkpt lat="44.30445497533903" lon="10.833000330738061"><ele>761.0</ele><time>2026-05-02T13:05:13Z</time></trkpt><trkpt lat="44.30436745069781" lon="10.832880288084063"><ele>761.0</ele><time>2026-05-02T13:05:14Z</time></trkpt><trkpt lat="44.30427416005147" lon="10.83277334795006"><ele>761.0</ele><time>2026-05-02T13:05:15Z</time></trkpt><trkpt lat="44.30419936314247" lon="10.83265065385787"><ele>761.0</ele><time>2026-05-02T13:05:16Z</time></trkpt><trkpt lat="44.304118344980864" lon="10.832525318246551"><ele>761.0</ele><time>2026-05-02T13:05:17Z</time></trkpt><trkpt lat="44.30403178873569" lon="10.83239933059579"><ele>764.6666666666666</ele><time>2026-05-02T13:05:18Z</time></trkpt><trkpt lat="44.30392659778783" lon="10.832239720315313"><ele>768.3333333333333</ele><time>2026-05-02T13:05:19Z</time></trkpt><trkpt lat="44.30380694965825" lon="10.832070981956349"><ele>772.0</ele><time>2026-05-02T13:05:20Z</time></trkpt><trkpt lat="44.30367707745827" lon="10.83191784741516"><ele>774.3333333333333</ele><time>2026-05-02T13:05:21Z</time></trkpt><trkpt lat="44.303537745012605" lon="10.831758624450547"><ele>776.6666666666667</ele><time>2026-05-02T13:05:22Z</time></trkpt><trkpt lat="44.30335173945583" lon="10.831558623806709"><ele>779.0</ele><time>2026-05-02T13:05:23Z</time></trkpt><trkpt lat="44.30318958406767" lon="10.83142860569002"><ele>781.3333333333334</ele><time>2026-05-02T13:05:24Z</time></trkpt><trkpt lat="44.30303937446085" lon="10.831350497396983"><ele>783.6666666666667</ele><time>2026-05-02T13:05:25Z</time></trkpt><trkpt lat="44.302853018962516" lon="10.831266717144551"><ele>786.0</ele><time>2026-05-02T13:05:26.001Z</time></trkpt><trkpt lat="44.30267045292913" lon="10.831192326162277"><ele>786.0</ele><time>2026-05-02T13:05:27.001Z</time></trkpt><trkpt lat="44.302520311466566" lon="10.83112649868635"><ele>786.0</ele><time>2026-05-02T13:05:28.001Z</time></trkpt><trkpt lat="44.302402410691016" lon="10.831076436590225"><ele>786.0</ele><time>2026-05-02T13:05:29.001Z</time></trkpt><trkpt lat="44.30227400119923" lon="10.831006857801029"><ele>786.0</ele><time>2026-05-02T13:05:30.001Z</time></trkpt><trkpt lat="44.30217914770031" lon="10.830912725837075"><ele>787.25</ele><time>2026-05-02T13:05:31.001Z</time></trkpt><trkpt lat="44.30210351915293" lon="10.830792926069286"><ele>788.5</ele><time>2026-05-02T13:05:32.001Z</time></trkpt><trkpt lat="44.30204629147866" lon="10.830651955587097"><ele>789.75</ele><time>2026-05-02T13:05:33.001Z</time></trkpt><trkpt lat="44.302034759708576" lon="10.830489039892372"><ele>791.0</ele><time>2026-05-02T13:05:34.001Z</time></trkpt><trkpt lat="44.30204391333428" lon="10.830327342579098"><ele>791.0</ele><time>2026-05-02T13:05:35.001Z</time></trkpt><trkpt lat="44.30208531124978" lon="10.830176936471448"><ele>791.0</ele><time>2026-05-02T13:05:36.001Z</time></trkpt><trkpt lat="44.30215655750809" lon="10.830038271291409"><ele>791.0</ele><time>2026-05-02T13:05:37.001Z</time></trkpt><trkpt lat="44.30224535830882" lon="10.829926433825706"><ele>791.0</ele><time>2026-05-02T13:05:38.001Z</time></trkpt><trkpt lat="44.30235476410833" lon="10.829831762617383"><ele>789.75</ele><time>2026-05-02T13:05:39.001Z</time></trkpt><trkpt lat="44.30246489343501" lon="10.829744324178677"><ele>788.5</ele><time>2026-05-02T13:05:40.001Z</time></trkpt><trkpt lat="44.30260347913488" lon="10.829611590450737"><ele>787.25</ele><time>2026-05-02T13:05:41.001Z</time></trkpt><trkpt lat="44.30272987730826" lon="10.829491031066539"><ele>786.0</ele><time>2026-05-02T13:05:42.001Z</time></trkpt><trkpt lat="44.30283124207778" lon="10.82940746566453"><ele>786.0</ele><time>2026-05-02T13:05:43.001Z</time></trkpt><trkpt lat="44.30292736888587" lon="10.829314480493768"><ele>786.0</ele><time>2026-05-02T13:05:44.001Z</time></trkpt><trkpt lat="44.302974544369604" lon="10.82920421864596"><ele>786.0</ele><time>2026-05-02T13:05:45.001Z</time></trkpt><trkpt lat="44.3029799173944" lon="10.829077918080587"><ele>786.0</ele><time>2026-05-02T13:05:46.001Z</time></trkpt><trkpt lat="44.30294675349215" lon="10.828942643545481"><ele>786.0</ele><time>2026-05-02T13:05:47.001Z</time></trkpt><trkpt lat="44.30286526091509" lon="10.828835981213937"><ele>788.8</ele><time>2026-05-02T13:05:48.001Z</time></trkpt><trkpt lat="44.30276029352686" lon="10.828803878441443"><ele>791.5999999999999</ele><time>2026-05-02T13:05:49.001Z</time></trkpt><trkpt lat="44.30264962966203" lon="10.828803315388786"><ele>794.4</ele><time>2026-05-02T13:05:50.001Z</time></trkpt><trkpt lat="44.30254811412781" lon="10.828824609330155"><ele>797.2</ele><time>2026-05-02T13:05:51.001Z</time></trkpt><trkpt lat="44.30244115050435" lon="10.828808772044166"><ele>800.0</ele><time>2026-05-02T13:05:52.001Z</time></trkpt><trkpt lat="44.30233967740284" lon="10.828805942307945"><ele>802.75</ele><time>2026-05-02T13:05:53.001Z</time></trkpt><trkpt lat="44.30223929374948" lon="10.828803142952914"><ele>805.5</ele><time>2026-05-02T13:05:54.001Z</time></trkpt><trkpt lat="44.302102726558616" lon="10.828799489150873"><ele>808.25</ele><time>2026-05-02T13:05:55.001Z</time></trkpt><trkpt lat="44.30196374951478" lon="10.82879684449333"><ele>811.0</ele><time>2026-05-02T13:05:56.001Z</time></trkpt><trkpt lat="44.30180974741962" lon="10.828787106338229"><ele>811.0</ele><time>2026-05-02T13:05:57.001Z</time></trkpt><trkpt lat="44.30166465290615" lon="10.828754413277741"><ele>811.0</ele><time>2026-05-02T13:05:58.001Z</time></trkpt><trkpt lat="44.30154988158513" lon="10.828686439738997"><ele>811.0</ele><time>2026-05-02T13:05:59.001Z</time></trkpt><trkpt lat="44.30144898864709" lon="10.828599959026203"><ele>811.0</ele><time>2026-05-02T13:06:00Z</time></trkpt><trkpt lat="44.30134452075889" lon="10.82849767471162"><ele>810.75</ele><time>2026-05-02T13:06:01Z</time></trkpt><trkpt lat="44.30123384769424" lon="10.828384684968821"><ele>810.5</ele><time>2026-05-02T13:06:02Z</time></trkpt><trkpt lat="44.301130096076726" lon="10.828290626073194"><ele>810.25</ele><time>2026-05-02T13:06:03Z</time></trkpt><trkpt lat="44.3010224990196" lon="10.828220944510452"><ele>810.0</ele><time>2026-05-02T13:06:04Z</time></trkpt><trkpt lat="44.300897958668784" lon="10.82820455788193"><ele>810.0</ele><time>2026-05-02T13:06:05Z</time></trkpt><trkpt lat="44.30076566720874" lon="10.82822735133191"><ele>810.0</ele><time>2026-05-02T13:06:06Z</time></trkpt><trkpt lat="44.30063624070232" lon="10.82829996757261"><ele>810.0</ele><time>2026-05-02T13:06:07Z</time></trkpt><trkpt lat="44.30051642230131" lon="10.828415392737083"><ele>810.0</ele><time>2026-05-02T13:06:08Z</time></trkpt><trkpt lat="44.30040803233418" lon="10.82854699400031"><ele>813.5</ele><time>2026-05-02T13:06:09Z</time></trkpt><trkpt lat="44.30028372942334" lon="10.828643273444351"><ele>817.0</ele><time>2026-05-02T13:06:10Z</time></trkpt><trkpt lat="44.30017705911309" lon="10.828735527218672"><ele>820.5</ele><time>2026-05-02T13:06:11Z</time></trkpt><trkpt lat="44.30007853289155" lon="10.828805241014486"><ele>824.0</ele><time>2026-05-02T13:06:12Z</time></trkpt><trkpt lat="44.2999627354404" lon="10.828853455775501"><ele>824.0</ele><time>2026-05-02T13:06:13Z</time></trkpt><trkpt lat="44.29985289808231" lon="10.82884695312225"><ele>824.0</ele><time>2026-05-02T13:06:14Z</time></trkpt><trkpt lat="44.299736322952704" lon="10.828805789418237"><ele>824.0</ele><time>2026-05-02T13:06:15Z</time></trkpt><trkpt lat="44.29960818213185" lon="10.828738336287982"><ele>824.0</ele><time>2026-05-02T13:06:16Z</time></trkpt><trkpt lat="44.299461811042654" lon="10.82867619967844"><ele>822.6666666666667</ele><time>2026-05-02T13:06:17Z</time></trkpt><trkpt lat="44.29931795113274" lon="10.82859686107756"><ele>821.3333333333333</ele><time>2026-05-02T13:06:18Z</time></trkpt><trkpt lat="44.29917389428405" lon="10.82851369367273"><ele>820.0</ele><time>2026-05-02T13:06:19Z</time></trkpt><trkpt lat="44.2990381300472" lon="10.828420563587274"><ele>823.5</ele><time>2026-05-02T13:06:20Z</time></trkpt><trkpt lat="44.298901740370454" lon="10.828364501426957"><ele>827.0</ele><time>2026-05-02T13:06:21Z</time></trkpt><trkpt lat="44.29879901403328" lon="10.828248080237733"><ele>830.5</ele><time>2026-05-02T13:06:22Z</time></trkpt><trkpt lat="44.29870162931702" lon="10.828151189834733"><ele>834.0</ele><time>2026-05-02T13:06:23Z</time></trkpt><trkpt lat="44.298606118021105" lon="10.828060109367772"><ele>834.0</ele><time>2026-05-02T13:06:24Z</time></trkpt><trkpt lat="44.29852502039214" lon="10.82797638171466"><ele>834.0</ele><time>2026-05-02T13:06:25Z</time></trkpt><trkpt lat="44.29844766839686" lon="10.827921024920702"><ele>834.0</ele><time>2026-05-02T13:06:26Z</time></trkpt><trkpt lat="44.298375242012035" lon="10.827887285640802"><ele>834.0</ele><time>2026-05-02T13:06:27Z</time></trkpt><trkpt lat="44.29825008256957" lon="10.827898653905008"><ele>834.0</ele><time>2026-05-02T13:06:29Z</time></trkpt><trkpt lat="44.29817948229467" lon="10.828132469457424"><ele>834.0</ele><time>2026-05-02T13:06:31Z</time></trkpt><trkpt lat="44.29814356247467" lon="10.8282590138481"><ele>834.0</ele><time>2026-05-02T13:06:32Z</time></trkpt><trkpt lat="44.29809537157142" lon="10.828402466082778"><ele>834.0</ele><time>2026-05-02T13:06:33Z</time></trkpt><trkpt lat="44.29804308065287" lon="10.828549486747368"><ele>834.0</ele><time>2026-05-02T13:06:34Z</time></trkpt><trkpt lat="44.29796047185247" lon="10.828673915587645"><ele>835.8000000000001</ele><time>2026-05-02T13:06:35Z</time></trkpt><trkpt lat="44.29789398026476" lon="10.82880985222174"><ele>837.6</ele><time>2026-05-02T13:06:36Z</time></trkpt><trkpt lat="44.297796890775196" lon="10.828907745335535"><ele>839.4</ele><time>2026-05-02T13:06:37Z</time></trkpt><trkpt lat="44.2977262002709" lon="10.828999159138627"><ele>841.2</ele><time>2026-05-02T13:06:38Z</time></trkpt><trkpt lat="44.29765168824692" lon="10.829088386203864"><ele>843.0</ele><time>2026-05-02T13:06:39Z</time></trkpt><trkpt lat="44.29756511445785" lon="10.82916037252234"><ele>843.0</ele><time>2026-05-02T13:06:40Z</time></trkpt><trkpt lat="44.29748565573724" lon="10.829210939987137"><ele>843.0</ele><time>2026-05-02T13:06:41Z</time></trkpt><trkpt lat="44.29742679853809" lon="10.829274401401413"><ele>843.0</ele><time>2026-05-02T13:06:42Z</time></trkpt><trkpt lat="44.29731998020666" lon="10.829195498162967"><ele>843.0</ele><time>2026-05-02T13:06:44Z</time></trkpt><trkpt lat="44.29724929246181" lon="10.829117829627954"><ele>843.0</ele><time>2026-05-02T13:06:45Z</time></trkpt><trkpt lat="44.29718892211444" lon="10.828985518571605"><ele>844.2</ele><time>2026-05-02T13:06:46Z</time></trkpt><trkpt lat="44.29712778137873" lon="10.828894140044765"><ele>845.4</ele><time>2026-05-02T13:06:47Z</time></trkpt><trkpt lat="44.29705328089096" lon="10.828832898406457"><ele>846.6</ele><time>2026-05-02T13:06:48Z</time></trkpt><trkpt lat="44.296948950030874" lon="10.82872512166006"><ele>847.8000000000001</ele><time>2026-05-02T13:06:50Z</time></trkpt><trkpt lat="44.29685926721241" lon="10.82867392564419"><ele>849.0</ele><time>2026-05-02T13:06:52Z</time></trkpt><trkpt lat="44.29691578854517" lon="10.828534892382045"><ele>849.0</ele><time>2026-05-02T13:06:55Z</time></trkpt><trkpt lat="44.2969591648563" lon="10.828469743162689"><ele>841.0</ele><time>2026-05-02T13:06:57Z</time></trkpt><trkpt lat="44.296913466112095" lon="10.828402611915594"><ele>841.0</ele><time>2026-05-02T13:07:00Z</time></trkpt></trkseg></trk></gpx>